[[{"header":{"parameterUnit":"m.s-1","parameterCategory":1,"la1":30.6,"la2":28.766,"lo1":-90.7593,"lo2":-88.6598,"dy":0.0162,"dx":0.0183,"nx":116,"ny":114,"refTime":"2023-09-17T00:00:00:Z","depth":0,"parameterNumber":2,"parameterNumberName":"U-component_of_WINDS"},"data":[0.0,0.0,0.0,0.0,0.0,0.0,0.0,0.0,0.0,0.0,0.0,0.0,0.0,0.0,0.0,0.0,0.0,0.0,0.0,0.0,0.0,0.0,0.0,0.0,0.0,0.0,0.0,0.0,0.0,0.0,0.0,0.0,0.0,0.0,0.0,0.0,0.0,0.0,0.0,0.0,0.0,0.0,0.0,0.0,0.0,0.0,0.0,0.0,0.0,0.0,0.0,0.0,0.0,0.0,0.0,0.0,0.0,0.0,0.0,0.0,0.0,0.0,0.0,0.0,0.0,0.0,0.0,0.0,0.0,0.0,0.0,0.0,0.0,0.0,0.0,0.0,0.0,0.0,0.0,0.0,0.0,0.0,0.0,0.0,0.0,0.0,0.0,0.0,0.0,0.0,0.0,0.0,0.0,0.0,0.0,0.0,0.0,0.0,0.0,0.0,0.0,0.0,0.0,0.0,0.0,0.0,0.0,0.0,0.0,0.0,0.0,0.0,0.0,0.0,0.0,0.0,0.0,0.0,0.0,0.0,0.0,0.0,0.0,0.0,0.0,0.0,0.0,0.0,0.0,0.0,0.0,0.0,0.0,0.0,0.0,0.0,0.0,0.0,0.0,0.0,0.0,0.0,0.0,0.0,0.0,0.0,0.0,0.0,0.0,0.0,0.0,0.0,0.0,0.0,0.0,0.0,0.0,0.0,0.0,0.0,0.0,0.0,0.0,0.0,0.0,0.0,0.0,0.0,0.0,0.0,0.0,0.0,0.0,0.0,0.0,0.0,0.0,0.0,0.0,0.0,0.0,0.0,0.0,0.0,0.0,0.0,0.0,0.0,0.0,0.0,0.0,0.0,0.0,0.0,0.0,0.0,0.0,0.0,0.0,0.0,0.0,0.0,0.0,0.0,0.0,0.0,0.0,0.0,0.0,0.0,0.0,0.0,0.0,0.0,0.0,0.0,0.0,0.0,0.0,0.0,0.0,0.0,0.0,0.0,0.0,0.0,0.0,0.0,0.0,0.0,0.0,0.0,0.0,0.0,0.0,0.0,0.0,0.0,0.0,0.0,0.0,0.0,0.0,0.0,0.0,0.0,0.0,0.0,0.0,0.0,0.0,0.0,0.0,0.0,0.0,0.0,0.0,0.0,0.0,0.0,0.0,0.0,0.0,0.0,0.0,0.0,0.0,0.0,0.0,0.0,0.0,0.0,0.0,0.0,0.0,0.0,0.0,0.0,0.0,0.0,0.0,0.0,0.0,0.0,0.0,0.0,0.0,0.0,0.0,0.0,0.0,0.0,0.0,0.0,0.0,0.0,0.0,0.0,0.0,0.0,0.0,0.0,0.0,0.0,0.0,0.0,0.0,0.0,0.0,0.0,0.0,0.0,0.0,0.0,0.0,0.0,0.0,0.0,0.0,0.0,0.0,0.0,0.0,0.0,0.0,0.0,0.0,0.0,0.0,0.0,0.0,0.0,0.0,0.0,0.0,0.0,0.0,0.0,0.0,0.0,0.0,0.0,0.0,0.0,0.0,0.0,0.0,0.0,0.0,0.0,0.0,0.0,0.0,0.0,0.0,0.0,0.0,0.0,0.0,0.0,0.0,0.0,0.0,0.0,0.0,0.0,0.0,0.0,0.0,0.0,0.0,0.0,0.0,0.0,0.0,0.0,0.0,0.0,0.0,0.0,0.0,0.0,0.0,0.0,0.0,0.0,0.0,0.0,0.0,0.0,0.0,0.0,0.0,0.0,0.0,0.0,0.0,0.0,0.0,0.0,0.0,0.0,0.0,0.0,0.0,0.0,0.0,0.0,0.0,0.0,0.0,0.0,0.0,0.0,0.0,0.0,0.0,0.0,0.0,0.0,0.0,0.0,0.0,0.0,0.0,0.0,0.0,0.0,0.0,0.0,0.0,0.0,0.0,0.0,0.0,0.0,0.0,0.0,0.0,0.0,0.0,0.0,0.0,0.0,0.0,0.0,0.0,0.0,0.0,0.0,0.0,0.0,0.0,0.0,0.0,0.0,0.0,0.0,0.0,0.0,0.0,0.0,0.0,0.0,0.0,0.0,0.0,0.0,0.0,0.0,0.0,0.0,0.0,0.0,0.0,0.0,0.0,0.0,0.0,0.0,0.0,0.0,0.0,0.0,0.0,0.0,0.0,0.0,0.0,0.0,0.0,0.0,0.0,0.0,0.0,0.0,0.0,0.0,0.0,0.0,0.0,0.0,0.0,0.0,0.0,0.0,0.0,0.0,0.0,0.0,0.0,0.0,0.0,0.0,0.0,0.0,0.0,0.0,0.0,0.0,0.0,0.0,0.0,0.0,0.0,0.0,0.0,0.0,0.0,0.0,0.0,0.0,0.0,0.0,0.0,0.0,0.0,0.0,0.0,0.0,0.0,0.0,0.0,0.0,0.0,0.0,0.0,0.0,0.0,0.0,0.0,0.0,0.0,0.0,0.0,0.0,0.0,0.0,0.0,0.0,0.0,0.0,0.0,0.0,0.0,0.0,0.0,0.0,0.0,0.0,0.0,0.0,0.0,0.0,0.0,0.0,0.0,0.0,0.0,0.0,0.0,0.0,0.0,0.0,0.0,0.0,0.0,0.0,0.0,0.0,0.0,0.0,0.0,0.0,0.0,0.0,0.0,0.0,0.0,0.0,0.0,0.0,0.0,0.0,0.0,0.0,0.0,0.0,0.0,0.0,0.0,0.0,0.0,0.0,0.0,0.0,0.0,0.0,0.0,0.0,0.0,0.0,0.0,0.0,0.0,0.0,0.0,0.0,0.0,0.0,0.0,0.0,0.0,0.0,0.0,0.0,0.0,0.0,0.0,0.0,0.0,0.0,0.0,0.0,0.0,0.0,0.0,0.0,0.0,0.0,0.0,0.0,0.0,0.0,0.0,0.0,0.0,0.0,0.0,0.0,0.0,0.0,0.0,0.0,0.0,0.0,0.0,0.0,0.0,0.0,0.0,0.0,0.0,0.0,0.0,0.0,0.0,0.0,0.0,0.0,0.0,0.0,0.0,0.0,0.0,0.0,0.0,0.0,0.0,0.0,0.0,0.0,0.0,0.0,0.0,0.0,0.0,0.0,0.0,0.0,0.0,0.0,0.0,0.0,0.0,0.0,0.0,0.0,0.0,0.0,0.0,0.0,0.0,0.0,0.0,0.0,0.0,0.0,0.0,0.0,0.0,0.0,0.0,0.0,0.0,0.0,0.0,0.0,0.0,0.0,0.0,0.0,0.0,0.0,0.0,0.0,0.0,0.0,0.0,0.0,0.0,0.0,0.0,0.0,0.0,0.0,0.0,0.0,0.0,0.0,0.0,0.0,0.0,0.0,0.0,0.0,0.0,0.0,0.0,0.0,0.0,0.0,0.0,0.0,0.0,0.0,0.0,0.0,0.0,0.0,0.0,0.0,0.0,0.0,0.0,0.0,0.0,0.0,0.0,0.0,0.0,0.0,0.0,0.0,0.0,0.0,0.0,0.0,0.0,0.0,0.0,0.0,0.0,0.0,0.0,0.0,0.0,0.0,0.0,0.0,0.0,0.0,0.0,0.0,0.0,0.0,0.0,0.0,0.0,0.0,0.0,0.0,0.0,0.0,0.0,0.0,0.0,0.0,0.0,0.0,0.0,0.0,0.0,0.0,0.0,0.0,0.0,0.0,0.0,0.0,0.0,0.0,0.0,0.0,0.0,0.0,0.0,0.0,0.0,0.0,0.0,0.0,0.0,0.0,0.0,0.0,0.0,0.0,0.0,0.0,0.0,0.0,0.0,0.0,0.0,0.0,0.0,0.0,0.0,0.0,0.0,0.0,0.0,0.0,0.0,0.0,0.0,0.0,0.0,0.0,0.0,0.0,0.0,0.0,0.0,0.0,0.0,0.0,0.0,0.0,0.0,0.0,0.0,0.0,0.0,0.0,0.0,0.0,0.0,0.0,0.0,0.0,0.0,0.0,0.0,0.0,0.0,0.0,0.0,0.0,0.0,0.0,0.0,0.0,0.0,0.0,0.0,0.0,0.0,0.0,0.0,0.0,0.0,0.0,0.0,0.0,0.0,0.0,0.0,0.0,0.0,0.0,0.0,0.0,0.0,0.0,0.0,0.0,0.0,0.0,0.0,0.0,0.0,0.0,0.0,0.0,0.0,0.0,0.0,0.0,0.0,0.0,0.0,0.0,0.0,0.0,0.0,0.0,0.0,0.0,0.0,0.0,0.0,0.0,0.0,0.0,0.0,0.0,0.0,0.0,0.0,0.0,0.0,0.0,0.0,0.0,0.0,0.0,0.0,0.0,0.0,0.0,0.0,0.0,0.0,0.0,0.0,0.0,0.0,0.0,0.0,0.0,0.0,0.0,0.0,0.0,0.0,0.0,0.0,0.0,0.0,0.0,0.0,0.0,0.0,0.0,0.0,0.0,0.0,0.0,0.0,0.0,0.0,0.0,0.0,0.0,0.0,0.0,0.0,0.0,0.0,0.0,0.0,0.0,0.0,0.0,0.0,0.0,0.0,0.0,0.0,0.0,0.0,0.0,0.0,0.0,0.0,0.0,0.0,0.0,0.0,0.0,0.0,0.0,0.0,0.0,0.0,0.0,0.0,0.0,0.0,0.0,0.0,0.0,0.0,0.0,0.0,0.0,0.0,0.0,0.0,0.0,0.0,0.0,0.0,0.0,0.0,0.0,0.0,0.0,0.0,0.0,0.0,0.0,0.0,0.0,0.0,0.0,0.0,0.0,0.0,0.0,0.0,0.0,0.0,0.0,0.0,0.0,0.0,0.0,0.0,0.0,0.0,0.0,0.0,0.0,0.0,0.0,0.0,0.0,0.0,0.0,0.0,0.0,0.0,0.0,0.0,0.0,0.0,0.0,0.0,0.0,0.0,0.0,0.0,0.0,0.0,0.0,0.0,0.0,0.0,0.0,0.0,0.0,0.0,0.0,0.0,0.0,0.0,0.0,0.0,0.0,0.0,0.0,0.0,0.0,0.0,0.0,0.0,0.0,0.0,0.0,0.0,0.0,0.0,0.0,0.0,0.0,0.0,0.0,0.0,0.0,0.0,0.0,0.0,0.0,0.0,0.0,0.0,0.0,0.0,0.0,0.0,0.0,0.0,0.0,0.0,0.0,0.0,0.0,0.0,0.0,0.0,0.0,0.0,0.0,0.0,0.0,0.0,0.0,0.0,0.0,0.0,0.0,0.0,0.0,0.0,0.0,0.0,0.0,0.0,0.0,0.0,0.0,0.0,0.0,0.0,0.0,0.0,0.0,0.0,0.0,0.0,0.0,0.0,0.0,0.0,0.0,0.0,0.0,0.0,0.0,0.0,0.0,0.0,0.0,0.0,0.0,0.0,0.0,0.0,0.0,0.0,0.0,0.0,0.0,0.0,0.0,0.0,0.0,0.0,0.0,0.0,0.0,0.0,0.0,0.0,0.0,0.0,0.0,0.0,0.0,0.0,0.0,0.0,0.0,0.0,0.0,0.0,0.0,0.0,0.0,0.0,0.0,0.0,0.0,0.0,0.0,0.0,0.0,0.0,0.0,0.0,0.0,0.0,0.0,0.0,0.0,0.0,0.0,0.0,0.0,0.0,0.0,0.0,0.0,0.0,0.0,0.0,0.0,0.0,0.0,0.0,0.0,0.0,0.0,0.0,0.0,0.0,0.0,0.0,0.0,0.0,0.0,0.0,0.0,0.0,0.0,0.0,0.0,0.0,0.0,0.0,0.0,0.0,0.0,0.0,0.0,0.0,0.0,0.0,0.0,0.0,0.0,0.0,0.0,0.0,0.0,0.0,0.0,0.0,0.0,0.0,0.0,0.0,0.0,0.0,0.0,0.0,0.0,0.0,0.0,0.0,0.0,0.0,0.0,0.0,0.0,0.0,0.0,0.0,0.0,0.0,0.0,0.0,0.0,0.0,0.0,0.0,0.0,0.0,0.0,0.0,0.0,0.0,0.0,0.0,0.0,0.0,0.0,0.0,0.0,0.0,0.0,0.0,0.0,0.0,0.0,0.0,0.0,0.0,0.0,0.0,0.0,0.0,0.0,0.0,0.0,0.0,0.0,0.0,0.0,0.0,0.0,0.0,0.0,0.0,0.0,0.0,0.0,2.393,2.5074,0.0,0.0,0.0,0.0,0.0,0.0,0.0,0.0,0.0,0.0,0.0,0.0,0.0,0.0,0.0,0.0,0.0,0.0,0.0,0.0,0.0,0.0,0.0,0.0,0.0,0.0,0.0,0.0,0.0,0.0,0.0,0.0,0.0,0.0,0.0,0.0,0.0,1.3175,1.3798,1.3909,1.3501,1.3741,1.4337,1.5239,0.0,0.0,0.0,0.0,0.0,0.0,0.0,0.0,0.0,0.0,0.0,0.0,0.0,0.0,0.0,0.0,0.0,0.0,0.0,0.0,0.0,0.0,0.0,0.0,0.0,0.0,0.0,0.0,0.0,0.0,0.0,0.0,0.0,0.0,0.0,0.0,0.0,0.0,0.0,0.0,0.0,0.0,0.0,0.0,0.0,0.0,0.0,0.0,0.0,0.0,0.0,0.0,0.0,0.0,0.0,0.0,0.0,0.0,0.0,0.0,0.0,0.0,0.0,0.0,0.0,0.0,0.0,0.0,0.0,0.0,2.3598,2.4,0.0,0.0,0.0,0.0,0.0,0.0,0.0,0.0,0.0,0.0,0.0,0.0,0.0,0.0,0.0,0.0,0.0,0.0,0.0,0.0,0.0,0.0,0.0,1.0602,1.0613,1.0667,1.0667,1.1063,0.0,0.0,0.0,0.0,0.0,0.0,0.0,1.1962,1.2493,1.3536,1.359,1.3605,1.3601,1.2824,1.3811,1.6245,1.621,0.0,0.0,0.0,0.0,0.0,0.0,0.0,0.0,0.0,0.0,0.0,0.0,0.0,0.0,0.0,0.0,0.0,0.0,0.0,0.0,0.0,0.0,0.0,0.0,0.0,0.0,0.0,0.0,0.0,0.0,0.0,0.0,0.0,0.0,0.0,0.0,0.0,0.0,0.0,0.0,0.0,0.0,0.0,0.0,0.0,0.0,0.0,0.0,0.0,0.0,0.0,0.0,0.0,0.0,0.0,0.0,0.0,0.0,0.0,0.0,0.0,0.0,0.0,2.3686,2.3807,2.3809,2.4142,2.3841,2.306,2.3163,2.2837,2.2364,2.4012,0.0,0.0,0.0,0.0,0.0,0.0,0.0,0.0,0.0,0.0,0.0,0.0,0.0,0.0,0.0,0.0,0.0,0.0,0.0,0.0,0.0,1.0602,1.0693,1.0932,1.0958,1.1112,1.1479,0.0,0.0,0.0,0.0,0.0,1.2238,1.2251,1.2459,1.2906,1.3153,1.3269,1.3256,1.3132,1.371,1.4843,1.461,1.4599,1.4748,0.0,0.0,0.0,0.0,0.0,0.0,0.0,0.0,0.0,0.0,0.0,0.0,0.0,0.0,0.0,0.0,0.0,0.0,0.0,0.0,0.0,0.0,0.0,0.0,0.0,0.0,0.0,0.0,0.0,0.0,0.0,0.0,0.0,0.0,0.0,0.0,0.0,0.0,0.0,0.0,0.0,2.004,1.9116,0.0,0.0,0.0,0.0,0.0,0.0,0.0,0.0,0.0,0.0,0.0,0.0,0.0,2.4626,2.4626,2.3747,2.3312,2.3312,2.2554,2.2187,2.2187,2.2247,2.2205,2.2082,2.2086,0.0,2.3133,2.3411,0.0,0.0,0.0,0.0,0.0,0.0,0.0,0.0,0.0,0.0,0.0,0.0,0.0,0.0,0.0,0.0,0.0,0.0,0.0,0.0,0.0,1.03,1.0343,1.0949,1.1142,1.1339,1.165,1.1677,0.0,0.0,0.0,1.2462,1.2583,1.2719,1.2879,1.3032,1.3146,1.3193,1.3193,1.3193,1.3417,1.3817,1.3859,1.4365,1.5241,1.5659,0.0,0.0,0.0,0.0,0.0,0.0,0.0,0.0,0.0,0.0,0.0,0.0,0.0,0.0,0.0,0.0,0.0,0.0,0.0,0.0,0.0,0.0,0.0,0.0,0.0,0.0,0.0,0.0,0.0,0.0,0.0,0.0,0.0,0.0,0.0,0.0,0.0,0.0,0.0,1.9707,1.9529,1.9056,1.9412,2.0037,0.0,0.0,0.0,0.0,0.0,0.0,0.0,0.0,0.0,2.3162,2.3162,2.3162,2.3162,2.2961,2.2855,2.2855,2.2929,2.2971,2.299,2.3203,2.3301,2.3301,2.3301,2.3523,2.3901,2.3743,2.4092,2.4778,0.0,0.0,0.0,0.0,2.5637,2.5701,0.0,0.0,0.0,0.0,0.0,0.0,0.0,0.0,0.0,0.0,0.0,0.0,1.0232,0.995,1.0004,1.0775,1.102,1.1283,1.1598,1.1676,1.1819,1.2007,1.2591,1.2904,1.2904,1.2883,1.3007,1.33,1.3085,1.3145,1.344,1.344,1.344,1.344,1.3634,1.435,1.5393,1.5393,1.5529,1.5764,0.0,0.0,0.0,0.0,0.0,0.0,0.0,0.0,0.0,0.0,0.0,0.0,0.0,0.0,0.0,0.0,0.0,0.0,0.0,0.0,0.0,0.0,0.0,0.0,0.0,0.0,0.0,0.0,0.0,0.0,0.0,0.0,0.0,0.0,0.0,0.0,0.0,1.9067,1.9121,1.9141,1.893,1.9491,0.0,0.0,0.0,0.0,0.0,0.0,2.2228,2.2228,2.2326,2.2519,2.2539,2.2539,2.2539,2.2852,2.3008,2.2986,2.3652,2.3945,2.3965,2.4254,2.4391,2.4391,2.4391,2.4449,2.4538,2.4232,2.4272,2.4665,2.5827,2.6259,2.6215,2.5799,2.5817,2.5885,0.0,0.0,0.0,0.0,0.0,0.0,0.0,0.0,0.0,0.0,0.0,0.9362,0.9547,0.9644,0.9894,1.0396,1.0438,1.0562,1.0841,1.1082,1.1236,1.1248,1.2485,1.3186,1.3186,1.2388,1.2503,1.3586,1.2748,1.2926,1.4041,1.4041,1.4041,1.4063,1.4076,1.3936,1.3716,1.3716,1.4271,1.5133,1.4785,0.0,0.0,0.0,0.0,0.0,0.0,0.0,0.0,0.0,0.0,0.0,0.0,0.0,0.0,0.0,0.0,0.0,0.0,0.0,0.0,0.0,0.0,0.0,0.0,0.0,0.0,0.0,0.0,0.0,0.0,0.0,0.0,0.0,0.0,0.0,0.0,0.0,0.0,1.9539,1.8794,0.0,0.0,0.0,0.0,2.1813,2.1915,2.2267,2.309,2.3127,2.3479,2.4235,2.4274,2.4274,2.4274,2.4293,2.4293,2.4293,2.4332,2.4352,2.4371,2.4391,2.4391,2.4391,2.4391,2.4648,2.5024,2.4558,2.4405,2.4424,2.4513,2.4536,2.4513,2.4506,2.5012,2.5712,0.0,0.0,0.0,0.0,0.0,0.0,0.0,0.0,0.8531,0.9208,0.8807,0.8505,0.8657,0.8353,0.8483,0.9298,0.9569,0.9734,0.9828,0.9995,1.0103,1.0103,1.1553,1.2433,1.2626,1.1598,1.1261,1.1664,1.2095,1.2525,1.2963,1.373,1.4103,1.4103,1.4103,1.4028,1.3935,1.3935,1.413,1.4448,1.4337,1.4487,0.0,0.0,0.0,0.0,0.0,0.0,0.0,0.0,0.0,0.0,0.0,0.0,0.0,0.0,0.0,0.0,0.0,0.0,0.0,0.0,0.0,0.0,0.0,0.0,0.0,0.0,0.0,0.0,0.0,0.0,0.0,0.0,0.0,0.0,0.0,0.0,0.0,1.8608,1.7787,0.0,2.0038,1.9829,1.9928,2.0858,2.1731,2.2353,2.2672,2.3491,2.4102,2.4391,2.4687,2.4867,2.4867,2.541,2.5684,2.5684,2.5957,2.6069,2.6069,2.6069,2.6069,2.6069,2.6069,2.6172,2.6309,2.6152,2.5937,2.5723,2.5952,2.6069,2.6069,2.6069,2.6264,2.6537,0.0,0.0,0.0,0.0,0.0,0.0,0.0,0.0,0.7876,0.8742,0.8113,0.7633,0.7817,0.7504,0.7619,0.8393,0.8665,0.8818,0.8865,0.9036,0.9159,0.9235,1.0667,1.1535,1.1724,1.0616,1.0204,1.0605,1.0972,1.1338,1.1745,1.2537,1.2933,1.2933,1.2933,1.3124,1.3485,1.3485,1.373,1.4103,1.4103,1.4103,1.4153,0.0,0.0,0.0,0.0,0.0,0.0,0.0,0.0,0.0,0.0,0.0,0.0,0.0,0.0,0.0,0.0,0.0,0.0,0.0,0.0,0.0,0.0,0.0,0.0,0.0,0.0,0.0,0.0,0.0,0.0,0.0,0.0,0.0,0.0,1.7966,1.7325,1.8434,1.7409,1.7427,1.9462,1.9277,1.9399,2.032,2.1312,2.2164,2.2811,2.3773,2.4593,2.5269,2.5566,2.5747,2.5747,2.6309,2.6602,2.6602,2.685,2.6986,2.7031,2.7168,2.7226,2.7246,2.7383,2.7441,2.7461,2.7598,2.7474,2.7226,2.7045,2.6986,2.6986,2.6986,2.7109,2.7266,0.0,0.0,0.0,0.0,0.0,0.0,0.0,0.6568,0.6997,0.7843,0.7226,0.6789,0.7037,0.7185,0.7391,0.7734,0.774,0.7816,0.7933,0.8198,0.8445,0.8692,0.9852,1.0498,1.0551,0.9432,0.9388,1.0476,0.9432,0.9475,1.0551,1.0584,1.0605,1.0605,1.0605,1.1209,1.2237,1.2237,1.2921,1.3997,1.406,1.4103,1.4103,0.0,0.0,0.0,0.0,0.0,0.0,0.0,0.0,0.0,0.0,0.0,0.0,0.0,0.0,0.0,0.0,0.0,0.0,0.0,0.0,0.0,0.0,0.0,0.0,0.0,0.0,0.0,0.0,0.0,0.0,0.0,0.0,0.0,1.8136,1.7773,1.79,1.9072,1.7737,1.7658,2.0055,1.9186,1.9005,2.0232,2.0606,2.1611,2.3502,2.3928,2.4988,2.6865,2.698,2.7025,2.7025,2.709,2.7064,2.7064,2.7064,2.7064,2.7109,2.7565,2.7761,2.778,2.8191,2.834,2.8359,2.8769,2.8918,2.8781,2.7552,2.7064,2.7064,2.7064,2.7363,2.7878,0.0,0.0,0.0,0.0,0.0,0.0,0.6248,0.6568,0.6785,0.703,0.6939,0.6659,0.6208,0.6277,0.6447,0.6703,0.6718,0.6764,0.6896,0.7076,0.7665,0.8801,0.8337,0.847,0.9344,0.8207,0.7753,0.8053,0.8623,0.9061,0.9388,1.0204,1.0605,1.0605,1.0605,1.0757,1.1058,1.1058,1.1262,1.1713,1.3413,1.4103,1.4103,0.0,0.0,0.0,0.0,0.0,0.0,0.0,0.0,0.0,0.0,0.0,0.0,0.0,0.0,0.0,0.0,0.0,0.0,0.0,0.0,0.0,0.0,0.0,0.0,0.0,0.0,0.0,0.0,0.0,0.0,0.0,1.8384,1.8213,1.8147,1.7438,1.705,1.7379,1.699,1.7057,1.7994,1.794,1.8073,1.861,1.9831,2.0825,2.1354,2.3426,2.4869,2.5393,2.7075,2.7949,2.7949,2.8555,2.8894,2.8894,2.8894,2.8894,2.8894,2.9012,2.907,2.907,2.9188,2.9246,2.9246,2.9364,2.9422,2.9355,2.9031,2.8894,2.8894,2.8894,2.8973,2.9109,0.0,0.0,0.0,0.0,0.0,0.0,0.6364,0.6319,0.6285,0.6654,0.6504,0.6204,0.584,0.5917,0.6072,0.6286,0.6354,0.643,0.658,0.677,0.7261,0.8119,0.7467,0.7423,0.8127,0.7467,0.7098,0.7098,0.7797,0.8149,0.8171,0.8812,0.9139,0.9139,0.9139,0.9423,0.9879,0.9879,1.0161,1.0724,1.2089,1.2933,1.34,1.3913,1.4103,1.4103,1.4103,1.4103,1.4208,1.481,0.0,0.0,0.0,0.0,0.0,0.0,0.0,0.0,0.0,0.0,0.0,0.0,0.0,0.0,0.0,0.0,0.0,0.0,0.0,0.0,0.0,0.0,0.0,0.0,1.7871,1.791,1.7739,1.7257,1.6913,1.6913,1.7114,1.7302,1.7515,1.7796,1.8036,1.8196,1.9348,2.031,2.0935,2.342,2.514,2.5757,2.7777,2.8855,2.8855,2.9344,2.9598,2.9598,2.9598,2.9598,2.9598,2.9774,2.9852,2.9872,3.0067,3.0146,3.0146,3.0146,3.0146,3.0106,0.0,0.0,0.0,0.0,2.9715,2.9852,0.0,0.0,0.0,0.0,0.0,0.0,0.6392,0.5897,0.5683,0.6449,0.6011,0.5664,0.5786,0.5937,0.6112,0.6286,0.6429,0.6566,0.6715,0.6965,0.7098,0.7098,0.7098,0.7098,0.7098,0.7098,0.7098,0.7098,0.7098,0.7098,0.7098,0.7098,0.7098,0.7098,0.7098,0.7687,0.8697,0.8697,0.927,1.0216,1.0356,1.108,1.2248,1.3442,1.3891,1.3913,1.4039,1.4103,1.4103,1.4103,0.0,0.0,0.0,0.0,0.0,0.0,0.0,0.0,0.0,0.0,0.0,0.0,0.0,0.0,0.0,0.0,0.0,0.0,0.0,0.0,0.0,0.0,0.0,0.0,1.7086,1.73,1.73,1.7326,1.734,1.7274,1.7756,1.8076,1.8076,1.8397,1.8584,1.8584,1.916,2.0049,2.1362,2.3468,0.0,0.0,0.0,2.9461,2.9676,2.9715,2.9755,2.9755,2.9755,2.9755,2.9755,3.0098,3.0273,3.0293,3.0703,3.0898,3.0898,3.0898,3.0898,3.082,3.0048,2.9755,2.9755,2.9755,2.9989,3.0273,0.0,0.0,0.0,0.0,0.0,0.0,0.5574,0.5508,0.5458,0.5624,0.571,0.5772,0.58,0.6069,0.6265,0.63,0.6429,0.6607,0.6843,0.7004,0.7098,0.7098,0.7098,0.7098,0.7098,0.7098,0.7098,0.7098,0.7098,0.7098,0.7098,0.7098,0.7098,0.7098,0.7098,0.7224,0.7445,0.7445,0.7577,0.7856,0.8842,0.9923,1.1037,1.2206,1.2653,1.2781,1.3752,1.4103,1.4103,1.4103,1.425,1.4419,1.4419,1.4552,0.0,0.0,0.0,0.0,0.0,0.0,0.0,0.0,0.0,0.0,0.0,0.0,0.0,0.0,0.0,0.0,0.0,0.0,0.0,1.7576,1.7675,1.7849,1.7849,1.8076,1.8143,1.7876,1.8196,1.841,1.841,1.892,1.9227,1.9227,1.9733,2.0174,2.0474,2.2052,2.3697,2.5289,2.7167,2.8782,3.0078,3.0449,3.0644,3.0644,3.0644,0.0,3.0644,3.0723,3.0762,3.0762,3.0859,3.0898,3.0898,3.0898,3.0898,3.0879,3.0703,3.0644,3.0644,3.0644,3.0684,3.0762,0.0,0.0,0.0,0.0,0.0,0.0,0.5209,0.5328,0.5392,0.5392,0.5634,0.58,0.58,0.6096,0.6093,0.5548,0.5685,0.59,0.6144,0.6744,0.7098,0.7098,0.7098,0.7098,0.7098,0.7098,0.7098,0.7098,0.7098,0.7098,0.7098,0.7098,0.7098,0.7098,0.7098,0.7098,0.7098,0.7098,0.7098,0.7165,0.7753,0.8339,0.9096,1.1423,1.2301,1.2462,1.3667,1.4103,1.4103,1.4103,1.4103,1.4108,1.4255,1.4309,1.447,0.0,0.0,0.0,0.0,0.0,0.0,0.0,0.0,0.0,0.0,0.0,0.0,0.0,0.0,1.8498,1.756,0.0,1.8347,1.7862,1.8036,1.8236,1.8236,1.8517,1.8597,1.8276,1.8664,1.896,1.896,1.9466,1.98,1.98,2.0201,2.0454,2.0454,2.2094,2.3414,2.4229,2.598,2.7677,2.9281,2.9536,3.005,3.0898,3.0898,3.0898,3.0898,3.0898,3.0898,3.0898,3.0898,3.0898,3.0898,3.0898,3.0898,3.0898,3.0898,3.0898,3.0898,3.0898,3.0898,3.0898,0.0,0.0,0.0,0.0,0.0,0.0,0.0,0.528,0.5392,0.5392,0.5634,0.58,0.58,0.6096,0.5878,0.4839,0.476,0.4952,0.5371,0.6251,0.6871,0.7098,0.7098,0.7098,0.7098,0.7098,0.7098,0.7098,0.7098,0.7098,0.7098,0.7098,0.7098,0.7098,0.7098,0.7098,0.7098,0.7098,0.7098,0.7098,0.7098,0.7098,0.7423,1.0476,1.1788,1.213,1.3315,1.3913,1.4116,1.4148,1.4175,1.4215,1.4509,1.4603,1.4669,1.4986,1.5066,0.0,0.0,0.0,0.0,0.0,0.0,0.0,0.0,1.6794,1.6899,1.7193,1.7286,1.7354,1.7622,1.7849,1.8009,1.8103,1.8384,1.8597,1.8679,1.8918,1.8996,1.8851,1.9199,1.9495,1.9562,2.0013,2.029,2.029,2.0588,2.0793,2.0793,2.2262,2.3263,2.3605,2.487,2.6318,2.7931,2.7931,2.8753,3.0421,3.0421,3.0587,3.0898,3.0898,3.0898,3.0898,3.0898,3.0898,3.0898,3.0898,3.0898,3.0898,3.0898,3.0898,3.0898,3.0898,3.0898,3.0898,0.0,0.0,0.0,0.0,0.0,0.0,0.0,0.0,0.5392,0.5392,0.5634,0.58,0.58,0.6096,0.5916,0.4971,0.4089,0.4108,0.5321,0.5514,0.6046,0.7054,0.7098,0.7098,0.7098,0.7098,0.7098,0.7098,0.7098,0.7098,0.7098,0.7098,0.7098,0.7098,0.7098,0.7098,0.7098,0.7098,0.7098,0.7098,0.7098,0.7098,0.7268,0.8733,0.9901,1.0929,1.2087,1.3188,1.4143,1.4367,1.4447,1.4501,1.4839,1.4932,1.4999,1.5257,1.5351,1.5404,1.5635,1.6034,1.6465,1.6765,1.686,1.6902,0.0,1.7152,1.7233,1.7501,1.7568,1.7622,1.7916,1.7982,1.8116,1.8397,1.8691,1.8971,1.9267,1.9519,1.9786,1.9983,1.9867,1.9853,2.0077,2.0428,2.0628,2.0628,2.0895,2.1069,2.1069,2.1272,2.2073,2.3543,2.3791,2.4625,2.6258,2.6288,2.7073,2.8664,2.8664,2.9471,3.0898,3.0898,3.0898,3.0898,3.0898,3.0898,3.0898,3.0898,3.0898,3.0898,3.0898,3.0898,3.0898,3.0898,3.0898,3.0898,0.0,0.0,0.0,0.0,0.0,0.0,0.0,0.0,0.0,0.5385,0.5566,0.5711,0.5793,0.5536,0.5236,0.4929,0.4594,0.4669,0.5349,0.6024,0.6605,0.7076,0.7098,0.7098,0.7098,0.7098,0.7098,0.7098,0.7098,0.7098,0.7098,0.7098,0.7098,0.7098,0.7098,0.7098,0.7098,0.7098,0.7098,0.7098,0.7098,0.7098,0.7165,0.7665,0.9121,1.1039,1.2176,1.3327,0.0,1.4683,1.4798,1.483,1.5146,1.524,1.5294,1.5541,1.5765,1.5965,1.6259,1.6433,1.6618,1.6913,1.6993,1.7073,1.7354,1.7421,1.7515,1.7796,1.7822,1.7929,1.8223,1.8409,1.8556,1.8718,1.8985,1.9279,1.9586,1.972,1.9973,2.0441,2.0388,2.0361,2.0481,2.0762,2.0922,2.0922,2.1042,2.1109,2.1109,2.1109,2.1411,2.2121,2.2153,2.2952,2.4594,2.4594,2.5422,2.7013,2.7013,2.7871,2.9442,2.9442,2.9991,3.0898,3.1152,3.125,3.1269,3.1523,3.167,3.167,3.167,3.167,3.1612,3.1074,3.0898,3.0898,0.0,0.0,0.0,0.0,0.0,0.0,0.0,0.0,0.0,0.0,0.5511,0.5657,0.584,0.5164,0.4733,0.4827,0.472,0.4695,0.4819,0.5963,0.6628,0.6628,0.6937,0.7098,0.7098,0.7098,0.7098,0.7098,0.7098,0.7098,0.7098,0.7098,0.7098,0.7098,0.7098,0.7098,0.7098,0.7098,0.7098,0.7098,0.7098,0.7098,0.7098,0.7098,0.8774,1.1206,1.2026,1.3331,1.4683,1.4999,1.5106,1.516,1.5431,1.5565,1.5685,1.5885,1.6166,1.6484,1.6754,1.6834,1.6926,1.722,1.7326,1.7354,1.7568,1.7649,1.7769,1.7969,1.8076,1.8237,1.8557,1.8784,1.8916,1.9025,1.9292,1.9586,1.988,1.9987,2.0227,2.0735,2.0802,2.0802,2.0802,2.0989,2.1109,2.1109,2.1109,2.1109,2.1109,2.1109,2.1109,2.1109,2.1109,2.1695,2.2904,2.2889,2.3714,2.5344,2.541,2.656,2.8619,2.9195,3.0106,3.1269,3.1562,3.1699,3.1719,3.2061,3.2198,3.2198,3.2198,3.2198,3.212,3.1494,3.125,3.125,0.0,0.0,0.0,0.0,0.0,0.0,0.0,0.0,0.0,0.0,0.0,0.0,0.0,0.5218,0.4697,0.4708,0.3932,0.343,0.3376,0.4682,0.5447,0.5447,0.6517,0.7098,0.7098,0.7098,0.7098,0.7098,0.7098,0.7098,0.7098,0.7098,0.7098,0.7098,0.7098,0.7098,0.7098,0.7098,0.7098,0.7098,0.7098,0.7098,0.7098,0.7098,0.8774,1.1095,1.1139,1.2796,1.5013,1.5307,1.5378,1.5431,1.5701,1.6019,1.627,1.6284,1.6484,1.6754,1.7086,1.7192,1.7259,1.7528,1.7595,1.7595,1.7608,1.7782,1.7982,1.7995,1.8249,1.8571,1.8823,1.889,1.9025,1.9334,1.9599,1.988,2.0144,2.0468,2.0793,2.1056,2.1096,2.1096,2.1096,2.1109,2.1109,2.1109,2.1109,2.1109,2.1109,2.1109,2.1109,2.1109,2.1109,2.1109,2.1172,2.1172,2.201,2.3667,2.3951,2.5813,2.9143,3.1169,3.2129,3.2159,3.2179,3.2179,3.2179,3.2198,3.2198,3.2198,3.2198,3.2198,3.2198,3.2179,3.2159,3.2159,0.0,0.0,0.0,0.0,0.0,0.0,0.0,0.0,0.0,0.0,0.0,0.0,0.0,0.0,0.0,0.0,0.5624,0.5529,0.5679,0.5378,0.561,0.6489,0.6163,0.6318,0.7076,0.7098,0.7098,0.7098,0.7098,0.7098,0.7098,0.7098,0.7098,0.7098,0.7098,0.7098,0.7098,0.7098,0.7098,0.7098,0.7098,0.7098,0.7105,0.7251,0.9001,1.1386,0.0,1.3113,1.532,1.5555,1.5661,1.5715,1.6032,1.6217,1.6377,1.679,1.6953,1.7086,1.7381,1.7461,1.7488,1.7582,1.7608,1.7662,1.7809,1.7942,1.8102,1.8516,1.8676,1.8865,1.9158,1.9225,1.9348,1.9613,1.9733,1.9973,2.0454,2.0646,2.0788,2.1069,2.1109,2.1109,2.1109,2.1109,2.1109,2.1109,2.1109,2.1109,2.1109,2.1109,2.1109,2.1109,2.1109,2.1203,2.1435,2.1435,2.1818,2.2545,2.3726,2.4879,2.6072,2.9062,3.0408,3.047,3.1981,3.2578,3.2598,3.2891,3.3008,3.3008,3.3008,3.3008,3.3008,3.3008,3.3008,3.293,0.0,0.0,0.0,0.0,0.0,0.0,0.0,0.0,0.0,0.0,0.0,0.0,0.0,0.0,0.0,0.0,0.0,0.639,0.6143,0.5874,0.5745,0.5731,0.5913,0.5958,0.5841,0.6672,0.6893,0.6495,0.6893,0.7098,0.7098,0.7098,0.7098,0.7098,0.7098,0.7098,0.7098,0.7098,0.7098,0.7098,0.7098,0.7154,0.7276,0.7846,0.9546,0.0,1.2213,1.3755,1.5578,1.5741,1.5808,1.5861,1.6179,1.6444,1.6737,1.7193,1.7327,1.7367,1.7555,1.7608,1.7608,1.7608,1.7662,1.7796,1.7969,1.8183,1.8436,1.8823,1.9011,1.9172,1.9495,1.9548,1.9613,1.9907,2.004,2.0241,2.0659,2.0762,2.0895,2.1082,2.1109,2.1109,2.1109,2.1109,2.1109,2.1109,2.1109,2.1109,2.1109,2.1109,2.1109,2.1109,2.1216,2.1395,2.1614,2.1689,2.189,2.2171,2.3843,2.4704,2.4889,2.7742,2.9383,3.0032,3.1458,3.2426,3.3047,3.3269,3.3386,3.3386,3.3386,3.3386,3.3386,3.3386,3.3386,3.334,0.0,0.0,0.0,0.0,0.0,0.0,0.0,0.0,0.0,0.0,0.0,0.0,0.0,0.0,0.0,0.0,0.0,0.0,0.4874,0.6047,0.5808,0.357,0.5731,0.5968,0.3749,0.5863,0.6495,0.5403,0.6495,0.7054,0.7098,0.7098,0.7098,0.7098,0.7098,0.7098,0.7098,0.7098,0.7098,0.7098,0.7098,0.7253,0.761,0.8834,1.0338,1.195,1.3239,1.4617,1.5808,1.5808,1.5761,1.5779,1.6023,1.6562,1.7156,1.741,1.7529,1.7608,1.7608,1.7608,1.7608,1.7635,1.7796,1.7995,1.8035,1.8489,1.8903,1.8916,1.9185,1.9495,1.9746,1.9813,1.992,2.0184,2.0494,2.0712,2.0726,2.0935,2.1109,2.1109,2.1109,2.1109,2.1109,2.1109,2.1109,2.1109,2.1109,2.1109,2.1109,2.1122,2.1136,2.1136,2.1448,2.1609,2.1622,2.1917,2.2164,2.2445,2.4175,2.5119,2.545,2.7238,2.8952,3.0545,3.0642,3.1675,3.326,3.326,3.3323,3.3386,3.3386,3.3386,3.3386,3.3386,3.3386,3.3386,0.0,0.0,0.0,0.0,0.0,0.0,0.0,0.0,0.0,0.0,0.0,0.0,0.0,0.0,0.0,0.0,0.0,0.0,0.6051,0.5546,0.548,0.5964,0.574,0.5403,0.4954,0.5536,0.5692,0.5403,0.5692,0.6273,0.7098,0.7098,0.7098,0.7098,0.7098,0.7098,0.7098,0.7098,0.7098,0.7098,0.7098,0.7665,0.8597,0.9212,1.0849,1.2917,1.3602,1.4696,1.5808,1.5808,1.5305,1.4557,1.3783,1.4547,1.5732,1.5909,1.6737,1.7608,1.7608,1.7608,1.7635,1.7849,1.7969,1.8129,1.8569,1.8783,1.8956,1.9212,1.9508,1.972,1.9786,1.9943,2.0184,2.0508,2.0628,2.0779,2.0962,2.1069,2.1109,2.1109,2.1109,2.1109,2.1109,2.1109,2.1109,2.1109,2.1109,2.1109,2.1109,2.1355,2.1475,2.1475,2.1756,2.1977,2.2191,2.2532,2.2706,2.2786,2.3249,2.3494,2.3631,2.5383,2.6439,2.6923,2.8295,2.9865,3.1465,3.1465,3.2237,3.3386,3.3386,3.3386,3.3386,3.3386,3.3386,3.3386,0.0,0.0,0.0,0.0,0.0,0.0,0.0,0.0,0.0,0.0,0.0,0.0,0.0,0.0,0.0,0.0,0.0,0.0,0.0,0.5782,0.5627,0.5925,0.5911,0.5437,0.4493,0.5576,0.5891,0.5403,0.5891,0.6473,0.7098,0.7098,0.7098,0.7098,0.7098,0.7098,0.7098,0.7098,0.7401,0.0,0.0,0.8629,0.9828,1.0648,1.1927,1.3389,1.4248,1.5085,1.57,1.514,1.4303,1.3488,1.3543,1.431,1.5341,1.6147,1.6962,1.7608,1.7608,1.7608,1.7662,1.7942,1.8116,1.8329,1.8796,1.9025,1.9158,1.9361,1.9599,1.984,1.993,2.0227,2.0521,2.0815,2.0869,2.0922,2.1082,2.1109,2.1109,2.1109,2.1109,2.1109,2.1109,2.1109,2.1109,2.1109,2.1109,2.1162,2.1296,2.1489,2.1649,2.177,2.2031,2.2311,2.2605,2.2813,2.2893,2.2893,2.2893,2.2893,2.2928,2.3924,2.4791,2.5551,2.6573,2.8032,2.9735,3.0481,3.1368,3.2333,3.3082,3.3386,3.3386,3.3386,3.3386,3.3386,0.0,0.0,0.0,0.0,0.0,0.0,0.0,0.0,0.0,0.0,0.0,0.0,0.0,0.0,0.0,0.0,0.0,0.0,0.0,0.0,0.6011,0.4975,0.616,0.5806,0.3592,0.5703,0.6366,0.5403,0.6384,0.6959,0.7098,0.7098,0.7098,0.7098,0.7098,0.7098,0.7098,0.7098,0.7709,0.8675,0.8842,0.964,1.0931,0.0,1.3104,1.3704,1.4936,1.5461,1.5391,1.4268,1.3198,1.2573,1.4049,1.4684,1.5189,1.6845,1.745,1.7608,1.7608,1.7608,1.7689,1.7996,1.8276,1.8584,1.8905,1.9185,1.9401,1.9441,1.9653,1.9947,2.021,2.0535,2.0815,2.1069,2.1109,2.1109,2.1109,2.1109,2.1109,2.1109,2.1109,2.1109,2.1109,2.1109,2.1109,2.1109,2.1149,2.1283,2.1569,2.1622,2.1796,2.2131,2.2352,2.2605,2.2893,2.2893,2.2893,2.2893,2.2893,2.2893,2.2893,2.2893,2.372,2.5147,2.5147,2.6172,2.7966,2.9735,3.0448,3.0642,3.2365,3.2924,3.2734,3.2956,3.3051,3.3082,0.0,0.0,0.0,0.0,0.0,0.0,0.0,0.0,0.0,0.0,0.4963,0.0,0.0,0.0,0.0,0.0,0.0,0.0,0.0,0.0,0.0,0.6184,0.6438,0.6021,0.4815,0.5227,0.5436,0.5403,0.5603,0.6185,0.7098,0.7098,0.7098,0.7098,0.7098,0.7098,0.7098,0.7098,0.7224,0.7489,0.85,0.9602,1.0795,1.2255,0.0,0.0,1.5149,1.491,1.4196,1.3968,1.3063,1.2096,1.277,1.309,1.3551,1.5282,1.6631,1.7608,1.7608,1.7608,1.7742,1.8277,1.845,1.8624,1.9201,1.9361,1.9468,1.9679,1.996,2.0224,2.0548,2.0842,2.1056,2.1096,2.1109,2.1109,2.1109,2.1109,2.1109,2.1109,2.1109,2.1109,2.1109,2.1109,2.1109,2.1109,2.1368,2.1529,2.1614,2.181,2.2184,2.2733,2.28,2.284,2.2893,2.2893,2.2893,2.2893,2.2893,2.2893,2.2893,2.2893,2.3065,2.3359,2.3359,2.4365,2.6105,2.79,2.8657,2.8821,3.0578,3.0351,2.9279,3.0725,3.124,3.1465,0.0,0.0,0.0,0.0,0.0,0.0,0.0,0.0,0.0,0.0,0.4762,0.4943,0.0,0.0,0.0,0.0,0.0,0.0,0.0,0.0,0.0,0.0,0.645,0.6296,0.5847,0.5963,0.6085,0.6172,0.0,0.6561,0.7098,0.7098,0.7098,0.7098,0.7098,0.7098,0.7098,0.7098,0.7467,0.8149,0.9314,1.0464,1.1628,0.0,0.0,0.0,1.519,1.5076,1.4713,1.4828,1.4028,1.3021,1.3568,1.3798,1.4205,1.6008,1.7041,1.7608,1.7608,1.7608,1.7729,1.8343,1.849,1.8679,1.9267,1.9401,1.9481,1.9733,1.9997,2.029,2.0646,2.0909,2.1109,2.1109,2.1109,2.1109,2.1109,2.1109,2.1109,2.1109,2.1109,2.1109,2.1109,2.1109,2.1109,2.1109,2.1422,2.1649,2.1796,2.2238,2.2599,2.2893,2.2893,2.2893,2.2893,2.2893,2.2893,2.2893,2.2893,2.2893,2.2893,2.2893,2.2893,2.2893,2.2893,2.3359,2.4283,2.6054,2.6806,2.6972,2.8755,2.8952,2.8394,3.0157,3.0803,3.1029,0.0,0.0,0.0,0.0,0.0,0.0,0.0,0.4505,0.456,0.4691,0.4706,0.4848,0.5256,0.5313,0.5358,0.0,0.0,0.0,0.0,0.0,0.0,0.0,0.0,0.0,0.6491,0.0,0.0,0.6904,0.6997,0.0,0.0,0.0,0.0,0.0,0.7379,0.7334,0.7143,0.7643,0.8251,0.0,0.0,1.1488,1.244,0.0,0.0,0.0,0.0,1.5284,1.5431,1.5635,1.5089,1.4401,1.4947,1.4979,1.5149,1.699,1.7555,1.7608,1.7608,1.7635,1.7809,1.8357,1.8544,1.8718,1.9281,1.9401,1.9495,1.9826,2.0037,2.0317,2.0708,2.0949,2.1109,2.1109,2.1109,2.1109,2.1109,2.1109,2.1109,2.1109,2.1109,2.1109,2.1109,2.1109,2.1109,2.1109,2.1475,2.181,2.2058,2.2612,2.2893,2.2893,2.2893,2.2893,2.2893,2.2893,2.2893,2.2893,2.2893,2.2893,2.2893,2.2893,2.2893,2.2893,2.2893,2.2893,2.303,2.4791,2.5282,2.5113,2.6906,2.737,2.7304,2.9474,3.0254,3.0545,0.0,0.0,0.0,0.0,0.0,0.0,0.0,0.4505,0.4718,0.5328,0.5004,0.5012,0.5827,0.5451,0.5209,0.0,0.0,0.0,0.0,0.0,0.0,0.0,0.0,0.0,0.0,0.0,0.0,0.6904,0.6918,0.0,0.0,0.0,0.0,0.0,0.0,0.8127,0.7246,0.9379,0.0,0.0,0.0,0.0,0.0,0.0,0.0,0.0,0.0,1.4914,1.5404,1.5431,1.5511,1.5695,1.606,1.5556,1.5113,1.6754,1.7408,1.7608,1.7608,1.7796,1.8049,1.841,1.8691,1.8971,1.9321,1.9401,1.9562,2.005,2.0184,2.037,2.0962,2.1096,2.1109,2.1109,2.1109,2.1109,2.1109,2.1109,2.1109,2.1109,2.1109,2.1109,2.1109,2.1109,2.1109,2.1109,2.163,2.2071,2.2365,2.2686,2.2893,2.2893,2.2893,2.2893,2.2893,2.2893,2.2893,2.2893,2.2893,2.2893,2.2893,2.2893,2.2893,2.2893,2.2893,2.2893,2.303,2.4791,2.4554,2.329,2.5046,2.4791,2.3788,2.7172,2.8427,2.8919,0.0,0.0,0.0,0.0,0.0,0.0,0.0,0.4505,0.4746,0.541,0.5323,0.5535,0.6441,0.5999,0.5582,0.0,0.0,0.0,0.0,0.0,0.0,0.0,0.0,0.0,0.0,0.0,0.717,0.6654,0.6816,0.0,0.0,0.0,0.0,0.0,0.0,0.9662,0.927,1.0195,0.0,0.0,0.0,0.0,0.0,0.0,0.0,0.0,0.0,0.0,1.4901,1.5271,1.5471,1.5618,1.5912,1.597,1.6112,1.6959,1.7381,1.7608,1.7608,1.7809,1.8089,1.8424,1.8704,1.8998,1.9334,1.9401,1.9562,2.0077,2.0197,2.0384,2.1002,2.1109,2.1109,2.1109,2.1109,2.1109,2.1109,2.1109,2.1109,2.1109,2.1109,2.1109,2.1109,2.1109,2.1256,2.1603,2.2017,2.2378,2.2672,2.284,2.2893,2.2893,2.2893,2.2893,2.2893,2.2893,2.2893,2.2893,2.2893,2.2893,2.2893,2.2893,2.2893,2.2893,2.2893,2.2893,2.2962,2.3665,2.3529,2.2962,2.3665,2.3495,2.3215,2.5877,2.6884,2.7253,0.0,0.0,0.0,0.0,0.0,0.0,0.5089,0.5117,0.5377,0.6064,0.5959,0.6179,0.7091,0.648,0.6009,0.6027,0.0,0.0,0.0,0.0,0.0,0.0,0.0,0.0,0.0,0.0,0.8049,0.7394,0.7581,0.817,0.0,0.0,0.9758,1.0616,0.0,0.0,0.0,0.0,0.0,0.0,0.0,0.0,0.0,0.0,0.0,0.0,0.0,0.0,0.0,0.0,0.0,1.5444,1.5715,1.6208,1.674,1.6979,1.7314,1.7608,1.7608,1.7876,1.8196,1.8437,1.8771,1.9105,1.9348,1.9401,1.9562,2.0077,2.0197,2.0384,2.1002,2.1109,2.1109,2.1109,2.1109,2.1109,2.1109,2.1109,2.1109,2.1109,2.1109,2.1109,2.1109,2.1189,2.1443,2.1951,2.2258,2.2552,2.288,2.2893,2.2893,2.2893,2.2893,2.2893,2.2893,2.2893,2.2893,2.2893,2.2893,2.2893,2.2893,2.2893,2.2893,2.2893,2.2893,2.2893,2.2893,2.2893,2.2893,2.2893,2.2893,2.296,2.3261,2.5251,2.6036,2.6382,0.0,0.0,0.0,0.0,0.0,0.0,0.0,0.6575,0.6845,0.7584,0.7047,0.6928,0.7793,0.6759,0.6402,0.7396,0.0,0.0,0.0,0.0,0.0,0.0,0.0,0.0,0.0,0.0,0.9345,0.9478,0.9478,0.9727,1.0177,1.0177,1.034,1.0659,0.0,0.0,0.0,0.0,0.0,0.0,0.0,0.0,0.0,0.0,0.0,0.0,0.0,0.0,0.0,0.0,0.0,0.0,0.0,1.6208,1.67,1.6714,1.7128,1.7608,1.7608,1.805,1.849,1.849,1.896,1.9388,1.9401,1.9401,1.9562,2.0077,2.0197,2.0384,2.1002,2.1109,2.1109,2.1109,2.1109,2.1109,2.1109,2.1109,2.1109,2.1109,2.1109,2.1109,2.1109,2.1408,2.1703,2.1964,2.2258,2.2552,2.288,2.2893,2.2893,2.2893,2.2893,2.2893,2.2893,2.2893,2.2893,2.2893,2.2893,2.2893,2.2893,2.2893,2.2893,2.2893,2.2893,2.2893,2.2893,2.2893,2.2893,2.2893,2.2893,2.3046,2.3523,2.5338,2.6185,2.6663,0.0,0.0,0.0,0.0,0.0,0.0,0.0,0.6602,0.6858,0.7597,0.749,0.7645,0.8429,0.7995,0.7766,0.808,0.0,0.0,0.0,0.0,0.0,0.0,0.0,0.0,0.0,0.0,1.0003,0.9354,0.9466,0.9981,1.0894,1.1022,1.1644,1.2671,1.3037,1.3117,0.0,0.0,0.0,0.0,0.0,0.0,1.4103,0.0,0.0,0.0,0.0,0.0,0.0,0.0,0.0,0.0,0.0,0.0,0.0,1.67,1.7128,1.7608,1.7608,1.805,1.849,1.849,1.896,1.9401,1.9401,1.9401,1.9562,2.0077,2.0197,2.0384,2.1002,2.1109,2.1109,2.1109,2.1109,2.1109,2.1109,2.1109,2.1109,2.1109,2.1109,2.1109,2.1109,2.1563,2.1917,2.1977,2.2479,2.28,2.2893,2.2893,2.2893,2.2893,2.2893,2.2893,2.2893,2.2893,2.2893,2.2893,2.2893,2.2893,2.2893,2.2893,2.2893,2.2893,2.2893,2.2893,2.2893,2.2893,2.2893,2.2893,2.2893,2.3046,2.3388,2.4196,2.467,2.4997,0.0,0.0,0.0,0.0,0.0,0.0,0.0,0.7195,0.7276,0.8023,0.7876,0.7983,0.8725,0.8556,0.8539,0.8861,0.0,0.0,0.0,0.0,0.0,0.0,0.0,0.0,0.0,1.1057,1.096,1.0421,1.0511,1.0981,1.1812,1.1927,1.257,1.36,1.36,1.3794,0.0,0.0,0.0,0.0,0.0,0.0,1.4103,0.0,0.0,0.0,0.0,0.0,0.0,0.0,0.0,0.0,0.0,0.0,0.0,0.0,1.7128,1.7608,1.7608,1.805,1.849,1.849,1.896,1.9401,1.9401,1.9401,1.9562,2.0077,2.0197,2.0384,2.1002,2.1109,2.1109,2.1109,2.1109,2.1109,2.1109,2.1109,2.1109,2.1109,2.1109,2.1109,2.1109,2.1643,2.1991,2.1991,2.2559,2.2893,2.2893,2.2893,2.2893,2.2893,2.2893,2.2893,2.2893,2.2893,2.2893,2.2893,2.2893,2.2893,2.2893,2.2893,2.2893,2.2893,2.2893,2.2893,0.0,2.2893,2.2893,2.2893,2.2893,2.3161,2.3514,2.3701,2.4022,2.4359,0.0,0.0,0.0,0.0,0.0,0.0,0.0,0.0,0.0,0.0,0.8209,0.8036,0.8725,0.8613,0.8818,0.0,0.0,0.0,0.0,0.0,0.0,0.0,0.0,0.0,0.0,1.1734,1.2029,1.2305,1.2305,1.2457,1.2757,1.2757,1.3046,1.3533,1.356,1.3767,1.4103,0.0,0.0,0.0,0.0,0.0,0.0,0.0,0.0,0.0,0.0,0.0,0.0,0.0,0.0,0.0,0.0,0.0,0.0,0.0,0.0,0.0,0.0,1.805,1.849,1.849,1.896,1.9401,1.9401,1.9401,0.0,2.0077,2.0197,2.0384,2.1002,2.1109,2.1109,2.1109,2.1109,2.1109,2.1109,2.1109,2.1109,2.1109,2.1109,2.1109,2.1109,2.1643,2.1991,2.1991,2.2559,2.2893,2.2893,2.2893,2.2893,2.2893,2.2893,2.2893,2.2893,2.2893,2.2893,2.2893,2.2893,2.2893,2.2893,2.2893,2.2893,2.2893,2.2893,2.2893,2.2893,2.2893,2.2893,2.2893,2.2893,2.3255,2.3777,2.3803,2.4128,2.4572,0.0,0.0,0.0,0.0,0.0,0.0,0.0,0.0,0.0,0.0,0.8646,0.8606,0.8778,0.9157,0.947,0.0,0.0,0.0,0.0,0.0,0.0,0.0,0.0,0.0,0.0,1.1734,1.2029,1.2305,1.2305,1.2345,1.243,1.243,1.2617,1.3012,1.32,1.358,1.4103,1.4103,0.0,0.0,0.0,0.0,0.0,0.0,0.0,0.0,1.4103,1.4103,0.0,0.0,0.0,0.0,0.0,0.0,0.0,0.0,1.7128,1.7608,1.7608,0.0,1.849,1.849,1.896,1.9401,0.0,1.9401,1.9562,2.0077,2.0197,2.0384,2.1002,2.1109,2.1109,2.1109,2.1109,2.1109,2.1109,2.1109,2.1109,2.1109,2.1109,2.1109,2.1109,2.1643,2.1991,2.1991,2.2559,2.2893,2.2893,2.2893,2.2893,2.2893,2.2893,2.2893,2.2893,2.2893,2.2893,2.2893,2.2893,2.2893,2.2893,2.2893,2.2893,2.2893,2.2893,2.2893,2.2893,2.2893,2.2893,2.2893,2.2893,2.31,2.346,2.3723,2.3995,2.4342,0.0,0.0,0.0,0.0,0.0,0.0,0.0,0.0,0.0,0.0,0.0,0.0,0.0,0.0,0.0,0.0,0.0,0.0,0.0,0.0,0.0,0.0,0.0,1.0995,1.1392,1.1583,1.1877,1.2305,1.2305,1.2305,1.2305,1.2305,1.2484,1.2816,1.3213,1.3567,1.3874,1.4028,1.4103,0.0,1.4103,0.0,0.0,0.0,0.0,0.0,1.4103,1.4103,0.0,1.4407,1.471,1.5062,0.0,0.0,0.0,0.0,1.7128,1.7608,1.7608,1.805,1.849,1.849,1.896,1.9401,1.9401,1.9401,1.9562,2.0077,2.0197,2.0384,2.1002,2.1109,2.1109,2.1109,2.1109,2.1109,2.1109,2.1109,2.1109,2.1109,2.1109,2.1109,2.1109,2.1523,2.1877,2.1977,2.2405,2.2746,2.2893,2.2893,2.2893,2.2893,2.2893,2.2893,2.2893,2.2893,2.2893,2.2893,2.2893,2.2893,2.2893,2.2893,2.2893,2.2893,2.2893,2.2893,2.2893,2.2893,2.2893,2.2893,2.2893,2.3046,2.3332,2.3696,2.3955,2.4249,0.0,0.0,0.0,0.0,0.0,0.0,0.0,0.0,0.0,0.0,0.0,0.0,0.0,0.0,0.0,0.0,0.0,0.0,0.0,0.0,0.0,0.0,0.0,1.0851,1.1392,1.1406,1.1699,1.2305,1.2305,1.2305,1.2305,1.2305,1.251,1.2878,1.3347,1.3586,1.3693,1.3975,1.4103,1.4103,1.4103,0.0,0.0,0.0,0.0,0.0,0.0,0.0,0.0,1.4407,1.471,1.5062,1.5334,0.0,0.0,0.0,0.0,0.0,1.7608,1.805,1.849,1.849,1.896,1.9401,1.9401,1.9428,1.9615,2.009,2.0237,2.0437,2.1015,2.1109,2.1109,2.1109,2.1109,2.1109,2.1109,2.1109,2.1109,2.1109,2.1109,2.1109,2.1109,2.1408,2.1703,2.1964,2.2258,2.2552,2.288,2.2893,2.2893,2.2893,2.2893,2.2893,2.2893,2.2893,2.2893,2.2893,2.2893,2.2893,2.2893,2.2893,2.2893,2.2893,2.2893,2.2893,2.2893,2.2893,2.2893,2.2893,2.2893,2.302,2.3287,2.3594,2.3888,2.4182,0.0,0.0,0.0,0.0,0.0,0.0,0.0,0.0,0.0,0.0,0.0,0.0,0.0,0.0,0.0,0.0,0.0,0.0,0.0,0.0,0.0,1.0602,1.0602,1.0851,1.1392,1.1406,1.1699,1.2305,1.2305,1.2305,1.2305,1.2305,1.2599,1.3146,1.322,1.3547,1.4015,1.4089,1.4103,1.4103,1.4103,0.0,0.0,0.0,0.0,0.0,0.0,0.0,0.0,1.4407,1.471,1.5062,1.5334,0.0,0.0,0.0,0.0,0.0,1.7608,1.805,1.849,1.849,1.896,1.9401,1.9401,1.9589,1.9826,2.013,2.0428,2.0708,2.1042,2.1109,2.1109,2.1109,2.1109,2.1109,2.1109,2.1109,2.1109,2.1109,2.1109,2.1109,2.1109,2.1408,2.1703,2.1964,2.2258,2.2552,2.288,2.2893,2.2893,2.2893,2.2893,2.2893,2.2893,2.2893,2.2893,2.2893,2.2893,2.2893,2.2893,2.2893,2.2893,2.2893,2.2893,2.2893,2.2893,2.2893,2.2893,2.2893,2.2893,2.292,2.3,2.3287,2.3581,2.3915,0.0,0.0,0.0,0.0,0.0,0.0,0.0,0.0,0.0,0.0,0.0,0.0,0.0,0.0,0.0,0.0,0.0,0.0,0.0,0.0,0.0,1.0602,1.0747,1.0995,1.1392,1.1406,1.1699,1.2305,1.2305,1.2305,1.2305,1.2305,1.2532,1.2992,1.3133,1.342,1.3834,1.4015,1.4103,1.4103,0.0,0.0,0.0,0.0,0.0,0.0,0.0,0.0,0.0,0.0,1.4865,1.5066,1.5484,0.0,0.0,0.0,0.0,0.0,1.7782,1.8156,1.8531,1.8691,1.9052,1.9401,1.9401,1.9615,1.988,2.0144,2.0468,2.0762,2.1056,2.1109,2.1109,2.1109,2.1109,2.1109,2.1109,2.1109,2.1109,2.1109,2.1109,2.1109,2.1109,2.1229,2.1529,2.1984,2.2111,2.2378,2.2867,2.2893,2.2893,2.2893,2.2893,2.2893,2.2893,2.2893,2.2893,2.2893,2.2893,2.2893,2.2893,2.2893,2.2893,2.2893,2.2893,2.2893,2.2893,2.2893,2.2893,2.2893,2.2893,2.2893,2.2934,2.3207,2.3607,2.4035,0.0,0.0,0.0,0.0,0.0,0.0,0.0,0.0,0.0,0.0,0.0,0.0,0.0,0.0,0.0,0.0,0.0,0.0,0.0,0.0,1.0602,1.0602,1.1078,1.1362,1.1406,1.1472,1.1766,1.2305,1.2305,1.2305,1.2305,1.2371,1.2591,1.2904,1.3173,1.346,1.372,1.3988,1.4103,1.4103,0.0,0.0,0.0,0.0,0.0,0.0,0.0,0.0,0.0,0.0,0.0,0.0,0.0,0.0,0.0,1.6794,1.7181,1.7649,1.7929,1.8236,1.8557,1.8823,1.9145,1.9301,1.891,1.9404,1.984,1.9689,1.9954,2.036,2.1006,2.1109,2.0982,2.0557,2.0811,2.0951,2.0557,2.0843,2.1109,2.1109,2.1109,2.1109,2.1109,2.1109,2.1349,2.1937,2.1991,2.2278,2.2867,2.2893,2.2893,2.2893,2.2893,2.2893,2.2893,2.2893,2.2893,2.2893,2.2893,2.2893,2.2893,2.2893,2.2893,2.2893,2.2893,2.2893,2.2893,2.2893,2.2893,2.2893,2.2893,2.2893,2.2934,2.3207,2.3661,2.4115,0.0,0.0,0.0,0.0,0.0,0.0,0.0,0.0,0.0,0.0,0.0,0.0,0.0,0.0,0.0,0.0,0.0,0.0,0.0,0.0,1.0602,1.0602,1.1693,1.2027,1.1423,1.169,1.2015,1.2305,1.2305,1.2305,1.2305,1.2623,1.2898,1.3186,1.344,1.3754,1.4076,1.4082,1.4103,1.4103,1.4103,0.0,0.0,0.0,0.0,0.0,0.0,0.0,0.0,0.0,0.0,0.0,0.0,0.0,1.6767,1.706,1.7367,1.7649,1.7929,1.8236,1.8557,1.8823,1.9145,1.901,1.7501,1.872,1.9776,1.8349,1.8387,1.9171,2.0811,2.1109,2.0557,1.896,2.0036,2.0557,1.8896,2.0068,2.1109,2.1109,2.1109,2.1109,2.1109,2.1109,2.1349,2.1937,2.1991,2.2278,2.2867,2.2893,2.2893,2.2893,2.2893,2.2893,2.2893,2.2893,2.2893,2.2893,2.2893,2.2893,2.2893,2.2893,2.2893,2.2893,2.2893,2.2893,2.2893,2.2893,2.2893,2.2893,2.2893,2.2893,2.2934,2.3207,2.3527,2.387,0.0,0.0,0.0,0.0,0.0,0.0,0.0,0.0,0.0,0.0,0.0,0.0,0.0,0.0,0.0,0.0,0.0,0.0,0.0,1.0602,1.0667,1.0838,1.1451,1.1754,1.1708,1.2396,1.2624,1.2305,1.2305,1.2417,1.2623,1.273,1.3032,1.344,1.3547,1.3794,1.4103,1.4103,1.4103,1.4103,1.4103,1.4103,0.0,0.0,0.0,0.0,0.0,0.0,0.0,0.0,1.5106,1.5374,1.6083,1.6473,1.6767,1.7112,1.7515,1.7916,1.8237,1.7794,1.7569,1.8889,1.867,1.7993,1.7268,1.8709,1.9781,1.8321,1.8297,1.8372,1.7956,1.7859,1.7667,1.698,1.834,1.9259,1.8608,2.0005,2.1109,2.1109,2.1109,2.1109,2.1109,2.1109,2.1283,2.1716,2.1917,2.2164,2.2565,2.28,2.2893,2.2893,2.2893,2.2893,2.2893,2.2893,2.2893,2.2893,2.2893,2.2893,2.2893,2.2893,2.2893,2.2893,2.2893,2.2893,2.2893,2.2893,2.2893,2.2893,2.2893,2.2893,2.2907,2.2993,2.3388,2.3817,0.0,0.0,0.0,0.0,0.0,0.0,0.0,0.0,0.0,0.0,0.0,0.0,0.0,0.0,0.0,0.0,0.0,0.0,1.0951,1.1095,1.1233,1.1362,1.207,1.2262,1.1917,1.2905,1.3064,1.2305,1.2417,1.2583,1.2803,1.2985,1.3253,1.36,1.3706,1.3895,1.4103,1.4103,1.4103,1.4103,1.4103,1.4103,0.0,0.0,0.0,0.0,0.0,0.0,0.0,0.0,1.5253,1.5511,1.6217,1.654,1.678,1.7193,1.7291,1.7329,1.7665,1.7134,1.6731,1.7657,1.7587,1.6998,1.6009,1.7739,1.8945,1.6948,1.7137,1.7313,1.6108,1.5913,1.5913,1.5913,1.7377,1.8308,1.7763,1.9196,2.0494,2.1046,2.0621,2.0494,2.1046,2.1109,2.1229,2.1569,2.185,2.2111,2.2405,2.2733,2.2893,2.2893,2.2893,2.2893,2.2893,2.2893,2.2893,2.2893,2.2893,2.2893,2.2893,2.2893,2.2893,2.2893,2.2893,2.2893,2.2893,2.2893,2.2893,2.2893,2.2893,2.2893,2.2893,2.2893,2.3228,2.3647,0.0,0.0,0.0,0.0,0.0,0.0,0.0,0.0,0.0,0.0,0.0,0.0,0.0,0.0,0.0,0.0,0.0,0.0,1.1748,1.2173,1.2337,1.2193,1.3796,1.38,1.1948,1.3086,1.3244,1.2305,1.2636,1.2803,1.283,1.334,1.36,1.3626,1.3948,1.4103,1.4103,1.4103,1.4103,1.4103,1.4103,1.4103,1.4103,0.0,0.0,0.0,0.0,0.0,0.0,0.0,1.5404,1.5551,1.6433,1.6714,1.682,1.7408,1.67,1.5799,1.6044,1.6301,1.6183,1.4933,1.5784,1.6213,1.3359,1.5491,1.7139,1.3806,1.4571,1.5881,1.5848,1.5848,1.5848,1.5848,1.7313,1.7859,1.6108,1.7377,1.912,2.0874,1.9546,1.9196,2.0919,2.1109,2.1229,2.1555,2.185,2.2111,2.2371,2.2699,2.2893,2.2893,2.2893,2.2893,2.2893,2.2893,2.2893,2.2893,2.2893,2.2893,2.2893,2.2893,2.2893,2.2893,2.2893,2.2893,2.2893,2.2893,2.2893,2.2893,2.2893,2.2893,2.2893,2.2893,2.306,2.3332,0.0,0.0,0.0,0.0,0.0,0.0,0.0,0.0,0.0,0.0,0.0,0.0,0.0,0.0,0.0,0.0,0.0,0.0,1.1256,1.1874,1.2171,1.1999,1.2476,1.255,1.2189,1.2763,1.2933,1.265,1.2763,1.2979,1.3367,1.352,1.374,1.3961,1.4063,1.4103,1.4103,1.4103,1.4103,1.4103,1.4103,1.4103,1.4103,0.0,0.0,0.0,0.0,0.0,0.0,0.0,0.0,0.0,1.6567,1.6847,1.7113,1.7501,1.762,1.7695,1.7772,1.6498,1.5344,1.6098,1.5193,1.3871,1.2929,1.4495,1.5564,1.3634,1.3674,1.3709,1.2479,1.2248,1.2248,1.2248,1.3709,1.4647,1.4134,1.5557,1.7313,1.9056,1.88,1.9196,2.0919,2.1109,2.1149,2.1229,2.1542,2.1836,2.2098,2.2392,2.2645,2.2893,2.2893,2.2893,2.2893,2.2893,2.2893,2.2893,2.2893,2.2893,2.2893,2.2893,2.2893,2.2893,2.2893,2.2893,2.2893,2.2893,2.2893,2.2893,2.2893,2.2893,2.2893,2.2893,2.306,2.3332,0.0,0.0,0.0,0.0,0.0,0.0,0.0,0.0,0.0,0.0,0.0,0.0,0.0,0.0,0.0,0.0,0.0,0.0,0.0,1.2636,1.3129,1.2933,1.3114,1.2992,1.2502,1.269,1.2904,1.3126,1.3126,1.3293,1.36,1.374,1.3921,1.4103,1.4103,1.4103,1.4103,1.4103,1.4103,1.4103,1.4103,1.4103,1.4116,0.0,0.0,0.0,0.0,0.0,0.0,0.0,0.0,0.0,1.662,1.6939,1.7156,1.6819,1.6644,1.6462,1.589,1.469,1.3735,1.4054,1.3405,1.2551,1.1964,1.2681,1.3238,1.2431,1.2281,1.2157,1.1795,1.1174,1.0916,1.163,1.261,1.3292,1.3292,1.4199,1.5784,1.8212,1.7891,1.8404,2.0843,2.1109,2.1109,2.1109,2.1422,2.1662,2.1836,2.2205,2.2498,2.2686,2.284,2.2893,2.2893,2.2893,2.2893,2.2893,2.2893,2.2893,2.2893,2.2893,2.2893,2.2893,2.2893,2.2893,2.2893,2.2893,2.2893,2.2893,2.2893,2.2893,2.2893,2.2893,2.3014,2.3207,0.0,0.0,0.0,0.0,0.0,0.0,0.0,0.0,0.0,0.0,0.0,0.0,0.0,0.0,0.0,0.0,0.0,0.0,0.0,0.0,1.4507,1.4419,1.4794,1.4301,1.2841,1.2857,1.3113,1.36,1.36,1.3613,1.3653,1.3961,1.4103,1.4103,1.4103,1.4103,1.4103,1.4103,1.4103,1.4103,1.4103,1.4095,1.4162,1.4416,0.0,0.0,0.0,0.0,0.0,0.0,0.0,0.0,1.666,1.6979,1.7028,1.5946,1.4828,1.3638,1.2298,1.2085,1.1856,1.0391,1.1126,1.1908,1.0794,1.0622,1.0684,1.0684,1.0684,1.1174,1.2767,1.1762,1.1207,1.28,1.3062,1.3062,1.3062,1.3062,1.4297,1.7634,1.6754,1.7216,2.0557,2.1014,2.1109,2.1109,2.1395,2.1555,2.1582,2.2084,2.2358,2.2385,2.2746,2.2893,2.2893,2.2893,2.2893,2.2893,2.2893,2.2893,2.2893,2.2893,2.2893,2.2893,2.2893,2.2893,2.2893,2.2893,2.2893,2.2893,2.2893,2.2893,2.2893,2.2893,2.2893,2.2987,0.0,0.0,0.0,0.0,0.0,0.0,0.0,0.0,0.0,0.0,0.0,0.0,0.0,0.0,0.0,0.0,0.0,0.0,0.0,0.0,1.3557,1.3851,1.352,1.3139,1.2803,1.3213,1.3467,1.36,1.36,1.372,1.3988,1.4076,1.4103,1.4103,1.4103,1.4103,1.4103,1.4103,1.4103,1.4103,1.4103,1.4229,1.4407,1.4474,1.4781,0.0,0.0,0.0,0.0,0.0,0.0,0.0,1.6993,1.7274,1.7489,1.7474,1.657,1.5558,1.5464,1.3859,1.2127,1.1766,1.1217,1.0749,1.0668,1.0664,1.0684,1.0684,1.0684,1.0817,1.1174,1.0949,1.0817,1.1207,1.1273,1.1273,1.1273,1.1273,1.2058,1.4166,1.5297,1.6722,1.8864,2.0291,2.1109,2.1109,2.1162,2.1309,2.1569,2.1917,2.2178,2.2371,2.2746,2.2893,2.2893,2.2893,2.2893,2.2893,2.2893,2.2893,2.2893,2.2893,2.2893,2.2893,2.2893,2.2893,2.2893,2.2893,2.2893,2.2893,2.2893,2.2893,2.2893,2.2893,2.2893,2.2987,0.0,0.0,0.0,0.0,0.0,0.0,0.0,0.0,0.0,0.0,0.0,0.0,0.0,0.0,0.0,0.0,0.0,0.0,0.0,0.0,1.4063,1.3944,1.3758,1.3518,1.3193,1.346,1.3666,1.3834,1.3834,1.3935,1.4103,1.4103,1.4103,1.4103,1.4103,1.4103,1.4103,1.4103,1.4162,1.4295,1.4295,1.4469,1.475,1.4883,1.5124,1.5418,1.5551,0.0,0.0,0.0,0.0,0.0,0.0,0.0,1.753,1.7121,1.6563,1.5823,1.4656,1.3308,1.2048,1.1441,1.0832,1.0439,1.0637,1.0684,1.0684,1.0684,1.0684,1.0684,1.0684,1.0684,1.0684,1.0684,1.0684,1.0684,1.0684,1.0684,1.1339,1.3095,1.4101,1.5654,1.8244,1.9323,2.0195,2.1046,2.1109,2.1176,2.1368,2.1783,2.2058,2.2205,2.2666,2.2893,2.2893,2.2893,2.2893,2.2893,2.2893,2.2893,2.2893,2.2893,2.2893,2.2893,2.2893,2.2893,2.2893,2.2893,2.2893,2.2893,2.2893,2.2893,2.2893,2.2893,2.2893,2.2987,0.0,0.0,0.0,0.0,0.0,0.0,0.0,0.0,0.0,0.0,0.0,0.0,0.0,0.0,0.0,0.0,0.0,0.0,0.0,0.0,0.0,1.4325,1.4384,1.4158,1.362,1.3653,1.382,1.4103,1.4103,1.4103,1.4103,1.4103,1.4103,1.4103,1.4103,1.4143,1.4162,1.4162,1.4335,1.4603,1.4603,1.4776,1.5093,1.5334,1.5431,0.0,1.5781,1.6059,1.631,1.6417,0.0,0.0,0.0,0.0,1.7437,1.6589,1.6228,1.5637,1.3461,1.2562,1.1926,1.0612,1.0385,1.0534,1.0683,1.0684,1.0684,1.0684,1.0684,1.0684,1.0684,1.0684,1.0684,1.0684,1.0684,1.0684,1.0684,1.0684,1.124,1.2676,1.339,1.4874,1.7763,1.8308,1.9228,2.0982,2.0811,2.0779,2.1077,2.167,2.1991,2.1991,2.2586,2.2893,2.2893,2.2893,2.2893,2.2893,2.2893,2.2893,2.2893,2.2893,2.2893,2.2893,2.2893,2.2893,2.2893,2.2893,2.2893,2.2893,2.2893,2.2893,2.2893,2.2893,2.2934,2.3054,0.0,0.0,0.0,0.0,0.0,0.0,0.0,0.0,0.0,0.0,0.0,0.0,0.0,0.0,0.0,0.0,0.0,0.0,1.7828,0.0,0.0,1.4765,1.4081,1.3682,1.36,1.3874,1.4063,1.4103,1.4103,1.4103,1.4103,1.4103,1.4103,1.4103,1.4103,1.4229,1.4447,1.4447,1.4629,1.4932,1.4932,1.5106,1.5337,1.5378,0.0,0.0,0.0,1.627,1.6377,1.6911,1.7139,0.0,0.0,0.0,1.7662,1.8031,1.7176,1.6135,1.628,1.4381,1.2051,1.064,1.0385,1.0534,1.0683,1.0684,1.0684,1.0684,1.0684,1.0684,1.0684,1.0684,1.0684,1.0684,1.0684,1.0684,1.0684,1.0684,1.0784,1.1016,1.3709,1.5751,1.6205,1.7602,1.9228,2.0982,1.9706,1.9515,2.1014,2.167,2.1991,2.1991,2.2586,2.2893,2.2893,2.2893,2.2893,2.2893,2.2893,2.2893,2.2893,2.2893,2.2893,2.2893,2.2893,2.2893,2.2893,2.2893,2.2893,2.2893,2.2893,2.2893,2.2893,2.2893,2.3033,2.3313,0.0,0.0,0.0,0.0,0.0,0.0,0.0,0.0,0.0,0.0,0.0,0.0,0.0,0.0,0.0,1.7555,1.7529,1.7424,1.7276,1.6286,1.523,1.4169,1.3967,1.3874,1.3874,1.4015,1.4103,1.4103,1.4103,1.4103,1.4095,1.4255,1.4322,1.4322,1.4322,1.4496,1.4785,1.4785,1.4937,1.5227,1.5227,1.5508,1.5909,0.0,0.0,0.0,0.0,0.0,1.6832,1.7112,1.7313,1.7434,1.7568,0.0,0.0,0.0,1.811,1.737,1.6019,1.4155,1.2205,1.0668,1.0453,1.0636,1.0704,1.0684,1.0684,1.0684,1.0684,1.0684,1.0684,1.0684,1.0684,1.0684,1.0684,1.0684,1.0684,1.0684,1.0684,1.0684,1.2058,1.3357,1.4362,1.5135,1.6722,1.9451,1.8928,1.9259,2.1014,2.167,2.1991,2.1991,2.2586,2.2893,2.2893,2.2893,2.2893,2.2893,2.2893,2.2893,2.2893,2.2893,2.2893,2.2893,2.2893,2.2893,2.2893,2.2893,2.2893,2.2893,2.2893,2.2893,2.2893,2.2893,2.306,2.3332,0.0,0.0,0.0,0.0,0.0,0.0,0.0,0.0,0.0,0.0,0.0,0.0,0.0,0.0,0.0,0.0,1.8684,1.8692,1.7235,1.6311,1.5433,1.4575,1.4254,1.4103,1.4103,1.4103,1.4103,1.4103,1.4103,1.4122,1.4202,1.4416,1.4581,1.4736,1.4669,1.479,1.5093,1.5093,1.5307,1.5618,1.5618,1.5949,0.0,0.0,0.0,0.0,0.0,1.6993,1.7206,1.7286,1.7421,1.7608,1.7608,1.7769,0.0,0.0,0.0,1.8464,1.5917,1.4284,1.2892,1.1309,1.0785,1.0684,1.0684,1.0684,1.0684,1.0684,1.0684,1.0684,1.0684,1.0684,1.0684,1.0684,1.0684,1.0684,1.0684,1.0684,1.0684,1.0684,1.1075,1.1861,1.3161,1.3292,1.4558,1.7602,1.7827,1.8608,2.0354,2.1429,2.1991,2.1991,2.2586,2.2893,2.2893,2.2893,2.2893,2.2893,2.2893,2.2893,2.2893,2.2893,2.2893,2.2893,2.2893,2.2893,2.2893,2.2893,2.2893,2.2893,2.2893,2.2893,2.2893,2.2893,2.3113,2.3474,0.0,0.0,0.0,0.0,0.0,0.0,0.0,0.0,0.0,0.0,0.0,0.0,1.7749,1.8598,1.924,1.9203,1.9259,1.9416,1.9694,1.8136,1.7175,1.7098,1.5186,0.0,1.4103,1.4103,1.4103,1.4103,1.4103,1.4229,1.4474,1.4487,1.4816,1.5337,1.5093,1.512,1.5378,1.5378,1.5722,1.6257,1.6257,0.0,0.0,0.0,0.0,0.0,1.7046,1.7192,1.7246,1.7488,1.7595,1.7608,1.7608,1.7769,1.8076,0.0,0.0,0.0,1.7325,1.5881,1.451,1.2955,1.1613,1.0684,1.0684,1.0684,1.0684,1.0684,1.0684,1.0684,1.0684,1.0684,1.0684,1.0684,1.0684,1.0684,1.0684,1.0684,1.0684,1.0684,1.2157,1.3193,1.3292,1.3292,1.4068,1.5913,1.6043,1.6786,1.8544,2.0765,2.1991,2.1991,2.2586,2.2893,2.2893,2.2893,2.2893,2.2893,2.2893,2.2893,2.2893,2.2893,2.2893,2.2893,2.2893,2.2893,2.2893,2.2893,2.2893,2.2893,2.2893,2.2893,2.2893,2.2893,2.3268,2.379,0.0,0.0,0.0,0.0,0.0,0.0,0.0,0.0,0.0,0.0,0.0,0.0,0.0,1.7208,1.7899,1.86,1.8935,1.8559,1.7299,1.6623,1.5964,1.5269,1.4524,1.4103,1.4103,1.4103,1.4175,1.4362,1.4362,1.4509,1.4825,1.499,1.5274,1.5635,1.5378,1.5534,1.5989,1.5989,1.6217,1.6479,1.5532,1.5342,1.5498,1.4559,1.4324,1.4522,1.4639,1.5282,1.6071,1.617,1.6817,1.7622,1.7796,1.8063,1.8424,1.8933,1.9227,1.9039,1.7443,1.6827,1.6031,1.3354,1.254,1.2091,1.0949,1.0684,1.0684,1.0684,1.0684,1.0684,1.0684,1.0684,1.0684,1.0684,1.0684,1.0684,1.0684,1.0684,1.0684,1.0684,1.124,1.163,1.163,1.163,1.2832,1.5686,1.5913,1.7249,2.0323,2.1437,2.2071,2.2258,2.2693,2.2893,2.2893,2.2893,2.2893,2.2893,2.2893,2.2893,2.2893,2.2893,2.2893,2.2893,2.2893,2.2893,2.2893,2.2893,2.2893,2.2893,2.2893,2.2893,2.292,2.3086,2.342,2.383,0.0,0.0,0.0,0.0,0.0,0.0,0.0,0.0,0.0,0.0,0.0,0.0,0.0,0.0,1.7189,1.7898,1.8241,1.7799,1.6334,1.5902,1.5379,1.4678,1.4292,1.4103,1.4103,1.4103,1.4229,1.4501,1.4501,1.4723,1.5133,1.5404,1.5698,1.5955,1.5885,1.6046,1.6444,1.6444,1.6593,1.6746,1.5274,1.4852,1.5033,1.4048,1.38,1.4003,1.4088,1.4705,1.5429,1.4984,1.548,1.6422,1.715,1.7942,1.8731,1.9254,1.9401,1.9156,1.811,1.7709,1.7091,1.4883,1.4253,1.3709,1.196,1.1571,1.1406,1.0817,1.0684,1.0684,1.0684,1.0684,1.0684,1.0684,1.0684,1.0684,1.0684,1.0684,1.0684,1.0684,1.0684,1.0684,1.0684,1.0684,1.1894,1.4809,1.5557,1.7314,2.054,2.1523,2.2164,2.2552,2.2786,2.2893,2.2893,2.2893,2.2893,2.2893,2.2893,2.2893,2.2893,2.2893,2.2893,2.2893,2.2893,2.2893,2.2893,2.2893,2.2893,2.2893,2.2893,2.2893,2.2934,2.3207,2.3514,2.3843,0.0,0.0,0.0,0.0,0.0,0.0,0.0,0.0,0.0,0.0,0.0,0.0,0.0,0.0,0.0,1.7212,1.7232,1.7232,1.7212,1.6232,1.567,1.5649,1.4671,1.4129,1.4129,1.4129,1.4255,1.4527,1.4527,1.4834,1.5431,1.5688,1.6019,1.6337,1.6593,1.6702,1.6652,1.6702,1.6913,1.7077,1.5553,1.5121,1.5343,1.5248,1.5221,1.5244,1.5429,1.5548,1.539,1.4076,1.3695,1.4063,1.5665,1.7456,1.8998,1.9308,1.9401,1.9401,0.0,0.0,0.0,1.7626,1.6803,1.5492,1.3709,1.3292,1.28,1.1049,1.0684,1.0684,1.0684,1.0684,1.0684,1.0684,1.0684,1.0684,1.0684,1.0684,1.0684,1.0684,1.0684,1.0684,1.0684,1.0684,1.1406,1.3161,1.4916,1.6795,1.8888,2.0945,2.2271,2.288,2.2893,2.2893,2.2893,2.2893,2.2893,2.2893,2.2893,2.2893,2.2893,2.2893,2.2893,2.2893,2.2893,2.2893,2.2893,2.2893,2.2893,2.2893,2.2893,2.2907,2.2947,2.322,2.3527,2.3857,0.0,0.0,0.0,0.0,0.0,0.0,0.0,0.0,0.0,0.0,0.0,0.0,0.0,1.5504,1.5835,1.504,1.569,1.5814,1.504,1.472,1.4628,1.4827,1.454,1.4496,1.4754,1.4745,1.4879,1.515,1.5341,1.5658,1.6056,1.6326,1.662,1.6965,1.7045,1.6588,1.5829,1.669,1.722,1.7292,1.4871,1.3898,1.3673,1.1789,1.1,1.0939,1.1098,1.1811,1.2606,1.2225,1.3581,1.5744,1.755,1.8656,0.0,1.9374,1.9401,1.9441,1.9655,0.0,0.0,0.0,0.0,0.0,1.397,1.3292,1.28,1.1049,1.0684,1.0684,1.0684,1.0684,1.0684,1.0684,1.0684,1.0684,1.0684,1.0684,1.0684,1.0684,1.0684,1.0684,1.0684,1.0684,1.1406,1.3161,1.4916,1.6902,1.918,2.1419,2.2733,2.2893,2.2893,2.2893,2.2893,2.2893,2.2893,2.2893,2.2893,2.2893,2.2893,2.2893,2.2893,2.2893,2.2893,2.2893,2.2893,2.2893,2.2893,2.2893,2.2893,2.3041,2.3233,2.3541,2.3834,2.4128,0.0,0.0,0.0,0.0,0.0,0.0,0.0,0.0,0.0,0.0,0.0,0.0,0.0,0.0,1.4825,1.4319,1.4838,1.5,1.4507,1.4477,1.4544,1.4696,1.471,1.4812,1.5008,1.5106,1.5307,1.5578,1.5872,1.6166,1.646,1.6779,1.7006,1.718,1.6768,1.6178,1.5522,1.5675,1.5809,1.5773,1.4259,1.3213,1.2377,1.0869,1.0234,1.0167,1.0338,1.0943,1.1525,1.0993,1.287,1.5678,1.6761,1.8159,0.0,1.9401,1.9401,1.9468,0.0,0.0,2.0051,1.9368,0.0,0.0,1.5167,1.4395,1.3676,1.1207,1.0684,1.0684,1.0684,1.0684,1.0684,1.0684,1.0684,1.0684,1.0684,1.0684,1.0684,1.0684,1.0684,1.0684,1.0684,1.0684,1.1406,1.3161,1.4916,1.725,2.0327,2.2018,2.2893,2.2893,2.2893,2.2893,2.2893,2.2893,2.2893,2.2893,2.2893,2.2893,2.2893,2.2893,2.2893,2.2893,2.2893,2.2893,2.2893,2.2893,2.2893,2.2907,2.3006,2.3166,2.3345,2.3794,2.4062,2.4249,0.0,0.0,0.0,0.0,0.0,0.0,0.0,0.0,0.0,0.0,1.4143,1.417,1.421,0.0,0.0,0.0,1.4563,1.4683,1.4995,1.5008,0.0,1.5079,1.5079,1.512,1.5173,1.5427,1.5671,1.5901,1.6244,1.6524,1.6767,1.7086,1.7156,1.7002,0.0,0.0,1.5182,1.4171,1.3484,1.3113,1.3495,1.2813,1.1487,1.1356,1.1306,1.1306,1.1494,1.1589,1.1406,1.0402,1.1976,1.4391,1.4748,1.685,1.9209,1.9383,1.9468,1.9562,1.9813,0.0,0.0,2.0655,2.0922,0.0,1.6947,1.6205,1.5265,1.196,1.1273,1.1273,1.1273,1.1273,1.1273,1.1273,1.1115,1.0916,1.0717,1.0684,1.0684,1.0684,1.0684,1.0684,1.0684,1.0684,1.1339,1.2898,1.4856,1.7772,2.1786,2.2572,2.2893,2.2893,2.2893,2.2893,2.2893,2.2893,2.2893,2.2893,2.2893,2.2893,2.2893,2.2893,2.2893,2.2893,2.2893,2.2893,2.2893,2.2893,2.2893,2.2934,2.3207,2.3305,2.3412,2.3995,2.4222,2.4289,0.0,0.0,0.0,0.0,0.0,0.0,0.0,0.0,0.0,0.0,1.4295,1.4522,1.4785,0.0,0.0,0.0,1.4905,1.4919,1.5008,1.5008,1.52,1.5621,1.5635,1.5861,1.6353,1.642,1.6473,1.6515,1.6859,1.7058,1.7125,1.7381,1.6974,1.5967,1.5803,1.4451,1.2406,1.3605,1.2639,1.0479,1.1703,1.191,1.1397,1.0495,1.0077,0.9992,1.0141,1.0197,1.0348,1.1366,1.2157,1.3108,1.5725,1.7103,1.8037,1.9351,1.988,2.0104,2.0458,2.0548,2.0655,2.0949,2.1069,0.0,1.848,1.7988,1.7409,1.5297,1.4874,1.4874,1.4874,1.4874,1.4874,1.4874,1.3709,1.2314,1.0916,1.0684,1.0684,1.0684,1.0684,1.0684,1.0684,1.0684,1.085,1.1174,1.4563,1.8195,2.1813,2.2572,2.2893,2.2893,2.2893,2.2893,2.2893,2.2893,2.2893,2.2893,2.2893,2.2893,2.2893,2.2893,2.2893,2.2893,2.2893,2.2893,2.2893,2.2893,2.2893,2.2934,2.3207,2.3474,2.3728,2.4075,2.4356,2.4519,0.0,0.0,0.0,0.0,0.0,0.0,0.0,0.0,0.0,1.4531,1.4678,1.4825,1.4972,0.0,0.0,0.0,0.0,0.0,0.0,0.0,1.5965,1.6235,1.6248,1.6382,1.67,1.6847,1.6953,1.6953,1.7247,1.7069,1.6458,1.6596,1.5942,1.4665,1.4051,1.2964,1.1666,1.19,1.1099,0.9834,1.1367,1.146,1.0576,1.0033,0.9744,0.9727,0.9765,0.9839,1.0023,1.0843,1.2289,1.3887,1.4619,1.6059,1.767,1.847,1.8811,1.917,2.0372,2.0712,2.0748,2.1042,2.1109,0.0,0.0,1.8512,1.802,1.6269,1.5913,1.5913,1.5913,1.5913,1.5913,1.5913,1.4428,1.3292,1.3292,1.1795,1.0684,1.0684,1.0684,1.0684,1.0684,1.0684,1.1406,1.3161,1.5462,1.8329,2.1813,2.2572,2.2893,2.2893,2.2893,2.2893,2.2893,2.2893,2.2893,2.2893,2.2893,2.2893,2.2893,2.2893,2.2893,2.2893,2.2893,2.2893,2.2907,2.3033,2.31,2.3126,2.3434,2.3728,2.4022,2.4315,2.4479,2.4599,0.0,0.0,0.0,0.0,0.0,0.0,0.0,0.0,0.0,1.5106,1.5106,1.5133,1.5307,1.5267,0.0,0.0,0.0,0.0,0.0,1.6299,1.6451,1.6794,1.6794,1.682,1.6874,1.7193,1.7211,1.6925,1.7173,1.664,1.5303,1.5303,1.462,1.3279,1.225,1.1669,1.1363,1.0279,0.9819,0.9913,1.1301,1.1035,0.9832,0.9832,0.9852,0.991,0.991,0.9961,1.0062,1.0062,1.2181,1.4603,1.3143,1.4778,1.7283,1.7622,1.7719,1.8216,2.0216,2.0793,2.0815,2.1056,2.1109,2.0716,0.0,0.0,0.0,1.7173,1.6883,1.6883,1.6883,1.6883,1.6872,1.6829,1.5397,1.4767,1.6121,1.3659,1.1696,1.1696,1.1108,1.0817,1.1174,1.1207,1.2643,1.614,1.6958,1.8663,2.1813,2.2572,2.2893,2.2893,2.2893,2.2893,2.2893,2.2893,2.2893,2.2893,2.2893,2.2893,2.2893,2.2893,2.2893,2.2893,2.2893,2.2893,2.292,2.3193,2.3332,2.3447,2.3741,2.3995,2.4235,2.4492,2.4599,2.4599,1.4501,1.4447,0.0,0.0,0.0,0.0,0.0,0.0,1.5133,1.5635,1.5511,1.5645,1.642,1.6273,1.5758,0.0,1.4641,1.469,1.4749,1.4811,0.0,0.0,1.7152,1.7247,1.7501,1.7756,1.7256,1.5864,1.6153,1.5473,1.3938,1.3938,1.3231,1.1992,1.1871,1.1149,1.0014,0.9988,0.9913,0.9842,1.0333,1.0298,0.9994,0.9994,1.0076,1.0229,1.0229,1.0243,1.0288,1.0288,1.1546,1.312,1.2798,1.4194,1.6202,1.7608,1.821,1.878,2.0569,2.1056,2.1069,2.1096,2.1109,2.1046,2.0856,0.0,2.0748,2.0557,0.0,2.0526,2.0526,0.0,0.0,2.0188,1.8879,1.7908,1.7848,1.637,1.5297,1.5297,1.2578,1.1306,1.2832,1.2997,1.446,1.7956,1.8752,1.9954,2.1879,2.2572,2.2893,2.2893,2.2893,2.2893,2.2893,2.2893,2.2893,2.2893,2.2893,2.2893,2.2893,2.2893,2.2893,2.2893,2.2893,2.2893,2.292,2.3193,2.3487,2.379,2.4035,2.4168,2.4235,2.4492,2.4599,2.4599,1.4825,1.4798,0.0,0.0,0.0,0.0,0.0,0.0,1.6059,1.6275,1.6233,1.6299,1.666,1.6593,1.6046,1.4899,1.4794,1.4852,1.5004,1.5235,0.0,0.0,1.7862,1.801,1.813,0.0,0.0,1.7315,1.558,1.4465,1.397,1.3028,1.1892,1.0651,1.0651,1.0327,0.9798,0.9954,0.9981,0.9947,1.0283,1.0365,1.0265,1.0215,1.0222,1.0315,1.0315,1.0363,1.0437,1.0437,1.1639,1.2935,1.1877,1.3526,1.5932,1.6647,1.762,1.8864,2.0621,2.0354,1.9833,2.0856,2.0322,1.9865,2.0874,2.1109,2.1109,2.1109,0.0,0.0,0.0,0.0,0.0,0.0,1.9567,1.8796,1.9714,1.7567,1.5913,1.5913,1.4623,1.4003,1.4744,1.3905,1.4754,1.8244,1.9048,2.0153,2.1925,2.2572,2.2893,2.2893,2.2893,2.2893,2.2893,2.2893,2.2893,2.2893,2.2893,2.2893,2.2893,2.2893,2.2893,2.2893,2.2893,2.3,2.3153,2.346,2.3754,2.4048,2.4342,2.4412,2.4439,2.4559,2.4599,2.4599,0.0,0.0,0.0,0.0,0.0,0.0,0.0,1.5568,1.5985,1.5669,1.5897,1.6011,1.5781,1.5681,1.5167,1.4031,1.3948,1.4056,1.4256,1.4548,1.5326,1.6765,1.7489,1.7631,1.7201,1.655,0.0,1.6654,1.4398,1.32,1.2969,1.1807,1.0748,0.9852,0.9852,0.9879,0.9958,1.0076,1.0116,1.0109,1.0432,1.0555,1.0541,1.0439,1.0378,1.0376,1.0385,1.0466,1.0555,1.0555,1.1788,1.2997,1.124,1.2767,1.52,1.52,1.6075,1.757,1.9769,1.9451,1.8928,2.0652,2.0164,1.9546,2.0811,2.1109,2.1109,2.1109,2.1109,0.0,0.0,0.0,2.1082,2.1002,0.0,1.9617,2.0813,1.888,1.7345,1.7345,1.6883,1.6592,1.6592,1.5459,1.5978,1.8992,1.9781,2.0663,2.1912,2.2572,2.2893,2.2893,2.2893,2.2893,2.2893,2.2893,2.2893,2.2893,2.2893,2.2893,2.2893,2.2893,2.2893,2.2893,2.2893,2.3033,2.3319,2.3647,2.3977,2.4235,2.4492,2.4599,2.4599,2.4599,2.4599,2.4599,1.249,1.3166,0.0,0.0,1.3373,1.249,1.251,1.3671,1.4168,1.3074,1.3902,1.427,1.3489,1.3132,1.2481,1.1321,1.1336,1.141,1.1438,1.1569,1.2291,1.377,1.5333,1.5457,1.3893,1.5567,1.5026,1.2018,1.2167,1.1457,0.993,0.9876,0.9927,0.9977,0.9977,1.0096,1.0276,1.0419,1.0399,1.0297,1.0595,1.0677,1.0677,1.0677,1.0616,1.0507,1.0656,1.0677,1.0677,1.0677,1.1853,1.2997,1.124,1.1927,1.339,1.339,1.3423,1.4232,1.7667,1.8544,1.8928,2.0652,2.1046,2.1046,2.1077,2.1109,2.1109,2.1109,2.1109,2.1109,2.1109,2.1109,0.0,0.0,2.0891,0.0,0.0,2.0828,2.0938,2.0938,1.9451,1.8404,1.8404,1.8384,1.9088,2.0887,2.1592,2.1958,2.1991,2.2572,2.2893,2.2893,2.2893,2.2893,2.2893,2.2893,2.2893,2.2893,2.2893,2.2893,2.2893,2.2893,2.2893,2.2893,2.2893,2.3033,2.3319,2.3647,2.3977,2.4235,2.4492,2.4599,2.4599,2.4599,2.4599,2.4599,0.0,0.0,0.0,1.2966,1.271,1.2452,1.2643,1.3267,1.3567,1.317,1.3536,1.3732,1.3449,1.341,1.2841,1.1493,1.141,1.1444,1.1444,1.1677,1.2496,1.3961,1.4732,1.4844,1.4308,1.3888,1.366,1.366,1.1712,1.1003,1.1494,1.0571,1.0154,1.0202,1.0202,1.0229,1.0322,1.0432,1.0466,1.0439,1.0636,1.0684,1.0684,1.0684,1.0657,1.0649,1.0671,1.0684,1.0684,1.0684,1.1075,1.1472,1.0883,1.1894,1.3292,1.3292,1.4134,1.5265,1.6463,1.5946,1.5751,1.8672,1.8512,1.8244,2.0557,2.1109,2.1109,2.1109,2.1109,2.1109,2.1109,2.1109,0.0,0.0,0.0,2.1069,0.0,2.1042,2.1109,2.1109,1.9546,1.896,2.01,1.9196,1.9301,2.1293,2.1764,2.2071,2.2258,2.2679,2.2893,2.2893,2.2893,2.2893,2.2893,2.2893,2.2893,2.2893,2.2893,2.2893,2.2893,2.2893,2.2893,2.2907,2.3086,2.334,2.3647,2.3941,2.4222,2.4466,2.4559,2.4599,2.4599,2.4599,2.4599,2.4599,1.1547,1.0852,1.0588,1.1741,1.1566,1.1309,1.1486,1.2156,1.2478,1.1989,1.2404,1.2599,1.2102,1.2124,1.1794,1.0834,1.0802,1.0812,1.0812,1.1085,1.1646,1.2584,1.3362,1.3467,1.2898,1.2487,1.25,1.2945,1.1039,1.0628,1.1619,1.0735,1.0342,1.0358,1.0358,1.0385,1.0439,1.0534,1.0575,1.0582,1.0677,1.0684,1.0684,1.0684,1.0684,1.0684,1.0684,1.0684,1.0684,1.0684,1.0684,1.0684,1.0684,1.1472,1.238,1.238,1.3161,1.4199,1.4809,1.4166,1.4003,1.6851,1.6722,1.6657,1.9515,2.0164,2.0164,2.0164,2.0652,2.0716,1.9483,2.0259,0.0,0.0,0.0,0.0,0.0,2.1109,2.1109,2.1109,2.01,1.9877,2.0982,2.0068,2.0023,2.1491,2.185,2.2111,2.2405,2.2733,2.2893,2.2893,2.2893,2.2893,2.2893,2.2893,2.2893,2.2893,2.2893,2.2893,2.2893,2.2893,2.296,2.3033,2.3212,2.3554,2.3977,2.4128,2.4369,2.4599,2.4599,2.4599,2.4599,2.4599,2.4599,2.4599,0.9383,0.941,0.9745,1.0844,1.0014,0.9221,0.9221,1.0438,1.092,0.9584,1.0582,1.0899,0.9562,0.943,0.943,0.943,0.9537,0.9618,0.9618,0.9717,0.9792,0.9798,1.1269,1.1398,0.9842,1.1448,1.1565,0.9997,1.0215,1.0322,1.0322,1.0329,1.0403,1.05,1.05,1.0582,1.0684,1.0684,1.0684,1.0684,1.0684,1.0684,1.0684,1.0684,1.0684,1.0684,1.0684,1.0684,1.0684,1.0684,1.0684,1.0684,1.0684,1.0684,1.0684,1.0684,1.0684,1.1049,1.2709,1.3161,1.3578,1.5329,1.5784,1.6237,1.7956,1.8372,1.8372,1.8372,1.9674,1.9865,1.6625,1.8736,2.0462,0.0,0.0,0.0,2.1109,2.1109,2.1109,2.1109,2.1109,2.1109,2.1109,2.1109,2.1243,2.1582,2.1863,2.2124,2.2418,2.2746,2.2893,2.2893,2.2893,2.2893,2.2893,2.2893,2.2893,2.2893,2.2893,2.2893,2.2893,2.2893,2.3033,2.3292,2.3305,2.3674,2.4209,2.4222,2.4382,2.4599,2.4599,2.4599,2.4599,2.4599,2.4599,2.4599,0.9403,0.941,0.9499,0.9788,0.9551,0.9349,0.9349,0.9701,0.9809,0.9439,0.9798,0.9957,0.958,0.9646,0.9707,0.9707,0.9741,0.9737,0.9737,0.9771,0.9839,0.9954,1.0324,1.0442,1.0193,1.0605,1.0626,1.0222,1.0365,1.0439,1.0439,1.0555,1.0629,1.0663,1.0663,1.0683,1.0684,1.0684,1.0684,1.0684,1.0684,1.0684,1.0684,1.0684,1.0684,1.0684,1.0684,1.0684,1.0684,1.0684,1.0684,1.0684,1.0684,1.0684,1.0684,1.0684,1.0684,1.0784,1.124,1.1372,1.1795,1.3521,1.397,1.4428,1.6172,1.656,1.656,1.656,1.6915,1.7377,1.7763,1.8576,1.9451,0.0,0.0,0.0,2.1109,2.1109,2.1109,2.1109,2.1109,2.1109,2.1109,2.1109,2.1323,2.1877,2.197,2.2238,2.276,2.2853,2.2893,2.2893,2.2893,2.2893,2.2893,2.2893,2.2893,2.2893,2.2893,2.2893,2.2893,2.2893,2.3033,2.3305,2.3554,2.3861,2.4222,2.4436,2.4532,2.4599,2.4599,2.4599,2.4599,2.4599,2.4599,2.4599,0.9557,0.9571,0.9571,0.9571,0.9571,0.9551,0.949,0.9537,0.9571,0.9571,0.9646,0.97,0.97,0.9744,0.9819,0.9886,0.9893,0.992,1.0019,1.0025,1.0059,1.0116,1.0116,1.0188,1.0308,1.0369,1.0403,1.0403,1.0521,1.0595,1.0595,1.0644,1.0684,1.0684,1.0684,1.0684,1.0684,1.0684,1.0684,1.0684,1.0684,1.0684,0.0,1.0684,1.0684,1.0684,1.0684,1.0684,1.0684,1.0684,1.0684,1.0684,1.0684,1.0684,1.0684,1.0684,1.0684,1.0684,1.0684,1.0684,1.0949,1.1927,1.2157,1.261,1.4362,1.4754,1.4754,1.4754,1.5362,1.5719,1.52,1.6947,1.9056,2.0811,2.1109,2.1109,2.1109,2.1109,2.1109,2.1109,2.1109,2.1109,2.1109,2.1229,2.1475,2.181,2.2031,2.2325,2.2645,2.2827,2.2893,2.2893,2.2893,2.2893,2.2893,2.2893,2.2893,2.2893,2.2893,2.2893,2.2893,2.3041,2.3233,2.3541,2.3834,2.4128,2.4409,2.4532,2.4599,2.4599,2.4599,2.4599,2.4599,2.4599,2.4599,2.4599,0.9792,0.9819,0.9825,0.9846,0.9852,0.9836,0.9713,0.9768,0.9798,0.9819,0.9819,0.9825,0.9846,0.9852,0.9907,1.0035,1.0049,1.0103,1.0301,1.0315,1.0322,1.0342,1.0342,1.0317,1.0337,1.046,1.0521,1.0521,1.0656,1.0684,1.0684,1.0684,1.0684,1.0684,1.0684,1.0684,1.0684,1.0684,1.0684,1.0684,1.0684,1.0684,1.0684,1.0684,1.0684,1.0684,1.0684,1.0684,1.0684,1.0684,1.0684,1.0684,1.0684,1.0684,1.0684,1.0684,1.0684,1.0684,1.0684,1.0684,1.0684,1.0684,1.0684,1.1108,1.261,1.2964,1.2964,1.2964,1.4166,1.4362,1.1571,1.4939,1.88,2.0779,2.0919,2.0843,2.1077,2.1109,2.1109,2.1109,2.1109,0.0,2.1109,2.1368,2.1555,2.1636,2.2071,2.2392,2.2472,2.276,2.2893,2.2893,2.2893,2.2893,2.2893,2.2893,2.2893,2.2893,2.2893,2.2893,2.2907,2.318,2.3487,2.3817,2.4075,2.4332,2.4599,2.4599,2.4599,2.4599,2.4599,2.4599,2.4599,2.4599,2.4599,2.4599,0.9947,0.9981,1.0021,1.0175,1.0202,1.0195,1.0168,0.9964,0.9839,0.9961,0.9981,1.0028,1.0188,1.0202,1.0209,1.0236,1.0243,1.0249,1.0308,1.0315,1.0363,1.0453,1.0453,1.0514,1.0643,1.0637,1.0644,1.0644,1.0677,1.0684,1.0684,1.0684,1.0684,1.0684,1.0684,1.0684,1.0684,1.0684,1.0684,1.0684,1.0684,1.0684,1.0684,1.0684,1.0684,1.0684,1.0684,1.0684,1.0684,1.0684,1.0684,1.0684,1.0684,1.0684,1.0684,1.0684,1.0684,1.0684,1.0684,1.0684,1.0684,1.0684,1.0684,1.0784,1.1082,1.1141,1.1141,1.1141,1.1406,1.1861,1.2701,1.4777,1.7409,2.0589,1.9897,1.9451,2.0906,2.1109,2.1109,2.1109,2.1109,2.1109,2.1109,2.1162,2.139,2.1903,2.2004,2.2271,2.28,2.2867,2.2893,2.2893,2.2893,2.2893,2.2893,2.2893,2.2893,2.2893,2.2893,2.2893,2.2907,2.318,2.3487,2.3817,2.4075,2.4332,2.4599,2.4599,2.4599,2.4599,2.4599,2.4599,2.4599,2.4599,2.4599,2.4599,1.0154,1.0168,1.0195,1.027,1.0315,1.0315,1.0315,1.0154,1.0086,1.0161,1.0168,1.0195,1.0301,1.0315,1.0342,1.0385,1.0392,1.0426,1.0507,1.0507,1.0541,1.0609,1.0609,1.0643,1.0684,1.0684,1.0684,1.0684,1.0684,1.0684,1.0684,1.0684,1.0684,1.0684,1.0684,1.0684,1.0684,1.0684,1.0684,1.0684,1.0684,1.0684,1.0684,1.0684,1.0684,1.0684,1.0684,1.0684,1.0684,1.0684,1.0684,1.0684,1.0684,1.0684,1.0684,1.0684,1.0684,1.0684,1.0684,1.0684,1.0684,1.0684,1.0684,1.0684,1.0684,1.0684,1.0684,1.0684,1.0684,1.124,1.2964,1.4721,1.6463,1.8116,1.848,1.848,1.8404,1.9337,2.0027,2.0027,2.0941,2.1563,2.1563,2.1563,2.1617,2.1783,2.2211,2.2532,2.2619,2.2813,2.2893,2.2893,2.2893,2.2893,2.2893,2.2893,2.2893,2.2893,2.2893,2.2987,2.3113,2.342,2.3714,2.4008,2.4302,2.4466,2.4599,2.4599,2.4599,2.4599,2.4599,2.4599,2.4599,2.4599,2.4599,2.4599,1.0349,1.0324,1.0337,1.0371,1.0403,1.0403,1.0403,1.0403,1.0365,1.0363,1.0324,1.0337,1.0371,1.0403,1.0419,1.0527,1.0541,1.0595,1.0677,1.0684,1.0684,1.0684,1.0684,1.0684,1.0684,1.0684,1.0684,1.0684,1.0684,1.0704,1.067,1.0704,1.0684,1.0684,1.0684,1.0684,1.0684,1.0684,1.0684,1.0684,1.0684,1.0684,1.0684,1.0684,1.0684,1.0684,1.0684,1.0684,1.0684,1.0684,1.0684,1.0684,1.0684,1.0684,1.0684,1.0684,1.0684,1.0684,1.0684,1.0684,1.0684,1.0684,1.0684,1.0684,1.0684,1.0684,1.0684,1.0684,1.0684,1.124,1.2964,1.4134,1.5186,1.6374,1.7066,1.7239,1.6675,1.8025,1.9048,1.9048,2.0801,2.1991,2.1991,2.2044,2.201,2.1783,2.2412,2.2733,2.2525,2.2773,2.2893,2.2893,2.2893,2.2893,2.2893,2.2893,2.2893,2.2893,2.2893,2.3033,2.3305,2.3634,2.3964,2.4222,2.4479,2.4599,2.4599,2.4599,2.4599,2.4599,2.4599,2.4599,2.4599,2.4599,2.4599,2.4599,1.0446,1.0473,1.0514,1.0656,1.0644,1.0644,1.0644,1.0644,1.0629,1.0487,1.0473,1.0527,1.0663,1.0644,1.0683,1.0664,1.0664,1.0704,1.0684,1.0684,1.0684,1.0684,1.0684,1.0684,1.0684,1.0684,1.0684,1.0684,1.0684,1.0649,1.0514,1.0656,1.0684,1.0684,1.0684,1.0684,1.0684,1.0684,1.0684,1.0684,1.0684,1.0684,1.0684,1.0684,1.0684,1.0684,1.0684,1.0684,1.0684,1.0684,1.0684,1.0684,1.0684,1.0684,1.0684,1.0684,1.0684,1.0684,1.0684,1.0684,1.0684,1.0684,1.0684,1.0684,1.0684,1.0684,1.0684,1.0684,1.0684,1.124,1.2964,1.215,1.2823,1.7893,1.6051,1.5133,1.8439,1.9074,1.9186,1.9186,2.0862,2.1991,2.1991,2.2218,2.2331,2.2338,2.2418,2.2565,2.284,2.288,2.2893,2.2893,2.2893,2.2893,2.2893,2.2893,2.2893,2.2893,2.2893,2.3033,2.3305,2.3634,2.3964,2.4222,2.4479,2.4599,2.4599,2.4599,2.4599,2.4599,2.4599,2.4599,2.4599,2.4599,2.4599,2.4599,1.0616,1.0629,1.0649,1.0677,1.0684,1.0684,1.0684,1.0684,1.0664,1.0636,1.0629,1.0649,1.0677,1.0684,1.0684,1.0684,1.0684,1.0684,1.0684,1.0684,1.0684,1.0684,1.0684,1.0684,1.0684,1.0684,1.0684,1.0684,1.0684,1.0657,1.0629,1.0657,1.0684,1.0684,1.0684,1.0684,1.0684,1.0684,1.0684,1.0684,1.0684,1.0684,1.0684,1.0684,1.0684,1.0684,1.0684,1.0684,1.0684,1.0684,1.0684,1.0684,1.0684,1.0684,1.0684,1.0684,1.0684,1.0684,1.0684,1.0684,1.0684,1.0684,1.0684,1.0684,1.0684,1.0759,1.0826,1.0826,1.0928,1.122,1.1924,1.2323,1.2946,1.4119,1.3967,1.3857,1.4343,1.643,1.7873,1.7873,2.0647,2.2546,2.2546,2.2653,2.2686,2.2686,2.2686,2.2773,2.2893,2.2893,2.2893,2.2893,2.2893,2.2893,2.2893,2.2893,2.2893,2.2893,2.3046,2.33,2.3607,2.3901,2.4195,2.4439,2.4546,2.4599,2.4599,2.4599,2.4599,2.4599,2.4599,2.4599,2.4599,2.4599,2.4599,2.4599,0.9144,0.9144,0.9144,0.9144,0.9144,0.9144,0.9144,0.9144,0.931,0.9842,0.9915,1.0114,1.0651,1.0684,1.0684,1.0684,1.0684,1.0684,1.0684,1.0684,1.0684,1.0684,1.0684,1.0684,1.0684,1.0684,1.0684,1.0684,1.0684,1.0664,1.0656,1.0656,1.0677,1.0684,1.0684,1.0684,1.0684,1.0684,1.0684,1.0684,1.0684,1.0684,1.0684,1.0684,1.0684,1.0684,1.0684,1.0684,1.0684,1.0684,1.0684,1.0684,1.0684,1.0684,1.0684,1.0684,1.0684,1.0698,1.0738,1.0752,1.0765,1.0839,1.0853,1.0853,1.0853,1.0934,1.0975,1.0975,1.109,1.12,1.12,1.2219,1.2845,1.2175,1.2666,1.2889,1.2214,1.4979,1.705,1.705,2.0531,2.2893,2.2893,2.2893,2.2893,2.2893,2.2893,2.2893,2.2893,2.2893,2.2893,2.2893,2.2893,2.2893,2.2893,2.2893,2.2893,2.2893,2.318,2.3487,2.3817,2.4155,2.4399,2.4599,2.4599,2.4599,2.4599,2.4599,2.4599,2.4599,2.4599,2.4599,2.4599,2.4599,2.4599,2.4599,0.5462,0.5462,0.5462,0.5462,0.5462,0.5462,0.5462,0.5462,0.6097,0.7797,0.803,0.8701,1.0485,1.0684,1.0684,1.0684,1.0684,1.0684,1.0684,1.0684,1.0684,1.0684,1.0684,1.0684,1.0684,1.0684,1.0684,1.0684,1.0684,1.0643,1.0493,1.0493,1.0575,1.0684,1.0684,1.0684,1.0684,1.0684,1.0684,1.0684,1.0684,1.0684,1.0684,1.0684,1.0684,1.0684,1.0684,1.0684,1.0684,1.0684,1.0684,1.0684,1.0684,1.0684,1.0684,1.0684,1.0684,1.0718,1.0874,1.0914,1.0948,1.1159,1.1193,1.1193,1.1193,1.1193,1.1193,1.1193,1.1193,1.12,1.12,1.1234,1.1891,1.3841,1.2632,1.2136,1.4079,1.6016,1.7213,1.7213,2.0583,2.2893,2.2893,2.2893,2.2893,2.2893,2.2893,2.2893,2.2893,2.2893,2.2893,2.2893,2.2893,2.2893,2.2893,2.2893,2.2893,2.2893,2.318,2.3487,2.383,2.4332,2.4599,2.4599,2.4599,2.4599,2.4599,2.4599,2.4599,2.4599,2.4599,2.4599,2.4599,2.4599,2.4599,2.4599,0.5396,0.5396,0.5396,0.5396,0.5396,0.5396,0.5396,0.5396,0.5596,0.6164,0.7265,0.823,0.8801,0.9941,1.0684,1.0684,1.0684,1.0684,1.0684,1.0684,1.0684,1.0684,1.0684,1.0684,1.0684,1.0684,1.0684,1.0684,1.0684,1.0697,1.0649,1.0649,1.067,1.0684,1.0684,1.0684,1.0684,1.0684,1.0684,1.0684,1.0684,1.0684,1.0684,1.0684,1.0684,1.0684,1.0684,1.0684,1.0684,1.0684,1.0752,1.084,1.084,1.084,1.084,1.084,1.0941,1.1063,1.1084,1.1097,1.1104,1.1186,1.12,1.12,1.12,1.1281,1.1348,1.145,1.147,1.147,1.147,1.147,1.1661,1.2308,1.193,1.1773,1.2388,1.4121,1.5274,1.5274,1.7493,1.953,2.0859,2.0997,2.1527,2.2791,2.2893,2.2893,2.2893,2.2893,2.2893,2.2893,2.2893,2.2893,2.2893,2.2893,2.3,2.318,2.3487,2.3888,2.4369,2.4519,2.4599,2.4599,2.4599,2.4599,2.4599,2.4599,2.4599,2.4599,2.4599,2.4599,2.4599,2.4599,2.4599,2.4599,0.3387,0.3387,0.3387,0.3387,0.3387,0.3387,0.3387,0.3387,0.3622,0.4292,0.593,0.7265,0.7931,0.9609,1.0684,1.0684,1.0684,1.0684,1.0684,1.0684,1.0684,1.0684,1.0684,1.0684,1.0684,1.0684,1.0684,1.0684,1.0684,1.0684,1.0684,1.0684,1.0684,1.0684,1.0684,1.0684,1.0684,1.0684,1.0684,1.0684,1.0684,1.0684,1.0684,1.0684,1.0684,1.0684,1.0684,1.0725,1.0772,1.0772,1.0874,1.0995,1.0995,1.1036,1.107,1.105,1.109,1.1206,1.1268,1.1281,1.1295,1.1356,1.1335,1.1335,1.1335,1.1409,1.1504,1.1563,1.1584,1.1584,1.1584,1.1584,1.1584,1.1584,1.1584,1.1584,1.1584,1.3202,1.4397,1.4397,1.6685,1.8764,1.9982,2.0721,2.1631,2.2791,2.2893,2.2893,2.2893,2.2893,2.2893,2.2893,2.2893,2.2893,2.2893,2.2893,2.302,2.3292,2.3741,2.4182,2.4599,2.4599,2.4599,2.4599,2.4599,2.4599,2.4599,2.4599,2.4599,2.4599,2.4599,2.4599,2.4599,2.4599,2.4599,2.4599,0.0,0.0,0.0,0.0,0.0,0.0,0.0,0.0,0.0606,0.2283,0.4091,0.583,0.7464,0.9338,1.0518,1.0518,1.0618,1.0684,1.0684,1.0684,1.0684,1.0684,1.0684,1.0684,1.0684,1.0684,1.0684,1.0684,1.0684,1.0684,1.0684,1.0684,1.0684,1.0684,1.0684,1.0684,1.0684,1.0684,1.0684,1.0684,1.0684,1.0684,1.0691,1.0698,1.0704,1.0704,1.0744,1.0806,1.0928,1.0928,1.1056,1.1213,1.1213,1.1322,1.1375,1.1261,1.122,1.1261,1.1369,1.1409,1.1443,1.1586,1.1584,1.1584,1.1584,1.1584,1.1584,1.1584,1.1584,1.1584,1.1584,1.1584,1.1584,1.1584,1.1584,1.1584,1.1584,1.3095,1.4219,1.4219,1.7458,1.9773,1.9877,2.1596,2.2756,2.2893,2.2893,2.2893,2.2893,2.2893,2.2893,2.2893,2.2893,2.2893,2.2893,2.292,2.306,2.3359,2.3968,2.4382,2.4599,2.4599,2.4599,2.4599,2.4599,2.4599,2.4599,2.4599,2.4599,2.4599,2.4599,2.4599,2.4599,2.4599,2.4599,2.4599,0.0,0.0,0.0,0.0,0.0,0.0,0.0,0.0,0.0168,0.0572,0.2216,0.3488,0.3923,0.676,0.8634,0.8634,0.9915,1.0684,1.0684,1.0684,1.0684,1.0684,1.0684,1.0684,1.0684,1.0684,1.0684,1.0684,1.0684,1.0684,1.0684,1.0684,1.0684,1.0684,1.0684,1.0684,1.0684,1.0684,1.0684,1.0684,1.0684,1.0684,1.0698,1.0819,1.086,1.0874,1.1016,1.1118,1.1145,1.1145,1.1247,1.1335,1.1335,1.1443,1.1538,1.1382,1.1416,1.1518,1.1558,1.1565,1.1572,1.1577,1.1584,1.1584,1.1584,1.1584,1.1584,1.1584,1.1584,1.1584,1.1584,1.1584,1.1584,1.1584,1.1584,1.1584,1.1584,1.1972,1.2252,1.2252,1.4326,1.6298,1.7739,1.9634,2.1355,2.2791,2.2893,2.2893,2.2893,2.2893,2.2893,2.2893,2.2893,2.2893,2.2893,2.31,2.3474,2.3995,2.4319,2.4532,2.4599,2.4599,2.4599,2.4599,2.4599,2.4599,2.4599,2.4599,2.4599,2.4599,2.4599,2.4599,2.4599,2.4599,2.4599,2.4599,0.0,0.0,0.0,0.0,0.0,0.0,0.0,0.0,0.0,0.0,0.1579,0.2685,0.2685,0.586,0.7997,0.7997,0.9643,1.0684,1.0684,1.0684,1.0684,1.0684,1.0684,1.0684,1.0684,1.0684,1.0684,1.0684,1.0684,1.0684,1.0684,1.0684,1.0684,1.0684,1.0684,1.0684,1.0684,1.0684,1.0684,1.0724,1.0765,1.0792,1.0806,1.0955,1.105,1.1056,1.1166,1.124,1.1302,1.1302,1.1369,1.1497,1.1497,1.1552,1.1606,1.1518,1.1552,1.1584,1.1584,1.1584,1.1584,1.1584,1.1584,1.1584,1.1584,1.1584,1.1584,1.1584,1.1584,1.1584,1.1584,1.1584,1.1584,1.1584,1.1584,1.1584,1.1584,1.1584,1.1584,1.1584,1.4014,1.6087,1.7107,1.9739,2.1803,2.2825,2.2893,2.2893,2.2893,2.2893,2.2893,2.2893,2.2893,2.2893,2.2893,2.33,2.3754,2.4209,2.4466,2.4599,2.4599,2.4599,2.4599,2.4599,2.4599,2.4599,2.4599,2.4599,2.4599,2.4599,2.4599,2.4599,2.4599,2.4599,2.4599,2.4599,0.0,0.0,0.0,0.0,0.0,0.0,0.0,0.0,0.0,0.0,0.1344,0.2383,0.2685,0.5626,0.7698,0.7964,0.9643,1.0684,1.0684,1.0684,1.0684,1.0684,1.0684,1.0684,1.0684,1.0684,1.0684,1.0684,1.0684,1.0684,1.0684,1.0684,1.0684,1.0684,1.0684,1.0684,1.0691,1.0711,1.0725,1.0732,1.0887,1.0948,1.0961,1.1179,1.1234,1.1234,1.1261,1.1314,1.1423,1.1423,1.1511,1.1584,1.1584,1.1584,1.1584,1.1584,1.1584,1.1584,1.1584,1.1584,1.1584,1.1584,1.1584,1.1584,1.1584,1.1584,1.1584,1.1584,1.1584,1.1584,1.1584,1.1584,1.1584,1.1584,1.1584,1.1584,1.1584,1.1584,1.1584,1.1584,1.4654,1.6791,1.6791,1.9982,2.216,2.2482,2.2469,2.2619,2.2893,2.2893,2.2893,2.2893,2.2893,2.2934,2.3027,2.3589,2.3981,2.4275,2.4479,2.4599,2.4599,2.4599,2.4599,2.4599,2.4599,2.4599,2.4599,2.4599,2.4599,2.4599,2.4599,2.4599,2.4599,2.4599,2.4599,2.4613,0.0,0.0,0.0,0.0,0.0,0.0,0.0,0.0,0.0,0.0,0.0235,0.1009,0.2518,0.4559,0.6398,0.7864,0.9643,1.0684,1.0684,1.0684,1.0684,1.0684,1.0684,1.0684,1.0684,1.0684,1.0684,1.0684,1.0684,1.0684,1.0684,1.0684,1.0684,1.0684,1.0684,1.0684,1.0698,1.0826,1.088,1.0894,1.107,1.1166,1.1179,1.1301,1.1355,1.1369,1.1504,1.1565,1.1586,1.1586,1.1563,1.1584,1.1584,1.1584,1.1584,1.1584,1.1584,1.1584,1.1584,1.1584,1.1584,1.1584,1.1584,1.1584,1.1584,1.1584,1.1584,1.1584,1.1584,1.1584,1.1584,1.1584,1.1584,1.1584,1.1584,1.1584,1.1584,1.1584,1.1584,1.1584,1.3523,1.4822,1.4822,1.6826,1.8753,2.0409,2.0513,2.1217,2.2825,2.2893,2.2893,2.2893,2.2893,2.3148,2.3656,2.3968,2.4289,2.4532,2.4572,2.4599,2.4599,2.4599,2.4599,2.4599,2.4599,2.4599,2.4599,2.4599,2.4599,2.4599,2.4599,2.4599,2.4599,2.4599,2.4599,2.4639,0.0,0.0,0.0,0.0,0.0,0.0,0.0,0.0,0.0,0.0,0.0,0.0706,0.2518,0.4325,0.6097,0.7864,0.9643,1.0684,1.0684,1.0684,1.0684,1.0684,1.0684,1.0684,1.0684,1.0684,1.0684,1.0684,1.0684,1.0684,1.0684,1.0684,1.0684,1.0691,1.0772,1.0813,1.0819,1.1002,1.1063,1.1077,1.1226,1.1322,1.1301,1.1457,1.1511,1.1525,1.1592,1.1584,1.1584,1.1584,1.1584,1.1584,1.1584,1.1584,1.1584,1.1584,1.1584,1.1584,1.1584,1.1584,1.1584,1.1584,1.1584,1.1584,1.1584,1.1584,1.1584,1.1584,1.1584,1.1584,1.1584,1.1584,1.1584,1.1584,1.1584,1.1584,1.1584,1.1584,1.1584,1.1584,1.3274,1.4397,1.4397,1.6087,1.7564,1.8473,1.9495,2.0479,2.1355,2.2332,2.2893,2.2893,2.3033,2.3327,2.3803,2.4062,2.4342,2.4599,2.4599,2.4599,2.4599,2.4599,2.4599,2.4599,2.4599,2.4599,2.4599,2.4599,2.4599,2.4599,2.4599,2.4599,2.4599,2.4599,2.4599,2.4639,0.0,0.0,0.0,0.0,0.0,0.0,0.0,0.0,0.0,0.0,0.0,0.0848,0.3115,0.4603,0.6324,0.8549,1.0009,1.0826,1.0826,1.0826,1.0792,1.0691,1.0684,1.0684,1.0684,1.0684,1.0684,1.0684,1.0684,1.0704,1.0738,1.0738,1.0759,1.0826,1.0914,1.0961,1.0975,1.1151,1.1247,1.1261,1.1382,1.1443,1.1457,1.1572,1.1584,1.1584,1.1584,1.1584,1.1584,1.1584,1.1584,1.1584,1.1584,1.1584,1.1584,1.1584,1.1584,1.1584,1.1584,1.1584,1.1584,1.1584,1.1584,1.1584,1.1584,1.1584,1.1584,1.1584,1.1584,1.1584,1.1584,1.1584,1.1584,1.1584,1.1584,1.1584,1.1584,1.1584,1.1584,1.1584,1.2888,1.3765,1.3765,1.5035,1.6096,1.6509,1.8334,1.9634,2.0097,2.1872,2.2934,2.3,2.3273,2.3567,2.391,2.4155,2.4422,2.4599,2.4599,2.4599,2.4599,2.4599,2.4599,2.4599,2.4599,2.4599,2.4599,2.4599,2.4599,2.4599,2.4599,2.4599,2.4599,2.4599,2.4599,2.4653,0.0,0.0,0.0,0.0,0.0,0.0,0.0,0.0,0.0,0.0,0.0,0.1362,0.4976,0.5497,0.7022,1.0642,1.1097,1.1166,1.1166,1.1166,1.1009,1.0698,1.0684,1.0684,1.0684,1.0684,1.0684,1.0684,1.0684,1.0759,1.0894,1.0894,1.0968,1.1166,1.1172,1.1179,1.1193,1.1342,1.1375,1.1389,1.1538,1.1599,1.1606,1.1613,1.1584,1.1584,1.1584,1.1584,1.1584,1.1584,1.1584,1.1584,1.1584,1.1584,1.1584,1.1584,1.1584,1.1584,1.1584,1.1584,1.1584,1.1584,1.1584,1.1584,1.1584,1.1584,1.1584,1.1584,1.1584,1.1584,1.1584,1.1584,1.1584,1.1584,1.1584,1.1584,1.1584,1.1584,1.1584,1.1584,1.1727,1.1792,1.1792,1.1936,1.2745,1.4468,1.6333,1.8194,1.9982,2.1872,2.2993,2.3252,2.3581,2.3875,2.4168,2.4426,2.4572,2.4599,2.4599,2.4599,2.4599,2.4599,2.4599,2.4599,2.4599,2.4599,2.4599,2.4599,2.4599,2.4599,2.4599,2.4599,2.4599,2.4599,2.4599,2.4679,0.0,0.0,0.0,0.0,0.0,0.0,0.0,0.0,0.0421,0.1646,0.1786,0.3217,0.6979,0.7395,0.8441,1.0986,1.12,1.12,1.12,1.12,1.1145,1.1036,1.0995,1.0995,1.0995,1.0995,1.0995,1.0995,1.0995,1.1023,1.1084,1.1084,1.1145,1.12,1.1295,1.1307,1.1314,1.147,1.1531,1.1538,1.1599,1.1584,1.1584,1.1584,1.1584,1.1584,1.1584,1.1584,1.1584,1.1584,1.1584,1.1584,1.1584,1.1584,1.1584,1.1584,1.1584,1.1584,1.1584,1.1584,1.1584,1.1584,1.1584,1.1584,1.1584,1.1584,1.1584,1.1584,1.1584,1.1584,1.1584,1.1584,1.1584,1.1584,1.1584,1.1584,1.1584,1.1584,1.1584,1.1584,1.1584,1.1584,1.1584,1.1584,1.19,1.2602,1.4397,1.6298,1.8194,2.1378,2.338,2.3861,2.3981,2.4088,2.4209,2.4452,2.4599,2.4599,2.4599,2.4599,2.4599,2.4599,2.4599,2.4599,2.4599,2.4599,2.4599,2.4599,2.4599,2.4599,2.4599,2.4599,2.4599,2.4599,2.4719,2.497,0.0,0.0,0.0,0.0,0.0,0.0,0.0,0.0,0.071,0.2657,0.2904,0.4352,0.8158,0.8549,0.9321,1.1161,1.1342,1.1342,1.1342,1.1342,1.1295,1.12,1.12,1.12,1.12,1.12,1.12,1.12,1.12,1.122,1.1268,1.1268,1.1295,1.1342,1.1416,1.1463,1.147,1.1572,1.1584,1.1584,1.1584,1.1584,1.1584,1.1584,1.1584,1.1584,1.1584,1.1584,1.1584,1.1584,1.1584,1.1584,1.1584,1.1584,1.1584,1.1584,1.1584,1.1584,1.1584,1.1584,1.1584,1.1584,1.1584,1.1584,1.1584,1.1584,1.1584,1.1584,1.1584,1.1584,1.1584,1.1584,1.1584,1.1584,1.1584,1.1584,1.1584,1.1584,1.1584,1.1584,1.1584,1.1584,1.1584,1.1584,1.1584,1.1584,1.3345,1.5513,1.8089,2.1654,2.3781,2.4195,2.4289,2.4342,2.4342,2.4492,2.4599,2.4599,2.4599,2.4599,2.4599,2.4599,2.4599,2.4599,2.4599,2.4599,2.4599,2.4599,2.4599,2.4599,2.4599,2.4599,2.4599,2.4599,2.4823,2.5117,0.0,0.0,0.0,0.0,0.0,0.0,0.0,0.0,0.0693,0.2654,0.2909,0.4392,0.8302,0.8739,0.9502,1.1433,1.1584,1.1584,1.1584,1.1584,1.1484,1.1213,1.12,1.12,1.12,1.12,1.12,1.12,1.12,1.1281,1.1396,1.1396,1.147,1.1584,1.1584,1.1584,1.1584,1.1584,1.1584,1.1584,1.1584,1.1584,1.1584,1.1584,1.1584,1.1584,1.1584,1.1584,1.1584,1.1584,1.1584,1.1584,1.1584,1.1584,1.1584,1.1584,1.1584,1.1584,1.1584,1.1584,1.1584,1.1584,1.1584,1.1584,1.1584,1.1584,1.1584,1.1584,1.1584,1.1584,1.1584,1.1584,1.1584,1.1584,1.1584,1.1584,1.1584,1.1584,1.1584,1.1584,1.1584,1.1584,1.1584,1.1584,1.1584,1.1584,1.3345,1.6216,2.0285,2.2844,2.4209,2.4209,2.4452,2.4599,2.4599,2.4599,2.4599,2.4599,2.4599,2.4599,2.4599,2.4599,2.4599,2.4599,2.4599,2.4599,2.4599,2.4599,2.4599,2.4599,2.4599,2.4599,2.4599,2.4599,2.4823,2.5117,0.0,0.0,0.0,0.0,0.0,0.0,0.0,0.0,0.1202,0.4504,0.4939,0.6423,1.0305,1.0743,1.0959,1.1548,1.1584,1.1584,1.1584,1.1584,1.1543,1.1491,1.1484,1.1484,1.1484,1.1484,1.1484,1.1484,1.1484,1.1504,1.1552,1.1552,1.1572,1.1584,1.1584,1.1584,1.1584,1.1584,1.1584,1.1584,1.1584,1.1584,1.1584,1.1584,1.1584,1.1584,1.1584,1.1584,1.1584,1.1584,1.1584,1.1584,1.1584,1.1584,1.1584,1.1584,1.1584,1.1584,1.1584,1.1584,1.1584,1.1584,1.1584,1.1584,1.1584,1.1584,1.1584,1.1584,1.1584,1.1584,1.1584,1.1584,1.1584,1.1584,1.1584,1.1584,1.1584,1.1584,1.1584,1.1584,1.1584,1.1584,1.1584,1.1584,1.1624,1.1726,1.4926,1.7468,1.8858,2.2274,2.4302,2.4466,2.4559,2.4599,2.4599,2.4599,2.4599,2.4599,2.4599,2.4599,2.4599,2.4599,2.4599,2.4599,2.4599,2.4599,2.4599,2.4599,2.4599,2.4599,2.4599,2.4599,2.4599,2.4599,2.4919,2.5398,0.0,0.0,0.0,0.0,0.0,0.0,0.0,0.0656,0.2256,0.5373,0.646,0.8126,1.1253,1.1584,1.1584,1.1584,1.1584,1.1584,1.1584,1.1584,1.1584,1.1584,1.1584,1.1584,1.1584,1.1584,1.1584,1.1584,1.1584,1.1584,1.1584,1.1584,1.1584,1.1584,1.1584,1.1584,1.1584,1.1584,1.1584,1.1584,1.1584,1.1584,1.1584,1.1584,1.1584,1.1584,1.1584,1.1584,1.1584,1.1584,1.1584,1.1584,1.1584,1.1584,1.1584,1.1584,1.1584,1.1584,1.1584,1.1584,1.1584,1.1584,1.1584,1.1584,1.1584,1.1584,1.1584,1.1584,1.1584,1.1584,1.1584,1.1584,1.1584,1.1584,1.1584,1.1584,1.1584,1.1584,1.1584,1.1584,1.1631,1.1665,1.1665,1.1762,1.183,1.1918,1.5718,1.8124,1.8293,2.2166,2.4412,2.4586,2.4599,2.4599,2.4599,2.4599,2.4599,2.4599,2.4599,2.4599,2.4599,2.4599,2.4599,2.4599,2.4599,2.4599,2.4599,2.4599,2.4599,2.4599,2.4599,2.4599,2.4613,2.4733,2.5104,2.5531,0.0,0.0,0.0,0.0,0.0,0.0073,0.0219,0.1748,0.3669,0.5772,0.7616,0.943,1.1397,1.1584,1.1584,1.1584,1.1584,1.1584,1.1584,1.1584,1.1584,1.1584,1.1584,1.1584,1.1584,1.1584,1.1584,1.1584,1.1584,1.1584,1.1584,1.1584,1.1584,1.1584,1.1584,1.1584,1.1584,1.1584,1.1584,1.1584,1.1584,1.1584,1.1584,1.1584,1.1584,1.1584,1.1584,1.1584,1.1584,1.1584,1.1584,1.1584,1.1584,1.1584,1.1584,1.1584,1.1584,1.1584,1.1584,1.1584,1.1584,1.1584,1.1584,1.1584,1.1584,1.1584,1.1584,1.1584,1.1584,1.1584,1.1584,1.1584,1.1584,1.1584,1.1597,1.1604,1.1604,1.1611,1.1624,1.1624,1.1739,1.1813,1.1813,1.1993,1.2118,1.2118,1.5959,1.8333,1.8333,2.2288,2.4599,2.4599,2.4599,2.4599,2.4599,2.4599,2.4599,2.4599,2.4599,2.4599,2.4599,2.4599,2.4599,2.4599,2.4599,2.4599,2.4599,2.4599,2.4599,2.4599,2.4599,2.4599,2.4639,2.497,2.5264,2.5558,0.0,0.0,0.0,0.0,0.0,0.051,0.2037,0.2618,0.4141,0.7616,0.8451,0.943,1.1397,1.1584,1.1584,1.1584,1.1584,1.1584,1.1584,1.1584,1.1584,1.1584,1.1584,1.1584,1.1584,1.1584,1.1584,1.1584,1.1584,1.1584,1.1584,1.1584,1.1584,1.1584,1.1584,1.1584,1.1584,1.1584,1.1584,1.1584,1.1584,1.1584,1.1584,1.1584,1.1584,1.1584,1.1584,1.1584,1.1584,1.1584,1.1584,1.1584,1.1584,1.1584,1.1584,1.1584,1.1584,1.1584,1.1584,1.1584,1.1584,1.1584,1.1584,1.1584,1.1584,1.1584,1.1584,1.1584,1.1584,1.1584,1.1584,1.1584,1.1584,1.1584,1.1678,1.1746,1.1746,1.1891,1.2002,1.2002,1.203,1.2013,1.2013,1.2149,1.2244,1.2244,1.6164,1.8529,1.8529,2.2398,2.4599,2.4599,2.4599,2.4599,2.4599,2.4599,2.4599,2.4599,2.4599,2.4599,2.4599,2.4599,2.4599,2.4599,2.4599,2.4599,2.4599,2.4599,2.4599,2.4599,2.4599,2.4599,2.4639,2.497,2.5264,2.5585,0.0,0.0,0.0,0.0,0.0,0.0656,0.2618,0.3669,0.5337,0.8307,0.9502,1.0485,1.1476,1.1584,1.1584,1.1584,1.1584,1.1584,1.1584,1.1584,1.1584,1.1584,1.1584,1.1584,1.1584,1.1584,1.1584,1.1584,1.1584,1.1584,1.1584,1.1584,1.1584,1.1584,1.1584,1.1584,1.1584,1.1584,1.1584,1.1584,1.1584,1.1584,1.1584,1.1584,1.1584,1.1584,1.1584,1.1584,1.1584,1.1584,1.1584,1.1584,1.1584,1.1584,1.1584,1.1584,1.1584,1.1584,1.1584,1.1584,1.1584,1.1584,1.1638,1.1665,1.1597,1.1584,1.1584,1.1584,1.1638,1.1685,1.1685,1.1782,1.183,1.183,1.1891,1.1938,1.1938,1.205,1.2098,1.2098,1.2166,1.2234,1.2264,1.2345,1.2393,1.2393,1.6241,1.861,1.861,2.2397,2.4599,2.4599,2.4599,2.4599,2.4599,2.4599,2.4599,2.4599,2.4599,2.4599,2.4599,2.4599,2.4599,2.4599,2.4599,2.4599,2.4599,2.4599,2.4599,2.4599,2.4599,2.4599,2.4653,2.513,2.5558,2.5972,0.0,0.0,0.0,0.0,0.0292,0.1166,0.309,0.5047,0.7002,0.8956,1.0593,1.1584,1.1584,1.1584,1.1584,1.1584,1.1584,1.1584,1.1584,1.1584,1.1584,1.1584,1.1584,1.1584,1.1584,1.1584,1.1584,1.1584,1.1584,1.1584,1.1584,1.1584,1.1584,1.1584,1.1584,1.1584,1.1584,1.1584,1.1584,1.1584,1.1584,1.1584,1.1584,1.1584,1.1584,1.1584,1.1584,1.1584,1.1584,1.1584,1.1584,1.1584,1.1584,1.1584,1.1584,1.1584,1.1584,1.1584,1.1584,1.164,1.1617,1.1617,1.1726,1.18,1.1721,1.1694,1.1694,1.1694,1.1753,1.1834,1.1834,1.1972,1.2098,1.2098,1.2118,1.2139,1.2139,1.2159,1.2173,1.2173,1.2288,1.2372,1.2488,1.2501,1.2501,1.2501,1.6303,1.861,1.861,2.2397,2.4599,2.4599,2.4599,2.4599,2.4599,2.4599,2.4599,2.4599,2.4599,2.4599,2.4599,2.4599,2.4599,2.4599,2.4599,2.4599,2.4599,2.4599,2.4599,2.4599,2.4599,2.4599,2.4666,2.5291,2.5879,2.6386,0.0,0.0,0.0,0.0,0.1384,0.3163,0.512,0.7074,0.8997,1.0959,1.144,1.1584,1.1584,1.1584,1.1584,1.1584,1.1584,1.1584,1.1584,1.1584,1.1584,1.1584,1.1584,1.1584,1.1584,1.1584,1.1584,1.1584,1.1584,1.1584,1.1584,1.1584,1.1584,1.1584,1.1584,1.1584,1.1584,1.1584,1.1584,1.1584,1.1584,1.1584,1.1584,1.1584,1.1584,1.1584,1.1584,1.1584,1.1584,1.1584,1.1584,1.1584,1.1584,1.1584,1.1584,1.1584,1.1584,1.1584,1.1584,1.1671,1.1766,1.1766,1.1918,1.2064,1.2043,1.2036,1.2036,1.2036,1.2057,1.207,1.207,1.2084,1.2098,1.2098,1.2213,1.2257,1.2257,1.2366,1.244,1.244,1.2461,1.2481,1.2501,1.2501,1.2501,1.2501,1.6303,1.861,1.861,2.2397,2.4599,2.4599,2.4599,2.4599,2.4599,2.4599,2.4599,2.4599,2.4599,2.4599,2.4599,2.4599,2.4599,2.4599,2.4599,2.4599,2.4599,2.4599,2.4599,2.4599,2.4599,2.4599,2.4666,2.5291,2.5879,2.6386,0.0,0.0,0.0,0.0,0.1602,0.356,0.5518,0.7436,0.9394,1.1361,1.1584,1.1584,1.1584,1.1584,1.1584,1.1584,1.1584,1.1584,1.1584,1.1584,1.1584,1.1584,1.1584,1.1584,1.1584,1.1584,1.1584,1.1584,1.1584,1.1584,1.1584,1.1584,1.1584,1.1584,1.1584,1.1584,1.1584,1.1584,1.1584,1.1584,1.1584,1.1584,1.1584,1.1584,1.1584,1.1584,1.1584,1.1584,1.1584,1.1584,1.1584,1.1584,1.1584,1.1584,1.1597,1.1678,1.1698,1.1755,1.1843,1.1911,1.1959,1.1959,1.2074,1.2227,1.2227,1.2288,1.2302,1.2132,1.2166,1.2227,1.2227,1.225,1.2311,1.2311,1.2366,1.2406,1.2406,1.2461,1.2501,1.2501,1.2501,1.2501,1.2501,1.2501,1.2501,1.2501,1.5195,1.7398,1.8534,2.134,2.3463,2.4562,2.4599,2.4599,2.4599,2.4599,2.4599,2.4599,2.4599,2.4599,2.4599,2.4599,2.4599,2.4599,2.4599,2.4599,2.4599,2.4599,2.4599,2.4599,2.4599,2.4799,2.5157,2.5411,2.5879,2.6386]},{"header":{"parameterUnit":"m.s-1","parameterCategory":1,"la1":30.6,"la2":28.766,"lo1":-90.7593,"lo2":-88.6598,"dy":0.0162,"dx":0.0183,"nx":116,"ny":114,"refTime":"2023-09-17T00:00:00:Z","depth":0,"parameterNumber":3,"parameterNumberName":"V-component_of_WINDS"},"data":[0.0,0.0,0.0,0.0,0.0,0.0,0.0,0.0,0.0,0.0,0.0,0.0,0.0,0.0,0.0,0.0,0.0,0.0,0.0,0.0,0.0,0.0,0.0,0.0,0.0,0.0,0.0,0.0,0.0,0.0,0.0,0.0,0.0,0.0,0.0,0.0,0.0,0.0,0.0,0.0,0.0,0.0,0.0,0.0,0.0,0.0,0.0,0.0,0.0,0.0,0.0,0.0,0.0,0.0,0.0,0.0,0.0,0.0,0.0,0.0,0.0,0.0,0.0,0.0,0.0,0.0,0.0,0.0,0.0,0.0,0.0,0.0,0.0,0.0,0.0,0.0,0.0,0.0,0.0,0.0,0.0,0.0,0.0,0.0,0.0,0.0,0.0,0.0,0.0,0.0,0.0,0.0,0.0,0.0,0.0,0.0,0.0,0.0,0.0,0.0,0.0,0.0,0.0,0.0,0.0,0.0,0.0,0.0,0.0,0.0,0.0,0.0,0.0,0.0,0.0,0.0,0.0,0.0,0.0,0.0,0.0,0.0,0.0,0.0,0.0,0.0,0.0,0.0,0.0,0.0,0.0,0.0,0.0,0.0,0.0,0.0,0.0,0.0,0.0,0.0,0.0,0.0,0.0,0.0,0.0,0.0,0.0,0.0,0.0,0.0,0.0,0.0,0.0,0.0,0.0,0.0,0.0,0.0,0.0,0.0,0.0,0.0,0.0,0.0,0.0,0.0,0.0,0.0,0.0,0.0,0.0,0.0,0.0,0.0,0.0,0.0,0.0,0.0,0.0,0.0,0.0,0.0,0.0,0.0,0.0,0.0,0.0,0.0,0.0,0.0,0.0,0.0,0.0,0.0,0.0,0.0,0.0,0.0,0.0,0.0,0.0,0.0,0.0,0.0,0.0,0.0,0.0,0.0,0.0,0.0,0.0,0.0,0.0,0.0,0.0,0.0,0.0,0.0,0.0,0.0,0.0,0.0,0.0,0.0,0.0,0.0,0.0,0.0,0.0,0.0,0.0,0.0,0.0,0.0,0.0,0.0,0.0,0.0,0.0,0.0,0.0,0.0,0.0,0.0,0.0,0.0,0.0,0.0,0.0,0.0,0.0,0.0,0.0,0.0,0.0,0.0,0.0,0.0,0.0,0.0,0.0,0.0,0.0,0.0,0.0,0.0,0.0,0.0,0.0,0.0,0.0,0.0,0.0,0.0,0.0,0.0,0.0,0.0,0.0,0.0,0.0,0.0,0.0,0.0,0.0,0.0,0.0,0.0,0.0,0.0,0.0,0.0,0.0,0.0,0.0,0.0,0.0,0.0,0.0,0.0,0.0,0.0,0.0,0.0,0.0,0.0,0.0,0.0,0.0,0.0,0.0,0.0,0.0,0.0,0.0,0.0,0.0,0.0,0.0,0.0,0.0,0.0,0.0,0.0,0.0,0.0,0.0,0.0,0.0,0.0,0.0,0.0,0.0,0.0,0.0,0.0,0.0,0.0,0.0,0.0,0.0,0.0,0.0,0.0,0.0,0.0,0.0,0.0,0.0,0.0,0.0,0.0,0.0,0.0,0.0,0.0,0.0,0.0,0.0,0.0,0.0,0.0,0.0,0.0,0.0,0.0,0.0,0.0,0.0,0.0,0.0,0.0,0.0,0.0,0.0,0.0,0.0,0.0,0.0,0.0,0.0,0.0,0.0,0.0,0.0,0.0,0.0,0.0,0.0,0.0,0.0,0.0,0.0,0.0,0.0,0.0,0.0,0.0,0.0,0.0,0.0,0.0,0.0,0.0,0.0,0.0,0.0,0.0,0.0,0.0,0.0,0.0,0.0,0.0,0.0,0.0,0.0,0.0,0.0,0.0,0.0,0.0,0.0,0.0,0.0,0.0,0.0,0.0,0.0,0.0,0.0,0.0,0.0,0.0,0.0,0.0,0.0,0.0,0.0,0.0,0.0,0.0,0.0,0.0,0.0,0.0,0.0,0.0,0.0,0.0,0.0,0.0,0.0,0.0,0.0,0.0,0.0,0.0,0.0,0.0,0.0,0.0,0.0,0.0,0.0,0.0,0.0,0.0,0.0,0.0,0.0,0.0,0.0,0.0,0.0,0.0,0.0,0.0,0.0,0.0,0.0,0.0,0.0,0.0,0.0,0.0,0.0,0.0,0.0,0.0,0.0,0.0,0.0,0.0,0.0,0.0,0.0,0.0,0.0,0.0,0.0,0.0,0.0,0.0,0.0,0.0,0.0,0.0,0.0,0.0,0.0,0.0,0.0,0.0,0.0,0.0,0.0,0.0,0.0,0.0,0.0,0.0,0.0,0.0,0.0,0.0,0.0,0.0,0.0,0.0,0.0,0.0,0.0,0.0,0.0,0.0,0.0,0.0,0.0,0.0,0.0,0.0,0.0,0.0,0.0,0.0,0.0,0.0,0.0,0.0,0.0,0.0,0.0,0.0,0.0,0.0,0.0,0.0,0.0,0.0,0.0,0.0,0.0,0.0,0.0,0.0,0.0,0.0,0.0,0.0,0.0,0.0,0.0,0.0,0.0,0.0,0.0,0.0,0.0,0.0,0.0,0.0,0.0,0.0,0.0,0.0,0.0,0.0,0.0,0.0,0.0,0.0,0.0,0.0,0.0,0.0,0.0,0.0,0.0,0.0,0.0,0.0,0.0,0.0,0.0,0.0,0.0,0.0,0.0,0.0,0.0,0.0,0.0,0.0,0.0,0.0,0.0,0.0,0.0,0.0,0.0,0.0,0.0,0.0,0.0,0.0,0.0,0.0,0.0,0.0,0.0,0.0,0.0,0.0,0.0,0.0,0.0,0.0,0.0,0.0,0.0,0.0,0.0,0.0,0.0,0.0,0.0,0.0,0.0,0.0,0.0,0.0,0.0,0.0,0.0,0.0,0.0,0.0,0.0,0.0,0.0,0.0,0.0,0.0,0.0,0.0,0.0,0.0,0.0,0.0,0.0,0.0,0.0,0.0,0.0,0.0,0.0,0.0,0.0,0.0,0.0,0.0,0.0,0.0,0.0,0.0,0.0,0.0,0.0,0.0,0.0,0.0,0.0,0.0,0.0,0.0,0.0,0.0,0.0,0.0,0.0,0.0,0.0,0.0,0.0,0.0,0.0,0.0,0.0,0.0,0.0,0.0,0.0,0.0,0.0,0.0,0.0,0.0,0.0,0.0,0.0,0.0,0.0,0.0,0.0,0.0,0.0,0.0,0.0,0.0,0.0,0.0,0.0,0.0,0.0,0.0,0.0,0.0,0.0,0.0,0.0,0.0,0.0,0.0,0.0,0.0,0.0,0.0,0.0,0.0,0.0,0.0,0.0,0.0,0.0,0.0,0.0,0.0,0.0,0.0,0.0,0.0,0.0,0.0,0.0,0.0,0.0,0.0,0.0,0.0,0.0,0.0,0.0,0.0,0.0,0.0,0.0,0.0,0.0,0.0,0.0,0.0,0.0,0.0,0.0,0.0,0.0,0.0,0.0,0.0,0.0,0.0,0.0,0.0,0.0,0.0,0.0,0.0,0.0,0.0,0.0,0.0,0.0,0.0,0.0,0.0,0.0,0.0,0.0,0.0,0.0,0.0,0.0,0.0,0.0,0.0,0.0,0.0,0.0,0.0,0.0,0.0,0.0,0.0,0.0,0.0,0.0,0.0,0.0,0.0,0.0,0.0,0.0,0.0,0.0,0.0,0.0,0.0,0.0,0.0,0.0,0.0,0.0,0.0,0.0,0.0,0.0,0.0,0.0,0.0,0.0,0.0,0.0,0.0,0.0,0.0,0.0,0.0,0.0,0.0,0.0,0.0,0.0,0.0,0.0,0.0,0.0,0.0,0.0,0.0,0.0,0.0,0.0,0.0,0.0,0.0,0.0,0.0,0.0,0.0,0.0,0.0,0.0,0.0,0.0,0.0,0.0,0.0,0.0,0.0,0.0,0.0,0.0,0.0,0.0,0.0,0.0,0.0,0.0,0.0,0.0,0.0,0.0,0.0,0.0,0.0,0.0,0.0,0.0,0.0,0.0,0.0,0.0,0.0,0.0,0.0,0.0,0.0,0.0,0.0,0.0,0.0,0.0,0.0,0.0,0.0,0.0,0.0,0.0,0.0,0.0,0.0,0.0,0.0,0.0,0.0,0.0,0.0,0.0,0.0,0.0,0.0,0.0,0.0,0.0,0.0,0.0,0.0,0.0,0.0,0.0,0.0,0.0,0.0,0.0,0.0,0.0,0.0,0.0,0.0,0.0,0.0,0.0,0.0,0.0,0.0,0.0,0.0,0.0,0.0,0.0,0.0,0.0,0.0,0.0,0.0,0.0,0.0,0.0,0.0,0.0,0.0,0.0,0.0,0.0,0.0,0.0,0.0,0.0,0.0,0.0,0.0,0.0,0.0,0.0,0.0,0.0,0.0,0.0,0.0,0.0,0.0,0.0,0.0,0.0,0.0,0.0,0.0,0.0,0.0,0.0,0.0,0.0,0.0,0.0,0.0,0.0,0.0,0.0,0.0,0.0,0.0,0.0,0.0,0.0,0.0,0.0,0.0,0.0,0.0,0.0,0.0,0.0,0.0,0.0,0.0,0.0,0.0,0.0,0.0,0.0,0.0,0.0,0.0,0.0,0.0,0.0,0.0,0.0,0.0,0.0,0.0,0.0,0.0,0.0,0.0,0.0,0.0,0.0,0.0,0.0,0.0,0.0,0.0,0.0,0.0,0.0,0.0,0.0,0.0,0.0,0.0,0.0,0.0,0.0,0.0,0.0,0.0,0.0,0.0,0.0,0.0,0.0,0.0,0.0,0.0,0.0,0.0,0.0,0.0,0.0,0.0,0.0,0.0,0.0,0.0,0.0,0.0,0.0,0.0,0.0,0.0,0.0,0.0,0.0,0.0,0.0,0.0,0.0,0.0,0.0,0.0,0.0,0.0,0.0,0.0,0.0,0.0,0.0,0.0,0.0,0.0,0.0,0.0,0.0,0.0,0.0,0.0,0.0,0.0,0.0,0.0,0.0,0.0,0.0,0.0,0.0,0.0,0.0,0.0,0.0,0.0,0.0,0.0,0.0,0.0,0.0,0.0,0.0,0.0,0.0,0.0,0.0,0.0,0.0,0.0,0.0,0.0,0.0,0.0,0.0,0.0,0.0,0.0,0.0,0.0,0.0,0.0,0.0,0.0,0.0,0.0,0.0,0.0,0.0,0.0,0.0,0.0,0.0,0.0,0.0,0.0,0.0,0.0,0.0,0.0,0.0,0.0,0.0,0.0,0.0,0.0,0.0,0.0,0.0,0.0,0.0,0.0,0.0,0.0,0.0,0.0,0.0,0.0,0.0,0.0,0.0,0.0,0.0,0.0,0.0,0.0,0.0,0.0,0.0,0.0,0.0,0.0,0.0,0.0,0.0,0.0,0.0,0.0,0.0,0.0,0.0,0.0,0.0,0.0,0.0,0.0,0.0,0.0,0.0,0.0,0.0,0.0,0.0,0.0,0.0,0.0,0.0,0.0,0.0,0.0,0.0,0.0,0.0,0.0,0.0,0.0,0.0,0.0,0.0,0.0,0.0,0.0,0.0,0.0,0.0,0.0,0.0,0.0,0.0,0.0,0.0,0.0,0.0,0.0,0.0,0.0,0.0,0.0,0.0,0.0,0.0,0.0,0.0,0.0,0.0,0.0,0.0,0.0,0.0,0.0,0.0,0.0,0.0,0.0,0.0,0.0,0.0,0.0,0.0,0.0,0.0,0.0,0.0,0.0,0.0,0.0,0.0,0.0,0.0,0.0,0.0,0.0,0.0,0.0,0.0,0.0,0.0,0.0,0.0,0.0,0.0,0.0,0.0,0.0,0.0,0.0,0.0,0.0,0.0,0.0,0.0,0.0,0.0,0.0,0.0,0.0,0.0,0.0,0.0,0.0,0.0,0.0,0.0,0.0,0.0,0.0,0.0,0.0,0.0,0.0,0.0,0.0,0.0,0.0,0.0,0.0,0.0,0.0,0.0,0.0,0.0,0.0,0.0,0.0,0.0,0.0,0.0,0.0,0.0,0.0,0.0,0.0,0.0,0.0,0.0,0.0,0.0,0.0,0.0,0.0,0.0,0.0,0.0,0.0,3.2974,3.2311,0.0,0.0,0.0,0.0,0.0,0.0,0.0,0.0,0.0,0.0,0.0,0.0,0.0,0.0,0.0,0.0,0.0,0.0,0.0,0.0,0.0,0.0,0.0,0.0,0.0,0.0,0.0,0.0,0.0,0.0,0.0,0.0,0.0,0.0,0.0,0.0,0.0,3.2004,3.2165,3.2373,3.2545,3.1935,3.1414,3.103,0.0,0.0,0.0,0.0,0.0,0.0,0.0,0.0,0.0,0.0,0.0,0.0,0.0,0.0,0.0,0.0,0.0,0.0,0.0,0.0,0.0,0.0,0.0,0.0,0.0,0.0,0.0,0.0,0.0,0.0,0.0,0.0,0.0,0.0,0.0,0.0,0.0,0.0,0.0,0.0,0.0,0.0,0.0,0.0,0.0,0.0,0.0,0.0,0.0,0.0,0.0,0.0,0.0,0.0,0.0,0.0,0.0,0.0,0.0,0.0,0.0,0.0,0.0,0.0,0.0,0.0,0.0,0.0,0.0,0.0,3.3976,3.3261,0.0,0.0,0.0,0.0,0.0,0.0,0.0,0.0,0.0,0.0,0.0,0.0,0.0,0.0,0.0,0.0,0.0,0.0,0.0,0.0,0.0,0.0,0.0,2.8981,2.906,2.9207,2.9207,2.9393,0.0,0.0,0.0,0.0,0.0,0.0,0.0,3.2809,3.3029,3.3502,3.369,3.3726,3.377,3.4073,3.3601,3.245,3.2336,0.0,0.0,0.0,0.0,0.0,0.0,0.0,0.0,0.0,0.0,0.0,0.0,0.0,0.0,0.0,0.0,0.0,0.0,0.0,0.0,0.0,0.0,0.0,0.0,0.0,0.0,0.0,0.0,0.0,0.0,0.0,0.0,0.0,0.0,0.0,0.0,0.0,0.0,0.0,0.0,0.0,0.0,0.0,0.0,0.0,0.0,0.0,0.0,0.0,0.0,0.0,0.0,0.0,0.0,0.0,0.0,0.0,0.0,0.0,0.0,0.0,0.0,0.0,3.491,3.5253,3.5299,3.5876,3.645,3.6903,3.512,3.4586,3.4894,3.3781,0.0,0.0,0.0,0.0,0.0,0.0,0.0,0.0,0.0,0.0,0.0,0.0,0.0,0.0,0.0,0.0,0.0,0.0,0.0,0.0,0.0,2.8981,2.928,2.9983,3.0057,3.0375,3.1114,0.0,0.0,0.0,0.0,0.0,3.3623,3.366,3.4,3.4751,3.5534,3.5908,3.5871,3.5958,3.5658,3.5074,3.4367,3.4032,3.3968,0.0,0.0,0.0,0.0,0.0,0.0,0.0,0.0,0.0,0.0,0.0,0.0,0.0,0.0,0.0,0.0,0.0,0.0,0.0,0.0,0.0,0.0,0.0,0.0,0.0,0.0,0.0,0.0,0.0,0.0,0.0,0.0,0.0,0.0,0.0,0.0,0.0,0.0,0.0,0.0,0.0,3.5876,3.6333,0.0,0.0,0.0,0.0,0.0,0.0,0.0,0.0,0.0,0.0,0.0,0.0,0.0,3.5498,3.5498,3.6091,3.6374,3.6374,3.7123,3.748,3.748,3.758,3.765,3.7723,3.7449,0.0,3.6488,3.631,0.0,0.0,0.0,0.0,0.0,0.0,0.0,0.0,0.0,0.0,0.0,0.0,0.0,0.0,0.0,0.0,0.0,0.0,0.0,0.0,0.0,2.9545,2.9985,3.0185,3.0613,3.1207,3.2008,3.2082,0.0,0.0,0.0,3.4124,3.4454,3.4945,3.5385,3.5745,3.6119,3.631,3.631,3.631,3.6186,3.5994,3.6103,3.561,3.469,3.446,0.0,0.0,0.0,0.0,0.0,0.0,0.0,0.0,0.0,0.0,0.0,0.0,0.0,0.0,0.0,0.0,0.0,0.0,0.0,0.0,0.0,0.0,0.0,0.0,0.0,0.0,0.0,0.0,0.0,0.0,0.0,0.0,0.0,0.0,0.0,0.0,0.0,0.0,0.0,3.606,3.6156,3.6364,3.6175,3.6101,0.0,0.0,0.0,0.0,0.0,0.0,0.0,0.0,0.0,3.6977,3.6977,3.6977,3.6977,3.7699,3.8037,3.8037,3.9219,3.9737,3.977,4.0189,4.0358,4.0358,4.0358,4.0184,3.9778,3.8135,3.7544,3.7658,0.0,0.0,0.0,0.0,3.9056,3.9388,0.0,0.0,0.0,0.0,0.0,0.0,0.0,0.0,0.0,0.0,0.0,0.0,2.9403,3.0118,3.0675,3.091,3.1445,3.214,3.2981,3.3202,3.3607,3.4204,3.4949,3.5334,3.5334,3.6255,3.6667,3.6604,3.6888,3.6992,3.6927,3.6927,3.6927,3.6927,3.7522,3.696,3.5561,3.5561,3.5502,3.5356,0.0,0.0,0.0,0.0,0.0,0.0,0.0,0.0,0.0,0.0,0.0,0.0,0.0,0.0,0.0,0.0,0.0,0.0,0.0,0.0,0.0,0.0,0.0,0.0,0.0,0.0,0.0,0.0,0.0,0.0,0.0,0.0,0.0,0.0,0.0,0.0,0.0,3.6579,3.6683,3.6672,3.7001,3.7194,0.0,0.0,0.0,0.0,0.0,0.0,3.8451,3.8451,3.8621,3.9005,3.9039,3.9039,3.9039,3.958,3.9851,3.9863,4.0967,4.1474,4.1508,4.2063,4.23,4.23,4.23,4.2401,4.2395,4.008,3.9415,3.9907,3.9865,3.9862,3.9985,4.1087,4.172,4.2137,0.0,0.0,0.0,0.0,0.0,0.0,0.0,0.0,0.0,0.0,0.0,2.9692,3.0453,3.0586,3.1203,3.2724,3.2916,3.3245,3.4058,3.4883,3.5367,3.5405,3.594,3.6229,3.6229,3.7293,3.7708,3.7456,3.8449,3.8843,3.8579,3.8579,3.8579,3.8571,3.8608,3.816,3.7367,3.7367,3.7117,3.6647,3.5861,0.0,0.0,0.0,0.0,0.0,0.0,0.0,0.0,0.0,0.0,0.0,0.0,0.0,0.0,0.0,0.0,0.0,0.0,0.0,0.0,0.0,0.0,0.0,0.0,0.0,0.0,0.0,0.0,0.0,0.0,0.0,0.0,0.0,0.0,0.0,0.0,0.0,0.0,3.7434,3.864,0.0,0.0,0.0,0.0,3.7924,3.791,3.8519,3.9893,4.0007,4.0616,4.2029,4.2097,4.2097,4.2097,4.213,4.213,4.213,4.2198,4.2232,4.2266,4.23,4.23,4.23,4.23,4.2692,4.3288,4.2429,4.2111,4.2145,4.2139,4.2125,4.2139,4.2233,4.3159,4.4423,0.0,0.0,0.0,0.0,0.0,0.0,0.0,0.0,2.9209,2.9372,2.9494,2.9908,3.0758,3.1449,3.2222,3.3175,3.3788,3.4229,3.4486,3.5292,3.5748,3.5748,3.6783,3.7566,3.8079,3.8689,3.8952,3.8833,3.9028,3.9056,3.8954,3.8773,3.8681,3.8681,3.8681,3.8542,3.8285,3.8285,3.8172,3.8011,3.7718,3.7494,0.0,0.0,0.0,0.0,0.0,0.0,0.0,0.0,0.0,0.0,0.0,0.0,0.0,0.0,0.0,0.0,0.0,0.0,0.0,0.0,0.0,0.0,0.0,0.0,0.0,0.0,0.0,0.0,0.0,0.0,0.0,0.0,0.0,0.0,0.0,0.0,0.0,3.8904,3.9543,0.0,4.0467,4.0656,4.1086,4.1891,4.1578,4.1601,4.214,4.1733,4.1745,4.23,4.276,4.3017,4.3017,4.4012,4.4485,4.4485,4.4959,4.521,4.521,4.521,4.521,4.521,4.521,4.5331,4.5568,4.5297,4.4925,4.4553,4.5007,4.521,4.521,4.521,4.5548,4.6022,0.0,0.0,0.0,0.0,0.0,0.0,0.0,0.0,2.9716,2.9514,2.9693,3.0263,3.1425,3.2103,3.2919,3.3898,3.4515,3.496,3.523,3.5992,3.6566,3.6869,3.7902,3.8708,3.9264,3.9618,3.9726,3.958,3.948,3.9377,3.9257,3.9093,3.9005,3.9005,3.9005,3.8942,3.8818,3.8818,3.8773,3.8681,3.8681,3.8681,3.8621,0.0,0.0,0.0,0.0,0.0,0.0,0.0,0.0,0.0,0.0,0.0,0.0,0.0,0.0,0.0,0.0,0.0,0.0,0.0,0.0,0.0,0.0,0.0,0.0,0.0,0.0,0.0,0.0,0.0,0.0,0.0,0.0,0.0,0.0,4.0233,4.0938,4.0451,4.1453,4.2334,4.2644,4.2856,4.3315,4.4141,4.4062,4.4033,4.4054,4.3898,4.3802,4.3822,4.4282,4.4539,4.4539,4.5568,4.6075,4.6075,4.6563,4.68,4.6819,4.7056,4.7158,4.7192,4.7428,4.753,4.7564,4.78,4.7646,4.7158,4.6902,4.68,4.68,4.68,4.6955,4.7225,0.0,0.0,0.0,0.0,0.0,0.0,0.0,2.9472,2.9935,2.9725,2.9881,3.0704,3.2409,3.2576,3.3251,3.4975,3.5094,3.5437,3.6251,3.7073,3.7898,3.8804,3.9332,3.9609,3.9635,3.9957,3.9967,3.9615,3.9957,3.9946,3.9635,3.9586,3.958,3.958,3.958,3.9414,3.9107,3.9107,3.8968,3.8719,3.8696,3.8681,3.8681,0.0,0.0,0.0,0.0,0.0,0.0,0.0,0.0,0.0,0.0,0.0,0.0,0.0,0.0,0.0,0.0,0.0,0.0,0.0,0.0,0.0,0.0,0.0,0.0,0.0,0.0,0.0,0.0,0.0,0.0,0.0,0.0,0.0,4.0028,4.1554,4.2688,4.2092,4.4317,4.5481,4.4391,4.4858,4.4978,4.4396,4.5085,4.5564,4.5631,4.6335,4.6749,4.6825,4.6849,4.6868,4.6868,4.6921,4.6936,4.6936,4.6936,4.6936,4.6955,4.7684,4.8022,4.8056,4.8766,4.9086,4.912,4.983,5.015,4.9914,4.7782,4.6936,4.6936,4.6936,4.7394,4.8225,0.0,0.0,0.0,0.0,0.0,0.0,2.8703,2.9472,2.9984,2.9928,3.051,3.1411,3.2697,3.336,3.4162,3.5307,3.5383,3.5733,3.6542,3.7383,3.8423,3.97,4.008,4.0171,3.9977,4.0226,4.0356,4.0257,4.0139,4.0042,3.9967,3.9726,3.958,3.958,3.958,3.9539,3.9456,3.9456,3.9439,3.9307,3.8884,3.8681,3.8681,0.0,0.0,0.0,0.0,0.0,0.0,0.0,0.0,0.0,0.0,0.0,0.0,0.0,0.0,0.0,0.0,0.0,0.0,0.0,0.0,0.0,0.0,0.0,0.0,0.0,0.0,0.0,0.0,0.0,0.0,0.0,4.4179,4.4038,4.2881,4.4057,4.5003,4.4835,4.5443,4.6002,4.6273,4.6964,4.7623,4.8087,4.8399,4.8618,4.8602,4.7898,4.7519,4.7507,4.8099,4.8409,4.8409,4.9458,4.9984,4.9984,4.9984,4.9984,4.9984,5.0186,5.0288,5.0288,5.0491,5.0592,5.0592,5.0795,5.0897,5.0845,5.022,4.9984,4.9984,4.9984,5.0119,5.0356,0.0,0.0,0.0,0.0,0.0,0.0,2.9157,2.9806,3.0133,3.0013,3.0845,3.1823,3.2805,3.3664,3.4548,3.5423,3.5808,3.635,3.7196,3.8392,3.9415,4.0244,4.041,4.0418,4.0282,4.041,4.0516,4.0516,4.0347,4.0278,4.0273,4.0058,3.9984,3.9984,3.9984,3.9919,3.9808,3.9808,3.9737,3.9589,3.9234,3.9005,3.8848,3.875,3.8681,3.8681,3.8681,3.8681,3.8643,3.8332,0.0,0.0,0.0,0.0,0.0,0.0,0.0,0.0,0.0,0.0,0.0,0.0,0.0,0.0,0.0,0.0,0.0,0.0,0.0,0.0,0.0,0.0,0.0,0.0,4.5734,4.576,4.5324,4.5927,4.6388,4.6388,4.7021,4.7618,4.8122,4.8893,4.9554,5.0078,5.0816,5.107,5.0775,5.0368,5.0013,4.9743,4.9854,4.9916,4.9916,5.0761,5.1201,5.1201,5.1201,5.1201,5.1201,5.1505,5.1641,5.1674,5.2013,5.2148,5.2148,5.2148,5.2148,5.208,0.0,0.0,0.0,0.0,5.1404,5.1641,0.0,0.0,0.0,0.0,0.0,0.0,2.9831,3.0251,3.0292,3.0098,3.1104,3.2122,3.2814,3.3779,3.4661,3.5423,3.6231,3.7119,3.8084,3.9627,4.0516,4.0516,4.0516,4.0516,4.0516,4.0516,4.0516,4.0516,4.0516,4.0516,4.0516,4.0516,4.0516,4.0516,4.0516,4.0368,4.0163,4.0163,3.9954,3.9682,3.9687,3.945,3.9144,3.8833,3.8757,3.875,3.8704,3.8681,3.8681,3.8681,0.0,0.0,0.0,0.0,0.0,0.0,0.0,0.0,0.0,0.0,0.0,0.0,0.0,0.0,0.0,0.0,0.0,0.0,0.0,0.0,0.0,0.0,0.0,0.0,4.6865,4.7369,4.7369,4.7443,4.748,4.7379,4.8783,4.9747,4.9747,5.0545,5.1059,5.1059,5.2553,5.3182,5.2542,5.3177,0.0,0.0,0.0,5.1415,5.1336,5.1404,5.1472,5.1472,5.1472,5.1472,5.1472,5.2131,5.2435,5.2469,5.3179,5.3518,5.3518,5.3518,5.3518,5.3382,5.1979,5.1472,5.1472,5.1472,5.1877,5.2435,0.0,0.0,0.0,0.0,0.0,0.0,3.0074,3.0364,3.0373,3.0343,3.1677,3.2737,3.2891,3.4311,3.5308,3.55,3.6231,3.735,3.8934,3.9977,4.0516,4.0516,4.0516,4.0516,4.0516,4.0516,4.0516,4.0516,4.0516,4.0516,4.0516,4.0516,4.0516,4.0516,4.0516,4.0454,4.0414,4.0414,4.0389,4.0296,4.0091,3.9797,3.9462,3.9157,3.9015,3.8973,3.8766,3.8681,3.8681,3.8681,3.8627,3.8564,3.8564,3.8473,0.0,0.0,0.0,0.0,0.0,0.0,0.0,0.0,0.0,0.0,0.0,0.0,0.0,0.0,0.0,0.0,0.0,0.0,0.0,4.7642,4.8563,4.9123,4.9123,4.9664,4.9848,4.9197,4.9994,5.0582,5.0582,5.1893,5.2737,5.2737,5.4216,5.5053,5.4942,5.4581,5.4015,5.3245,5.3103,5.2735,5.2097,5.2739,5.3078,5.3078,5.3078,0.0,5.3078,5.3213,5.3281,5.3281,5.345,5.3518,5.3518,5.3518,5.3518,5.3484,5.3179,5.3078,5.3078,5.3078,5.3145,5.3281,0.0,0.0,0.0,0.0,0.0,0.0,2.9544,3.0118,3.0385,3.0385,3.1849,3.2891,3.2891,3.4465,3.5694,3.6179,3.7343,3.8614,3.992,4.0299,4.0516,4.0516,4.0516,4.0516,4.0516,4.0516,4.0516,4.0516,4.0516,4.0516,4.0516,4.0516,4.0516,4.0516,4.0516,4.0516,4.0516,4.0516,4.0516,4.0504,4.0356,4.0199,3.9994,3.9352,3.9087,3.9077,3.8796,3.8681,3.8681,3.8681,3.8681,3.8762,3.9166,3.9313,3.942,0.0,0.0,0.0,0.0,0.0,0.0,0.0,0.0,0.0,0.0,0.0,0.0,0.0,0.0,4.6074,4.744,0.0,4.8188,4.8827,4.9637,5.0188,5.0188,5.0875,5.1096,5.0298,5.1279,5.2003,5.2003,5.3482,5.4399,5.4399,5.55,5.6198,5.6198,5.591,5.5582,5.5146,5.4776,5.4246,5.3441,5.3836,5.3864,5.3518,5.3518,5.3518,5.3518,5.3518,5.3518,5.3518,5.3518,5.3518,5.3518,5.3518,5.3518,5.3518,5.3518,5.3518,5.3518,5.3518,5.3518,5.3518,0.0,0.0,0.0,0.0,0.0,0.0,0.0,2.9849,3.0385,3.0385,3.1849,3.2891,3.2891,3.4465,3.5968,3.7068,3.8417,3.9614,4.0623,4.0615,4.0515,4.0516,4.0516,4.0516,4.0516,4.0516,4.0516,4.0516,4.0516,4.0516,4.0516,4.0516,4.0516,4.0516,4.0516,4.0516,4.0516,4.0516,4.0516,4.0516,4.0516,4.0516,4.0418,3.9615,3.9244,3.914,3.8877,3.875,3.8718,3.8872,3.8946,3.9056,3.9863,4.012,4.0304,4.1103,4.1323,0.0,0.0,0.0,0.0,0.0,0.0,0.0,0.0,4.614,4.6351,4.7159,4.7333,4.7599,4.8416,4.9123,4.9647,4.9821,5.0508,5.1096,5.1232,5.1977,5.2281,5.1793,5.2747,5.3471,5.3654,5.4987,5.5842,5.5842,5.6565,5.7031,5.7031,5.7061,5.704,5.6899,5.6272,5.5567,5.4818,5.4818,5.4435,5.3701,5.3701,5.3651,5.3518,5.3518,5.3518,5.3518,5.3518,5.3518,5.3518,5.3518,5.3518,5.3518,5.3518,5.3518,5.3518,5.3518,5.3518,5.3518,0.0,0.0,0.0,0.0,0.0,0.0,0.0,0.0,3.0385,3.0385,3.1849,3.2891,3.2891,3.4465,3.6199,3.7918,3.8298,3.9082,4.059,4.0683,4.0607,4.0523,4.0516,4.0516,4.0516,4.0516,4.0516,4.0516,4.0516,4.0516,4.0516,4.0516,4.0516,4.0516,4.0516,4.0516,4.0516,4.0516,4.0516,4.0516,4.0516,4.0516,4.0446,4.0115,3.9803,3.9492,3.9153,3.892,3.8791,3.9541,3.9761,3.9908,4.07,4.0956,4.114,4.1919,4.2176,4.2323,4.3029,4.3756,4.4555,4.5444,4.57,4.5893,0.0,4.6966,4.7186,4.8003,4.8186,4.8416,4.9307,4.949,4.9774,5.0545,5.1353,5.2123,5.2847,5.3628,5.4363,5.4997,5.4583,5.4546,5.5254,5.6124,5.6675,5.6675,5.7409,5.7886,5.7886,5.7854,5.7595,5.6925,5.6822,5.638,5.5595,5.5581,5.5203,5.4482,5.4482,5.4139,5.3518,5.3518,5.3518,5.3518,5.3518,5.3518,5.3518,5.3518,5.3518,5.3518,5.3518,5.3518,5.3518,5.3518,5.3518,5.3518,0.0,0.0,0.0,0.0,0.0,0.0,0.0,0.0,0.0,3.0346,3.1465,3.2391,3.2852,3.4955,3.6817,3.8081,3.8634,3.9451,4.0626,4.061,4.0559,4.0519,4.0516,4.0516,4.0516,4.0516,4.0516,4.0516,4.0516,4.0516,4.0516,4.0516,4.0516,4.0516,4.0516,4.0516,4.0516,4.0516,4.0516,4.0516,4.0516,4.0516,4.0504,4.0372,4.0309,4.0232,3.9902,3.9615,0.0,4.0341,4.0589,4.0744,4.1544,4.1801,4.1947,4.2772,4.3314,4.3864,4.4672,4.5149,4.5581,4.6388,4.6608,4.6828,4.7599,4.7783,4.8039,4.8893,4.905,4.926,5.0151,5.0665,5.1069,5.1426,5.216,5.2968,5.3812,5.4179,5.4876,5.6161,5.6014,5.5941,5.6271,5.7042,5.7483,5.7483,5.7813,5.7997,5.7997,5.7997,5.7844,5.7534,5.7522,5.7166,5.6394,5.6394,5.6025,5.5232,5.5232,5.4848,5.4155,5.4155,5.3897,5.3518,5.3957,5.4126,5.416,5.46,5.4786,5.4786,5.4786,5.4786,5.4684,5.3822,5.3518,5.3518,0.0,0.0,0.0,0.0,0.0,0.0,0.0,0.0,0.0,0.0,3.1157,3.2083,3.3122,3.5209,3.6885,3.7779,3.8619,3.9487,4.0338,4.0501,4.0556,4.0556,4.0504,4.0516,4.0516,4.0516,4.0516,4.0516,4.0516,4.0516,4.0516,4.0516,4.0516,4.0516,4.0516,4.0516,4.0516,4.0516,4.0516,4.0516,4.0516,4.0516,4.0516,4.0516,4.0626,4.0753,4.0518,4.0355,4.0341,4.114,4.1434,4.158,4.2396,4.2763,4.3094,4.3644,4.4415,4.5214,4.603,4.625,4.6425,4.7232,4.7443,4.7599,4.8186,4.8489,4.882,4.9454,4.9747,5.0105,5.0986,5.161,5.206,5.227,5.3004,5.3812,5.462,5.4913,5.5574,5.6969,5.7152,5.7152,5.7152,5.7666,5.7997,5.7997,5.7997,5.7997,5.7997,5.7997,5.7997,5.7997,5.7997,5.7738,5.7227,5.7191,5.6812,5.6018,5.6245,5.5841,5.4903,5.4908,5.4593,5.416,5.4668,5.4905,5.4938,5.5462,5.5699,5.5699,5.5699,5.5699,5.5564,5.4481,5.4126,5.4126,0.0,0.0,0.0,0.0,0.0,0.0,0.0,0.0,0.0,0.0,0.0,0.0,0.0,3.5043,3.5984,3.6849,3.7804,3.8715,3.9583,4.0315,4.0692,4.0692,4.0574,4.0516,4.0516,4.0516,4.0516,4.0516,4.0516,4.0516,4.0516,4.0516,4.0516,4.0516,4.0516,4.0516,4.0516,4.0516,4.0516,4.0516,4.0516,4.0516,4.0516,4.0516,4.0626,4.0783,4.0771,4.0896,4.1177,4.1984,4.2249,4.2396,4.3212,4.4011,4.4626,4.4663,4.5214,4.603,4.6865,4.7076,4.7259,4.8076,4.826,4.826,4.8296,4.894,4.9574,4.961,5.0225,5.1022,5.1803,5.1987,5.227,5.3031,5.3849,5.462,5.5438,5.6235,5.7031,5.785,5.796,5.796,5.796,5.7997,5.7997,5.7997,5.7997,5.7997,5.7997,5.7997,5.7997,5.7997,5.7997,5.7997,5.7973,5.7973,5.7619,5.6874,5.7644,5.722,5.5686,5.5656,5.5649,5.5631,5.5665,5.5665,5.5665,5.5699,5.5699,5.5699,5.5699,5.5699,5.5699,5.5665,5.5631,5.5631,0.0,0.0,0.0,0.0,0.0,0.0,0.0,0.0,0.0,0.0,0.0,0.0,0.0,0.0,0.0,0.0,3.7076,3.784,3.9318,3.9676,4.0078,4.0539,4.0629,4.0605,4.0519,4.0516,4.0516,4.0516,4.0516,4.0516,4.0516,4.0516,4.0516,4.0516,4.0516,4.0516,4.0516,4.0516,4.0516,4.0516,4.0516,4.0516,4.0554,4.1123,4.1456,4.1676,0.0,4.223,4.2021,4.2808,4.3102,4.3249,4.4048,4.448,4.492,4.5975,4.6498,4.6865,4.7672,4.7893,4.7966,4.8223,4.8296,4.8443,4.9013,4.938,4.9904,5.0959,5.14,5.183,5.2637,5.2821,5.3067,5.3885,5.4216,5.4876,5.6198,5.6627,5.7116,5.7886,5.7997,5.7997,5.7997,5.7997,5.7997,5.7997,5.7997,5.7997,5.7997,5.7997,5.7997,5.7997,5.7997,5.8253,5.8792,5.8792,5.8943,5.9213,5.9002,5.861,5.8046,5.696,5.6519,5.6485,5.6454,5.6427,5.6461,5.6968,5.7171,5.7171,5.7171,5.7171,5.7171,5.7171,5.7171,5.7036,0.0,0.0,0.0,0.0,0.0,0.0,0.0,0.0,0.0,0.0,0.0,0.0,0.0,0.0,0.0,0.0,0.0,3.7189,3.8379,3.9013,3.9625,4.014,4.0469,4.062,4.0597,4.0548,4.0511,4.0577,4.0511,4.0516,4.0516,4.0516,4.0516,4.0516,4.0516,4.0516,4.0516,4.0516,4.0516,4.0516,4.0516,4.0704,4.1,4.1451,4.1975,0.0,4.2945,4.2969,4.28,4.3322,4.3506,4.3653,4.4452,4.5104,4.5828,4.7159,4.7526,4.7636,4.815,4.8296,4.8296,4.8296,4.8526,4.8893,4.9454,5.0041,5.0739,5.1803,5.2234,5.2674,5.3471,5.3618,5.3885,5.4693,5.506,5.5611,5.6664,5.7042,5.7409,5.7923,5.7997,5.7997,5.7997,5.7997,5.7997,5.7997,5.7997,5.7997,5.7997,5.7997,5.7997,5.7997,5.829,5.8682,5.9184,5.949,6.004,6.0811,6.0049,5.9826,6.0088,5.8739,5.798,5.769,5.7638,5.7458,5.7239,5.7697,5.79,5.79,5.79,5.79,5.79,5.79,5.79,5.7746,0.0,0.0,0.0,0.0,0.0,0.0,0.0,0.0,0.0,0.0,0.0,0.0,0.0,0.0,0.0,0.0,0.0,0.0,3.6867,3.8315,3.93,3.9566,4.014,4.0539,4.0805,4.0594,4.0577,4.0697,4.0577,4.0523,4.0516,4.0516,4.0516,4.0516,4.0516,4.0516,4.0516,4.0516,4.0516,4.0516,4.0516,4.1004,4.1694,4.1452,4.2149,4.3182,4.2967,4.3138,4.3506,4.3506,4.3523,4.3724,4.455,4.5892,4.7297,4.8078,4.8325,4.8296,4.8296,4.8296,4.8296,4.837,4.8976,4.961,4.9721,5.0886,5.2024,5.206,5.2711,5.3471,5.4252,5.4436,5.473,5.5548,5.6308,5.6811,5.6847,5.7519,5.7997,5.7997,5.7997,5.7997,5.7997,5.7997,5.7997,5.7997,5.7997,5.7997,5.7997,5.8033,5.807,5.807,5.8829,5.9269,5.9306,6.0114,6.0896,6.1667,6.0884,6.0923,6.1632,6.082,6.0023,5.9228,5.9178,5.872,5.7972,5.7972,5.7936,5.79,5.79,5.79,5.79,5.79,5.79,5.79,0.0,0.0,0.0,0.0,0.0,0.0,0.0,0.0,0.0,0.0,0.0,0.0,0.0,0.0,0.0,0.0,0.0,0.0,3.6652,3.7246,3.8084,3.9316,3.9586,4.0028,4.0715,4.068,4.0658,4.0697,4.0658,4.0612,4.0516,4.0516,4.0516,4.0516,4.0516,4.0516,4.0516,4.0516,4.0516,4.0516,4.0516,4.0492,4.0664,4.177,4.2141,4.2167,4.3305,4.3606,4.3506,4.3506,4.4058,4.4968,4.6068,4.6938,4.7707,4.8513,4.8522,4.8296,4.8296,4.8296,4.8453,4.9123,4.9454,4.9894,5.1106,5.1693,5.2171,5.2784,5.3508,5.4179,5.4363,5.4887,5.5548,5.6345,5.6675,5.6994,5.7593,5.7886,5.7997,5.7997,5.7997,5.7997,5.7997,5.7997,5.7997,5.7997,5.7997,5.7997,5.7997,5.8572,5.8902,5.8902,5.9673,6.0382,6.097,6.1802,6.2279,6.2499,6.2287,6.232,6.2477,6.1659,6.1171,6.0917,6.0335,5.9574,5.8789,5.8789,5.8458,5.79,5.79,5.79,5.79,5.79,5.79,5.79,0.0,0.0,0.0,0.0,0.0,0.0,0.0,0.0,0.0,0.0,0.0,0.0,0.0,0.0,0.0,0.0,0.0,0.0,0.0,3.6379,3.7233,3.8215,3.8968,3.9629,4.0218,4.0477,4.063,4.0697,4.063,4.0581,4.0516,4.0516,4.0516,4.0516,4.0516,4.0516,4.0516,4.0516,4.0422,0.0,0.0,4.0377,4.0545,4.1265,4.1768,4.2225,4.2973,4.3349,4.3504,4.366,4.4516,4.5626,4.6465,4.7174,4.7835,4.8434,4.8486,4.8296,4.8296,4.8296,4.8526,4.938,4.9858,5.0445,5.173,5.227,5.2637,5.3104,5.3849,5.4509,5.4851,5.5574,5.6381,5.7189,5.7336,5.7483,5.7923,5.7997,5.7997,5.7997,5.7997,5.7997,5.7997,5.7997,5.7997,5.7997,5.7997,5.8143,5.851,5.8939,5.938,5.971,6.0529,6.13,6.2108,6.2572,6.2793,6.2793,6.2793,6.2793,6.278,6.2324,6.1942,6.159,6.1113,6.0458,5.9639,5.9261,5.884,5.8405,5.8029,5.79,5.79,5.79,5.79,5.79,0.0,0.0,0.0,0.0,0.0,0.0,0.0,0.0,0.0,0.0,0.0,0.0,0.0,0.0,0.0,0.0,0.0,0.0,0.0,0.0,3.6659,3.6853,3.8218,3.9142,3.9564,4.0104,4.0479,4.0697,4.0595,4.05,4.0516,4.0516,4.0516,4.0516,4.0516,4.0516,4.0516,4.0516,4.0364,4.0167,4.0091,4.0349,4.0706,0.0,4.1168,4.2411,4.2325,4.2842,4.3614,4.3912,4.4734,4.5725,4.6314,4.7018,4.7719,4.8237,4.8354,4.8296,4.8296,4.8296,4.8517,4.9527,5.0298,5.1059,5.194,5.2711,5.3214,5.3324,5.3995,5.4803,5.5622,5.6418,5.7189,5.7886,5.7997,5.7997,5.7997,5.7997,5.7997,5.7997,5.7997,5.7997,5.7997,5.7997,5.7997,5.7997,5.8107,5.8474,5.9159,5.9306,5.9783,6.0701,6.141,6.2108,6.2793,6.2793,6.2793,6.2793,6.2793,6.2793,6.2793,6.2793,6.2402,6.1756,6.1756,6.1286,6.0489,5.9639,5.9278,5.9178,5.8388,5.8119,5.8226,5.8101,5.8047,5.8029,0.0,0.0,0.0,0.0,0.0,0.0,0.0,0.0,0.0,0.0,2.8239,0.0,0.0,0.0,0.0,0.0,0.0,0.0,0.0,0.0,0.0,3.6709,3.6983,3.7884,3.9394,3.9539,3.9944,4.0697,4.067,4.0626,4.0516,4.0516,4.0516,4.0516,4.0516,4.0516,4.0516,4.0516,4.0454,4.0406,4.0205,3.9996,3.9853,4.0164,0.0,0.0,4.1834,4.2996,4.3935,4.3967,4.4367,4.5045,4.644,4.7,4.7357,4.8468,4.8559,4.8296,4.8296,4.8296,4.8663,5.0215,5.0692,5.1169,5.2664,5.3104,5.3398,5.4069,5.484,5.5658,5.6455,5.7262,5.785,5.796,5.7997,5.7997,5.7997,5.7997,5.7997,5.7997,5.7997,5.7997,5.7997,5.7997,5.7997,5.7997,5.8609,5.9049,5.9184,5.982,6.0848,6.2352,6.2536,6.2646,6.2793,6.2793,6.2793,6.2793,6.2793,6.2793,6.2793,6.2793,6.273,6.2579,6.2579,6.2152,6.1314,6.0519,6.0164,6.0086,5.9211,5.9328,5.9864,5.9179,5.8909,5.8789,0.0,0.0,0.0,0.0,0.0,0.0,0.0,0.0,0.0,0.0,2.7005,2.8124,0.0,0.0,0.0,0.0,0.0,0.0,0.0,0.0,0.0,0.0,3.6465,3.7126,3.799,3.8881,3.9534,3.9956,0.0,4.0566,4.0516,4.0516,4.0516,4.0516,4.0516,4.0516,4.0516,4.0516,4.041,4.0278,3.9944,3.9658,3.9333,0.0,0.0,0.0,4.1735,4.2648,4.3188,4.3602,4.3989,4.4583,4.6173,4.6675,4.692,4.8192,4.8458,4.8296,4.8296,4.8296,4.871,5.0398,5.0802,5.1232,5.2847,5.3214,5.3434,5.4216,5.5034,5.5842,5.6627,5.7446,5.7997,5.7997,5.7997,5.7997,5.7997,5.7997,5.7997,5.7997,5.7997,5.7997,5.7997,5.7997,5.7997,5.7997,5.8756,5.938,5.9783,6.0994,6.1985,6.2793,6.2793,6.2793,6.2793,6.2793,6.2793,6.2793,6.2793,6.2793,6.2793,6.2793,6.2793,6.2793,6.2793,6.2579,6.2143,6.1379,6.1011,6.0938,6.0117,6.0023,6.0289,5.9427,5.9094,5.8976,0.0,0.0,0.0,0.0,0.0,0.0,0.0,2.5305,2.5295,2.5232,2.6023,2.7149,2.8623,2.9565,3.0192,0.0,0.0,0.0,0.0,0.0,0.0,0.0,0.0,0.0,3.6696,0.0,0.0,3.9281,3.9938,0.0,0.0,0.0,0.0,0.0,4.0426,4.0434,4.0508,4.0377,4.0217,0.0,0.0,3.9333,3.9083,0.0,0.0,0.0,0.0,4.1992,4.2396,4.3029,4.3513,4.4156,4.558,4.6186,4.6624,4.773,4.815,4.8296,4.8296,4.8453,4.893,5.0435,5.0949,5.1426,5.2884,5.3214,5.3471,5.4473,5.5144,5.5915,5.6895,5.7556,5.7997,5.7997,5.7997,5.7997,5.7997,5.7997,5.7997,5.7997,5.7997,5.7997,5.7997,5.7997,5.7997,5.7997,5.8902,5.982,6.0603,6.2022,6.2793,6.2793,6.2793,6.2793,6.2793,6.2793,6.2793,6.2793,6.2793,6.2793,6.2793,6.2793,6.2793,6.2793,6.2793,6.2793,6.2743,6.1942,6.1701,6.177,6.0967,6.076,6.079,5.9768,5.9377,5.9228,0.0,0.0,0.0,0.0,0.0,0.0,0.0,2.5305,2.5227,2.5065,2.5968,2.688,2.7635,2.8626,2.9544,0.0,0.0,0.0,0.0,0.0,0.0,0.0,0.0,0.0,0.0,0.0,0.0,3.9281,3.9358,0.0,0.0,0.0,0.0,0.0,0.0,4.0282,4.045,3.9929,0.0,0.0,0.0,0.0,0.0,0.0,0.0,0.0,0.0,4.1046,4.2323,4.2396,4.2907,4.3713,4.4578,4.5583,4.6513,4.7068,4.7746,4.8296,4.8296,4.8893,4.9674,5.0582,5.1353,5.2123,5.2994,5.3214,5.3654,5.5181,5.5548,5.6062,5.7593,5.796,5.7997,5.7997,5.7997,5.7997,5.7997,5.7997,5.7997,5.7997,5.7997,5.7997,5.7997,5.7997,5.7997,5.7997,5.9428,6.0639,6.1447,6.2328,6.2793,6.2793,6.2793,6.2793,6.2793,6.2793,6.2793,6.2793,6.2793,6.2793,6.2793,6.2793,6.2793,6.2793,6.2793,6.2793,6.2743,6.1942,6.2036,6.2605,6.1797,6.1942,6.2376,6.0849,6.0273,6.0039,0.0,0.0,0.0,0.0,0.0,0.0,0.0,2.5305,2.5221,2.5047,2.5385,2.59,2.6574,2.7558,2.88,0.0,0.0,0.0,0.0,0.0,0.0,0.0,0.0,0.0,0.0,0.0,3.6888,3.7738,3.878,0.0,0.0,0.0,0.0,0.0,0.0,3.9861,3.9954,3.9688,0.0,0.0,0.0,0.0,0.0,0.0,0.0,0.0,0.0,0.0,4.1009,4.1956,4.2506,4.291,4.3718,4.4942,4.6217,4.6912,4.7672,4.8296,4.8296,4.893,4.9784,5.0618,5.1389,5.2197,5.3031,5.3214,5.3654,5.5254,5.5585,5.6099,5.7703,5.7997,5.7997,5.7997,5.7997,5.7997,5.7997,5.7997,5.7997,5.7997,5.7997,5.7997,5.7997,5.7997,5.84,5.9355,6.0493,6.1484,6.2291,6.2646,6.2793,6.2793,6.2793,6.2793,6.2793,6.2793,6.2793,6.2793,6.2793,6.2793,6.2793,6.2793,6.2793,6.2793,6.2793,6.2793,6.2768,6.2464,6.2515,6.2768,6.2464,6.2528,6.2716,6.2089,6.183,6.1754,0.0,0.0,0.0,0.0,0.0,0.0,2.5154,2.5149,2.5094,2.4897,2.4882,2.5191,2.5842,2.6926,2.8195,2.9707,0.0,0.0,0.0,0.0,0.0,0.0,0.0,0.0,0.0,0.0,3.6026,3.6445,3.7682,3.8438,0.0,0.0,3.9597,3.9618,0.0,0.0,0.0,0.0,0.0,0.0,0.0,0.0,0.0,0.0,0.0,0.0,0.0,0.0,0.0,0.0,0.0,4.2433,4.3249,4.4607,4.5993,4.6571,4.7489,4.8296,4.8296,4.9114,5.0078,5.0655,5.1573,5.2491,5.3067,5.3214,5.3654,5.5254,5.5585,5.6099,5.7703,5.7997,5.7997,5.7997,5.7997,5.7997,5.7997,5.7997,5.7997,5.7997,5.7997,5.7997,5.7997,5.8217,5.8914,6.0309,6.1153,6.1961,6.2756,6.2793,6.2793,6.2793,6.2793,6.2793,6.2793,6.2793,6.2793,6.2793,6.2793,6.2793,6.2793,6.2793,6.2793,6.2793,6.2793,6.2793,6.2793,6.2793,6.2793,6.2793,6.2793,6.2976,6.3157,6.2894,6.2953,6.3106,0.0,0.0,0.0,0.0,0.0,0.0,0.0,2.4808,2.4734,2.4518,2.4678,2.5036,2.5639,2.6858,2.7868,2.8469,0.0,0.0,0.0,0.0,0.0,0.0,0.0,0.0,0.0,0.0,3.5106,3.5919,3.5919,3.6782,3.8401,3.8401,3.8843,3.9606,0.0,0.0,0.0,0.0,0.0,0.0,0.0,0.0,0.0,0.0,0.0,0.0,0.0,0.0,0.0,0.0,0.0,0.0,0.0,4.4607,4.5883,4.592,4.7058,4.8296,4.8296,4.9507,5.0802,5.0802,5.2003,5.3177,5.3214,5.3214,5.3654,5.5254,5.5585,5.6099,5.7703,5.7997,5.7997,5.7997,5.7997,5.7997,5.7997,5.7997,5.7997,5.7997,5.7997,5.7997,5.7997,5.8719,5.9526,6.0346,6.1153,6.1961,6.2756,6.2793,6.2793,6.2793,6.2793,6.2793,6.2793,6.2793,6.2793,6.2793,6.2793,6.2793,6.2793,6.2793,6.2793,6.2793,6.2793,6.2793,6.2793,6.2793,6.2793,6.2793,6.2793,6.3319,6.3976,6.3111,6.3314,6.3877,0.0,0.0,0.0,0.0,0.0,0.0,0.0,2.48,2.4731,2.4514,2.4547,2.4622,2.4654,2.6149,2.7194,2.7388,0.0,0.0,0.0,0.0,0.0,0.0,0.0,0.0,0.0,0.0,3.4599,3.5063,3.5639,3.6066,3.6413,3.6986,3.7573,3.8146,3.8064,3.8366,0.0,0.0,0.0,0.0,0.0,0.0,3.8681,0.0,0.0,0.0,0.0,0.0,0.0,0.0,0.0,0.0,0.0,0.0,0.0,4.5883,4.7058,4.8296,4.8296,4.9507,5.0802,5.0802,5.2003,5.3214,5.3214,5.3214,5.3654,5.5254,5.5585,5.6099,5.7703,5.7997,5.7997,5.7997,5.7997,5.7997,5.7997,5.7997,5.7997,5.7997,5.7997,5.7997,5.7997,5.9245,6.0114,6.0382,6.1655,6.2536,6.2793,6.2793,6.2793,6.2793,6.2793,6.2793,6.2793,6.2793,6.2793,6.2793,6.2793,6.2793,6.2793,6.2793,6.2793,6.2793,6.2793,6.2793,6.2793,6.2793,6.2793,6.2793,6.2793,6.3319,6.415,6.4393,6.5008,6.5761,0.0,0.0,0.0,0.0,0.0,0.0,0.0,2.4635,2.4611,2.4419,2.4467,2.4432,2.4218,2.5806,2.6879,2.6775,0.0,0.0,0.0,0.0,0.0,0.0,0.0,0.0,0.0,3.3166,3.3856,3.4353,3.4856,3.5161,3.5303,3.5841,3.6572,3.7492,3.7492,3.7962,0.0,0.0,0.0,0.0,0.0,0.0,3.8681,0.0,0.0,0.0,0.0,0.0,0.0,0.0,0.0,0.0,0.0,0.0,0.0,0.0,4.7058,4.8296,4.8296,4.9507,5.0802,5.0802,5.2003,5.3214,5.3214,5.3214,5.3654,5.5254,5.5585,5.6099,5.7703,5.7997,5.7997,5.7997,5.7997,5.7997,5.7997,5.7997,5.7997,5.7997,5.7997,5.7997,5.7997,5.9465,6.0419,6.0419,6.1875,6.2793,6.2793,6.2793,6.2793,6.2793,6.2793,6.2793,6.2793,6.2793,6.2793,6.2793,6.2793,6.2793,6.2793,6.2793,6.2793,6.2793,6.2793,6.2793,0.0,6.2793,6.2793,6.2793,6.2793,6.3527,6.4604,6.5118,6.5999,6.704,0.0,0.0,0.0,0.0,0.0,0.0,0.0,0.0,0.0,0.0,2.4357,2.4415,2.4218,2.5787,2.6789,0.0,0.0,0.0,0.0,0.0,0.0,0.0,0.0,0.0,0.0,3.2185,3.2993,3.3807,3.3807,3.4167,3.4931,3.4931,3.5782,3.7309,3.7382,3.7889,3.8681,0.0,0.0,0.0,0.0,0.0,0.0,0.0,0.0,0.0,0.0,0.0,0.0,0.0,0.0,0.0,0.0,0.0,0.0,0.0,0.0,0.0,0.0,4.9507,5.0802,5.0802,5.2003,5.3214,5.3214,5.3214,0.0,5.5254,5.5585,5.6099,5.7703,5.7997,5.7997,5.7997,5.7997,5.7997,5.7997,5.7997,5.7997,5.7997,5.7997,5.7997,5.7997,5.9465,6.0419,6.0419,6.1875,6.2793,6.2793,6.2793,6.2793,6.2793,6.2793,6.2793,6.2793,6.2793,6.2793,6.2793,6.2793,6.2793,6.2793,6.2793,6.2793,6.2793,6.2793,6.2793,6.2793,6.2793,6.2793,6.2793,6.2793,6.3783,6.5215,6.5288,6.6292,6.7627,0.0,0.0,0.0,0.0,0.0,0.0,0.0,0.0,0.0,0.0,2.4247,2.4261,2.4199,2.5682,2.6649,0.0,0.0,0.0,0.0,0.0,0.0,0.0,0.0,0.0,0.0,3.2185,3.2993,3.3807,3.3807,3.3917,3.4094,3.4094,3.4608,3.5628,3.6266,3.7375,3.8681,3.8681,0.0,0.0,0.0,0.0,0.0,0.0,0.0,0.0,3.8681,3.8681,0.0,0.0,0.0,0.0,0.0,0.0,0.0,0.0,4.7058,4.8296,4.8296,0.0,5.0802,5.0802,5.2003,5.3214,0.0,5.3214,5.3654,5.5254,5.5585,5.6099,5.7703,5.7997,5.7997,5.7997,5.7997,5.7997,5.7997,5.7997,5.7997,5.7997,5.7997,5.7997,5.7997,5.9465,6.0419,6.0419,6.1875,6.2793,6.2793,6.2793,6.2793,6.2793,6.2793,6.2793,6.2793,6.2793,6.2793,6.2793,6.2793,6.2793,6.2793,6.2793,6.2793,6.2793,6.2793,6.2793,6.2793,6.2793,6.2793,6.2793,6.2793,6.3466,6.4457,6.5068,6.5925,6.688,0.0,0.0,0.0,0.0,0.0,0.0,0.0,0.0,0.0,0.0,0.0,0.0,0.0,0.0,0.0,0.0,0.0,0.0,0.0,0.0,0.0,0.0,0.0,3.021,3.1354,3.1825,3.2632,3.3807,3.3807,3.3807,3.3807,3.3807,3.4241,3.5034,3.6303,3.7338,3.8182,3.8542,3.8681,0.0,3.8681,0.0,0.0,0.0,0.0,0.0,3.8681,3.8681,0.0,3.9651,4.0414,4.1242,0.0,0.0,0.0,0.0,4.7058,4.8296,4.8296,4.9507,5.0802,5.0802,5.2003,5.3214,5.3214,5.3214,5.3654,5.5254,5.5585,5.6099,5.7703,5.7997,5.7997,5.7997,5.7997,5.7997,5.7997,5.7997,5.7997,5.7997,5.7997,5.7997,5.7997,5.9134,6.0003,6.0382,6.1557,6.2389,6.2793,6.2793,6.2793,6.2793,6.2793,6.2793,6.2793,6.2793,6.2793,6.2793,6.2793,6.2793,6.2793,6.2793,6.2793,6.2793,6.2793,6.2793,6.2793,6.2793,6.2793,6.2793,6.2793,6.3319,6.4213,6.4995,6.5815,6.6623,0.0,0.0,0.0,0.0,0.0,0.0,0.0,0.0,0.0,0.0,0.0,0.0,0.0,0.0,0.0,0.0,0.0,0.0,0.0,0.0,0.0,0.0,0.0,2.9763,3.1354,3.139,3.2198,3.3807,3.3807,3.3807,3.3807,3.3807,3.4314,3.5261,3.667,3.7456,3.7749,3.8395,3.8681,3.8681,3.8681,0.0,0.0,0.0,0.0,0.0,0.0,0.0,0.0,3.9651,4.0414,4.1242,4.2057,0.0,0.0,0.0,0.0,0.0,4.8296,4.9507,5.0802,5.0802,5.2003,5.3214,5.3214,5.3287,5.3801,5.5291,5.5695,5.6246,5.774,5.7997,5.7997,5.7997,5.7997,5.7997,5.7997,5.7997,5.7997,5.7997,5.7997,5.7997,5.7997,5.8719,5.9526,6.0346,6.1153,6.1961,6.2756,6.2793,6.2793,6.2793,6.2793,6.2793,6.2793,6.2793,6.2793,6.2793,6.2793,6.2793,6.2793,6.2793,6.2793,6.2793,6.2793,6.2793,6.2793,6.2793,6.2793,6.2793,6.2793,6.3246,6.398,6.4824,6.5632,6.6439,0.0,0.0,0.0,0.0,0.0,0.0,0.0,0.0,0.0,0.0,0.0,0.0,0.0,0.0,0.0,0.0,0.0,0.0,0.0,0.0,0.0,2.8981,2.8981,2.9763,3.1354,3.139,3.2198,3.3807,3.3807,3.3807,3.3807,3.3807,3.4614,3.6119,3.6384,3.7221,3.8505,3.8644,3.8681,3.8681,3.8681,0.0,0.0,0.0,0.0,0.0,0.0,0.0,0.0,3.9651,4.0414,4.1242,4.2057,0.0,0.0,0.0,0.0,0.0,4.8296,4.9507,5.0802,5.0802,5.2003,5.3214,5.3214,5.3728,5.4473,5.5401,5.6124,5.6895,5.7813,5.7997,5.7997,5.7997,5.7997,5.7997,5.7997,5.7997,5.7997,5.7997,5.7997,5.7997,5.7997,5.8719,5.9526,6.0346,6.1153,6.1961,6.2756,6.2793,6.2793,6.2793,6.2793,6.2793,6.2793,6.2793,6.2793,6.2793,6.2793,6.2793,6.2793,6.2793,6.2793,6.2793,6.2793,6.2793,6.2793,6.2793,6.2793,6.2793,6.2793,6.2866,6.3086,6.398,6.4787,6.5705,0.0,0.0,0.0,0.0,0.0,0.0,0.0,0.0,0.0,0.0,0.0,0.0,0.0,0.0,0.0,0.0,0.0,0.0,0.0,0.0,0.0,2.8981,2.9427,3.021,3.1354,3.139,3.2198,3.3807,3.3807,3.3807,3.3807,3.3807,3.4431,3.5635,3.6083,3.6934,3.8072,3.8505,3.8681,3.8681,0.0,0.0,0.0,0.0,0.0,0.0,0.0,0.0,0.0,0.0,4.0773,4.1323,4.2543,0.0,0.0,0.0,0.0,0.0,4.8857,4.9884,5.0912,5.1353,5.2344,5.3214,5.3214,5.3801,5.462,5.5438,5.6235,5.7042,5.785,5.7997,5.7997,5.7997,5.7997,5.7997,5.7997,5.7997,5.7997,5.7997,5.7997,5.7997,5.7997,5.8327,5.9049,6.0297,6.075,6.1484,6.2719,6.2793,6.2793,6.2793,6.2793,6.2793,6.2793,6.2793,6.2793,6.2793,6.2793,6.2793,6.2793,6.2793,6.2793,6.2793,6.2793,6.2793,6.2793,6.2793,6.2793,6.2793,6.2793,6.2793,6.2903,6.3759,6.4861,6.6035,0.0,0.0,0.0,0.0,0.0,0.0,0.0,0.0,0.0,0.0,0.0,0.0,0.0,0.0,0.0,0.0,0.0,0.0,0.0,0.0,2.8981,2.8981,2.9679,3.0491,3.139,3.1574,3.2382,3.3807,3.3807,3.3807,3.3807,3.399,3.4534,3.5334,3.6193,3.7044,3.7823,3.8432,3.8681,3.8681,0.0,0.0,0.0,0.0,0.0,0.0,0.0,0.0,0.0,0.0,0.0,0.0,0.0,0.0,0.0,4.614,4.7205,4.8489,4.9344,5.0188,5.0986,5.1803,5.2601,5.3209,5.3308,5.4044,5.4883,5.5601,5.6543,5.7394,5.7909,5.7997,5.8042,5.8153,5.8063,5.8054,5.8153,5.8051,5.7997,5.7997,5.7997,5.7997,5.7997,5.7997,5.8657,6.0272,6.0419,6.1104,6.2719,6.2793,6.2793,6.2793,6.2793,6.2793,6.2793,6.2793,6.2793,6.2793,6.2793,6.2793,6.2793,6.2793,6.2793,6.2793,6.2793,6.2793,6.2793,6.2793,6.2793,6.2793,6.2793,6.2793,6.2903,6.3759,6.5007,6.6256,0.0,0.0,0.0,0.0,0.0,0.0,0.0,0.0,0.0,0.0,0.0,0.0,0.0,0.0,0.0,0.0,0.0,0.0,0.0,0.0,2.8981,2.8981,2.9401,3.0193,3.1384,3.2118,3.2956,3.3807,3.3807,3.3807,3.3807,3.4564,3.5378,3.6229,3.7052,3.7852,3.8608,3.8689,3.8681,3.8681,3.8681,0.0,0.0,0.0,0.0,0.0,0.0,0.0,0.0,0.0,0.0,0.0,0.0,0.0,4.6067,4.6792,4.7636,4.8489,4.9344,5.0188,5.0986,5.1803,5.2601,5.3314,5.3663,5.4656,5.5653,5.6057,5.7441,5.846,5.8063,5.7997,5.8153,5.857,5.8293,5.8153,5.8591,5.8282,5.7997,5.7997,5.7997,5.7997,5.7997,5.7997,5.8657,6.0272,6.0419,6.1104,6.2719,6.2793,6.2793,6.2793,6.2793,6.2793,6.2793,6.2793,6.2793,6.2793,6.2793,6.2793,6.2793,6.2793,6.2793,6.2793,6.2793,6.2793,6.2793,6.2793,6.2793,6.2793,6.2793,6.2793,6.2903,6.3759,6.464,6.5472,0.0,0.0,0.0,0.0,0.0,0.0,0.0,0.0,0.0,0.0,0.0,0.0,0.0,0.0,0.0,0.0,0.0,0.0,0.0,2.8981,2.9207,2.9726,3.0374,3.1178,3.2112,3.2188,3.2728,3.3807,3.3807,3.4057,3.4564,3.4857,3.5745,3.7052,3.7345,3.7962,3.8681,3.8681,3.8681,3.8681,3.8681,3.8681,0.0,0.0,0.0,0.0,0.0,0.0,0.0,0.0,4.1434,4.2168,4.4113,4.5259,4.6067,4.6856,4.8039,4.9307,5.0105,5.1133,5.2036,5.261,5.3558,5.4365,5.4559,5.5114,5.5859,5.6806,5.7921,5.8716,5.8845,5.8874,5.8932,5.9093,5.8726,5.8513,5.8683,5.8304,5.7997,5.7997,5.7997,5.7997,5.7997,5.7997,5.8474,5.9563,6.0114,6.0896,6.1998,6.2536,6.2793,6.2793,6.2793,6.2793,6.2793,6.2793,6.2793,6.2793,6.2793,6.2793,6.2793,6.2793,6.2793,6.2793,6.2793,6.2793,6.2793,6.2793,6.2793,6.2793,6.2793,6.2793,6.2829,6.3172,6.415,6.5325,0.0,0.0,0.0,0.0,0.0,0.0,0.0,0.0,0.0,0.0,0.0,0.0,0.0,0.0,0.0,0.0,0.0,0.0,2.8809,2.9047,2.9454,2.999,3.0889,3.1737,3.2576,3.245,3.2849,3.3807,3.4057,3.4454,3.4997,3.5555,3.6413,3.7492,3.7786,3.8175,3.8681,3.8681,3.8681,3.8681,3.8681,3.8681,0.0,0.0,0.0,0.0,0.0,0.0,0.0,0.0,4.1837,4.2616,4.448,4.5443,4.6104,4.7159,4.8577,4.9971,5.0764,5.1769,5.2762,5.3448,5.4128,5.4848,5.5714,5.6049,5.6519,5.7679,5.8437,5.9037,5.9337,5.9389,5.9389,5.9389,5.9018,5.8736,5.8903,5.8534,5.8175,5.802,5.813,5.8175,5.802,5.7997,5.8327,5.9159,5.993,6.075,6.1557,6.2352,6.2793,6.2793,6.2793,6.2793,6.2793,6.2793,6.2793,6.2793,6.2793,6.2793,6.2793,6.2793,6.2793,6.2793,6.2793,6.2793,6.2793,6.2793,6.2793,6.2793,6.2793,6.2793,6.2793,6.2793,6.371,6.4971,0.0,0.0,0.0,0.0,0.0,0.0,0.0,0.0,0.0,0.0,0.0,0.0,0.0,0.0,0.0,0.0,0.0,0.0,2.8451,2.9163,2.9602,2.962,3.0716,3.1739,3.2606,3.3009,3.3408,3.3807,3.4601,3.4997,3.5071,3.6714,3.7492,3.7566,3.8322,3.8681,3.8681,3.8681,3.8681,3.8681,3.8681,3.8681,3.8681,0.0,0.0,0.0,0.0,0.0,0.0,0.0,4.2323,4.2727,4.5149,4.592,4.6214,4.7829,4.9196,5.0394,5.1177,5.1997,5.2933,5.4191,5.4153,5.4515,5.701,5.7561,5.7744,5.8631,5.9129,5.9398,5.9407,5.9407,5.9407,5.9407,5.9037,5.8874,5.9337,5.9018,5.8518,5.804,5.8418,5.8534,5.8065,5.7997,5.8327,5.9123,5.993,6.075,6.1569,6.2365,6.2793,6.2793,6.2793,6.2793,6.2793,6.2793,6.2793,6.2793,6.2793,6.2793,6.2793,6.2793,6.2793,6.2793,6.2793,6.2793,6.2793,6.2793,6.2793,6.2793,6.2793,6.2793,6.2793,6.2793,6.3356,6.4213,0.0,0.0,0.0,0.0,0.0,0.0,0.0,0.0,0.0,0.0,0.0,0.0,0.0,0.0,0.0,0.0,0.0,0.0,2.9612,2.9623,3.0219,3.167,3.2031,3.2589,3.3433,3.4137,3.4533,3.4637,3.4887,3.5598,3.6787,3.7272,3.7815,3.8358,3.8571,3.8681,3.8681,3.8681,3.8681,3.8681,3.8681,3.8681,3.8681,0.0,0.0,0.0,0.0,0.0,0.0,0.0,0.0,0.0,4.5516,4.6287,4.6938,4.8003,4.9413,5.0671,5.0892,5.2426,5.3954,5.402,5.5254,5.6687,5.743,5.7337,5.7582,5.9352,5.9824,5.9977,6.0324,6.0371,6.0371,6.0371,5.9977,5.9714,5.9878,5.9484,5.9037,5.8539,5.8621,5.8534,5.8065,5.7997,5.8107,5.8327,5.9086,5.9893,6.0713,6.152,6.2218,6.2793,6.2793,6.2793,6.2793,6.2793,6.2793,6.2793,6.2793,6.2793,6.2793,6.2793,6.2793,6.2793,6.2793,6.2793,6.2793,6.2793,6.2793,6.2793,6.2793,6.2793,6.2793,6.2793,6.3356,6.4213,0.0,0.0,0.0,0.0,0.0,0.0,0.0,0.0,0.0,0.0,0.0,0.0,0.0,0.0,0.0,0.0,0.0,0.0,0.0,3.0366,3.0837,3.206,3.2408,3.3088,3.4234,3.4747,3.5334,3.6002,3.6002,3.6523,3.7492,3.7815,3.8248,3.8681,3.8681,3.8681,3.8681,3.8681,3.8681,3.8681,3.8681,3.8681,3.8718,0.0,0.0,0.0,0.0,0.0,0.0,0.0,0.0,0.0,4.5663,4.6461,4.7297,4.8246,4.9833,5.1331,5.147,5.3083,5.4708,5.4587,5.5835,5.7354,5.8157,5.8405,5.8802,6.0095,6.0365,6.043,6.0502,6.0659,6.0746,6.0533,6.0297,6.011,6.011,5.9862,5.9424,5.8766,5.8864,5.8706,5.8051,5.7997,5.7997,5.7997,5.8756,5.9416,5.9893,6.1006,6.1814,6.2328,6.2646,6.2793,6.2793,6.2793,6.2793,6.2793,6.2793,6.2793,6.2793,6.2793,6.2793,6.2793,6.2793,6.2793,6.2793,6.2793,6.2793,6.2793,6.2793,6.2793,6.2793,6.2793,6.3123,6.3759,0.0,0.0,0.0,0.0,0.0,0.0,0.0,0.0,0.0,0.0,0.0,0.0,0.0,0.0,0.0,0.0,0.0,0.0,0.0,0.0,3.1422,3.1548,3.2322,3.3437,3.4983,3.5144,3.5965,3.7492,3.7492,3.7529,3.7639,3.8358,3.8681,3.8681,3.8681,3.8681,3.8681,3.8681,3.8681,3.8681,3.8681,3.8726,3.8909,3.9606,0.0,0.0,0.0,0.0,0.0,0.0,0.0,0.0,4.5773,4.6571,4.7426,4.8624,5.0362,5.2031,5.2485,5.3816,5.5186,5.556,5.6095,5.7092,5.914,6.0242,6.0787,6.0787,6.0787,6.0659,6.0224,6.0508,6.0653,6.0217,6.0161,6.0161,6.0161,6.0161,5.9839,5.8942,5.9158,5.9065,5.8153,5.8031,5.7997,5.7997,5.8682,5.9123,5.9196,6.0676,6.1533,6.1606,6.2389,6.2793,6.2793,6.2793,6.2793,6.2793,6.2793,6.2793,6.2793,6.2793,6.2793,6.2793,6.2793,6.2793,6.2793,6.2793,6.2793,6.2793,6.2793,6.2793,6.2793,6.2793,6.2793,6.305,0.0,0.0,0.0,0.0,0.0,0.0,0.0,0.0,0.0,0.0,0.0,0.0,0.0,0.0,0.0,0.0,0.0,0.0,0.0,0.0,3.2183,3.278,3.3887,3.4622,3.4997,3.6303,3.7125,3.7492,3.7492,3.7823,3.8432,3.8608,3.8681,3.8681,3.8681,3.8681,3.8681,3.8681,3.8681,3.8681,3.8681,3.9093,3.9651,3.9835,4.0679,0.0,0.0,0.0,0.0,0.0,0.0,0.0,4.6608,4.7379,4.8215,4.9175,5.0434,5.1694,5.2415,5.383,5.5127,5.5205,5.6554,5.8354,6.0115,6.0671,6.0787,6.0787,6.0787,6.0763,6.0659,6.074,6.0763,6.0653,6.0641,6.0641,6.0641,6.0641,6.045,5.987,5.9551,5.9167,5.8601,5.8205,5.7997,5.7997,5.8143,5.8547,5.9159,6.0114,6.0933,6.1569,6.2389,6.2793,6.2793,6.2793,6.2793,6.2793,6.2793,6.2793,6.2793,6.2793,6.2793,6.2793,6.2793,6.2793,6.2793,6.2793,6.2793,6.2793,6.2793,6.2793,6.2793,6.2793,6.2793,6.305,0.0,0.0,0.0,0.0,0.0,0.0,0.0,0.0,0.0,0.0,0.0,0.0,0.0,0.0,0.0,0.0,0.0,0.0,0.0,0.0,3.2732,3.3715,3.4759,3.5564,3.6186,3.7044,3.7676,3.8072,3.8072,3.8285,3.8681,3.8681,3.8681,3.8681,3.8681,3.8681,3.8681,3.8681,3.8909,3.9276,3.9276,3.9753,4.0524,4.0891,4.1552,4.2359,4.2727,0.0,0.0,0.0,0.0,0.0,0.0,0.0,4.8491,4.9547,5.06,5.1654,5.2849,5.413,5.5344,5.639,5.7743,5.9204,6.0517,6.0787,6.0787,6.0787,6.0787,6.0787,6.0787,6.0787,6.0787,6.0787,6.0787,6.0787,6.0787,6.0787,6.0628,6.0154,5.9885,5.9458,5.8756,5.8492,5.8238,5.802,5.7997,5.818,5.8609,5.9747,6.0603,6.1006,6.2169,6.2793,6.2793,6.2793,6.2793,6.2793,6.2793,6.2793,6.2793,6.2793,6.2793,6.2793,6.2793,6.2793,6.2793,6.2793,6.2793,6.2793,6.2793,6.2793,6.2793,6.2793,6.2793,6.305,0.0,0.0,0.0,0.0,0.0,0.0,0.0,0.0,0.0,0.0,0.0,0.0,0.0,0.0,0.0,0.0,0.0,0.0,0.0,0.0,0.0,3.4529,3.5434,3.6406,3.7485,3.7639,3.8036,3.8681,3.8681,3.8681,3.8681,3.8681,3.8681,3.8681,3.8681,3.8791,3.8909,3.8909,3.9386,4.012,4.012,4.0598,4.1397,4.2057,4.2396,0.0,4.3433,4.4121,4.4737,4.503,0.0,0.0,0.0,0.0,4.8566,4.9851,5.0791,5.1752,5.3368,5.4549,5.581,5.7784,5.8896,5.9742,6.0589,6.0787,6.0787,6.0787,6.0787,6.0787,6.0787,6.0787,6.0787,6.0787,6.0787,6.0787,6.0787,6.0787,6.0647,6.0283,6.0089,5.9658,5.8903,5.8736,5.8524,5.8042,5.8063,5.8074,5.8008,5.9538,6.0419,6.0419,6.1949,6.2793,6.2793,6.2793,6.2793,6.2793,6.2793,6.2793,6.2793,6.2793,6.2793,6.2793,6.2793,6.2793,6.2793,6.2793,6.2793,6.2793,6.2793,6.2793,6.2793,6.2793,6.2903,6.3233,0.0,0.0,0.0,0.0,0.0,0.0,0.0,0.0,0.0,0.0,0.0,0.0,0.0,0.0,0.0,0.0,0.0,0.0,3.2413,0.0,0.0,3.5319,3.6562,3.7338,3.7492,3.8182,3.8571,3.8681,3.8681,3.8681,3.8681,3.8681,3.8681,3.8681,3.8681,3.9093,3.9761,3.9761,4.0194,4.0956,4.0956,4.1434,4.2139,4.2249,0.0,0.0,0.0,4.4626,4.492,4.6305,4.6929,0.0,0.0,0.0,4.8609,5.022,5.1055,5.1762,5.3353,5.4986,5.6542,5.7937,5.8896,5.9742,6.0589,6.0787,6.0787,6.0787,6.0787,6.0787,6.0787,6.0787,6.0787,6.0787,6.0787,6.0787,6.0787,6.0787,6.0769,6.0728,5.9977,5.9432,5.931,5.8951,5.8524,5.8042,5.8365,5.8429,5.8031,5.9538,6.0419,6.0419,6.1949,6.2793,6.2793,6.2793,6.2793,6.2793,6.2793,6.2793,6.2793,6.2793,6.2793,6.2793,6.2793,6.2793,6.2793,6.2793,6.2793,6.2793,6.2793,6.2793,6.2793,6.2793,6.3282,6.4053,0.0,0.0,0.0,0.0,0.0,0.0,0.0,0.0,0.0,0.0,0.0,0.0,0.0,0.0,0.0,3.2206,3.2708,3.3206,3.3679,3.5075,3.6098,3.6612,3.7607,3.8182,3.8182,3.8505,3.8681,3.8681,3.8681,3.8681,3.8726,3.9166,3.935,3.935,3.935,3.9827,4.0553,4.0553,4.1038,4.1764,4.1764,4.2535,4.3636,0.0,0.0,0.0,0.0,0.0,4.6168,4.6856,4.7406,4.7819,4.8186,0.0,0.0,0.0,5.1229,5.2103,5.3758,5.5609,5.7268,5.8091,5.9281,6.0319,6.0704,6.0787,6.0787,6.0787,6.0787,6.0787,6.0787,6.0787,6.0787,6.0787,6.0787,6.0787,6.0787,6.0787,6.0787,6.0787,6.045,6.0096,5.9823,5.9592,5.9167,5.845,5.858,5.8513,5.8031,5.9538,6.0419,6.0419,6.1949,6.2793,6.2793,6.2793,6.2793,6.2793,6.2793,6.2793,6.2793,6.2793,6.2793,6.2793,6.2793,6.2793,6.2793,6.2793,6.2793,6.2793,6.2793,6.2793,6.2793,6.2793,6.3356,6.4213,0.0,0.0,0.0,0.0,0.0,0.0,0.0,0.0,0.0,0.0,0.0,0.0,0.0,0.0,0.0,0.0,3.3278,3.3765,3.4662,3.6052,3.703,3.7418,3.8251,3.8681,3.8681,3.8681,3.8681,3.8681,3.8681,3.8799,3.9019,3.9606,4.0128,4.0487,4.0304,4.0634,4.1397,4.1397,4.1984,4.291,4.291,4.3746,0.0,0.0,0.0,0.0,0.0,4.6608,4.7113,4.7333,4.7783,4.8296,4.8296,4.8903,0.0,0.0,0.0,5.2595,5.3951,5.5859,5.7558,5.8009,5.9459,6.0787,6.0787,6.0787,6.0787,6.0787,6.0787,6.0787,6.0787,6.0787,6.0787,6.0787,6.0787,6.0787,6.0787,6.0787,6.0787,6.0787,6.0677,6.0489,6.0139,6.011,5.9776,5.8951,5.8884,5.8683,5.8183,5.9584,6.0419,6.0419,6.1949,6.2793,6.2793,6.2793,6.2793,6.2793,6.2793,6.2793,6.2793,6.2793,6.2793,6.2793,6.2793,6.2793,6.2793,6.2793,6.2793,6.2793,6.2793,6.2793,6.2793,6.2793,6.3503,6.4494,0.0,0.0,0.0,0.0,0.0,0.0,0.0,0.0,0.0,0.0,0.0,0.0,3.4006,3.3638,3.3366,3.3387,3.34,3.3715,3.4457,3.6177,3.7203,3.7196,3.8185,0.0,3.8681,3.8681,3.8681,3.8681,3.8681,3.9093,3.9835,3.9871,4.0708,4.2139,4.1397,4.147,4.2249,4.2249,4.3122,4.459,4.459,0.0,0.0,0.0,0.0,0.0,4.6755,4.7076,4.7223,4.7966,4.826,4.8296,4.8296,4.8903,4.9747,0.0,0.0,0.0,5.372,5.5385,5.7131,5.7544,5.9224,6.0787,6.0787,6.0787,6.0787,6.0787,6.0787,6.0787,6.0787,6.0787,6.0787,6.0787,6.0787,6.0787,6.0787,6.0787,6.0787,6.0787,6.043,6.0132,6.011,6.011,5.9893,5.9389,5.9354,5.9148,5.8703,5.9777,6.0419,6.0419,6.1949,6.2793,6.2793,6.2793,6.2793,6.2793,6.2793,6.2793,6.2793,6.2793,6.2793,6.2793,6.2793,6.2793,6.2793,6.2793,6.2793,6.2793,6.2793,6.2793,6.2793,6.2793,6.382,6.5251,0.0,0.0,0.0,0.0,0.0,0.0,0.0,0.0,0.0,0.0,0.0,0.0,0.0,3.4894,3.494,3.4661,3.5057,3.5698,3.6628,3.7282,3.7781,3.8152,3.8525,3.8681,3.8681,3.8681,3.8946,3.946,3.946,3.9863,4.0663,4.1185,4.2037,4.3029,4.2249,4.2608,4.3856,4.3856,4.448,4.5507,4.5756,4.6355,4.7085,4.7343,4.7782,4.8253,4.8544,4.8468,4.8294,4.8591,4.8495,4.8416,4.8976,4.9711,5.0618,5.193,5.2737,5.3303,5.3683,5.5146,5.6723,5.7413,5.8994,6.0443,6.074,6.0787,6.0787,6.0787,6.0787,6.0787,6.0787,6.0787,6.0787,6.0787,6.0787,6.0787,6.0787,6.0787,6.0787,6.0787,6.0647,6.0533,6.0533,6.0533,6.021,5.945,5.9389,5.93,5.9021,5.9913,6.0639,6.1153,6.2242,6.2793,6.2793,6.2793,6.2793,6.2793,6.2793,6.2793,6.2793,6.2793,6.2793,6.2793,6.2793,6.2793,6.2793,6.2793,6.2793,6.2793,6.2793,6.2793,6.2866,6.3429,6.4347,6.5362,0.0,0.0,0.0,0.0,0.0,0.0,0.0,0.0,0.0,0.0,0.0,0.0,0.0,0.0,3.6291,3.5947,3.6387,3.6952,3.7623,3.7807,3.8065,3.8425,3.8611,3.8681,3.8681,3.8681,3.9093,3.9908,3.9908,4.0451,4.1507,4.2323,4.313,4.391,4.3644,4.4085,4.5104,4.5104,4.559,4.6324,4.6748,4.7375,4.8137,4.8393,4.8829,4.934,4.9641,4.9543,4.9404,4.9786,4.9757,4.9619,5.0074,5.0667,5.1463,5.281,5.3214,5.3261,5.3543,5.491,5.6454,5.7035,5.8524,5.9977,6.0469,6.0585,6.0616,6.0763,6.0787,6.0787,6.0787,6.0787,6.0787,6.0787,6.0787,6.0787,6.0787,6.0787,6.0787,6.0787,6.0787,6.0787,6.0787,6.0787,6.0482,5.9674,5.9484,5.9403,5.9442,6.0048,6.0896,6.1961,6.2499,6.2793,6.2793,6.2793,6.2793,6.2793,6.2793,6.2793,6.2793,6.2793,6.2793,6.2793,6.2793,6.2793,6.2793,6.2793,6.2793,6.2793,6.2793,6.2793,6.2903,6.3759,6.4604,6.5398,0.0,0.0,0.0,0.0,0.0,0.0,0.0,0.0,0.0,0.0,0.0,0.0,0.0,0.0,0.0,3.7229,3.722,3.722,3.7229,3.7667,3.7947,3.7955,3.8469,3.8755,3.8755,3.8755,3.9166,3.9981,3.9981,4.0826,4.2396,4.3176,4.4011,4.481,4.559,4.5966,4.5984,4.5966,4.6388,4.7159,4.7602,4.8232,4.894,4.9011,4.9019,4.9094,4.9977,5.0267,5.0438,5.1631,5.2016,5.1918,5.1539,5.1703,5.2197,5.2957,5.3214,5.3214,0.0,0.0,0.0,5.633,5.7884,5.9501,5.9977,6.011,6.0217,6.0722,6.0787,6.0787,6.0787,6.0787,6.0787,6.0787,6.0787,6.0787,6.0787,6.0787,6.0787,6.0787,6.0787,6.0787,6.0787,6.0787,6.0616,6.0139,5.9688,5.9552,5.9905,6.0294,6.119,6.2756,6.2793,6.2793,6.2793,6.2793,6.2793,6.2793,6.2793,6.2793,6.2793,6.2793,6.2793,6.2793,6.2793,6.2793,6.2793,6.2793,6.2793,6.2793,6.2793,6.2829,6.2939,6.3796,6.464,6.5435,0.0,0.0,0.0,0.0,0.0,0.0,0.0,0.0,0.0,0.0,0.0,0.0,0.0,3.8015,3.7878,3.8242,3.7938,3.7887,3.8242,3.8409,3.8736,3.9329,3.9478,3.9827,4.0398,4.0443,4.081,4.1625,4.2221,4.302,4.4039,4.4856,4.5663,4.6452,4.6672,4.7251,4.8004,4.7132,4.7232,4.8079,4.9412,4.9695,4.9514,5.1319,5.1614,5.1188,5.2073,5.2196,5.2009,5.2301,5.2046,5.1597,5.1795,5.232,0.0,5.3141,5.3214,5.3324,5.3911,0.0,0.0,0.0,0.0,0.0,5.9916,6.011,6.0217,6.0722,6.0787,6.0787,6.0787,6.0787,6.0787,6.0787,6.0787,6.0787,6.0787,6.0787,6.0787,6.0787,6.0787,6.0787,6.0787,6.0787,6.0616,6.0139,5.9688,5.9806,6.0714,6.1659,6.2352,6.2793,6.2793,6.2793,6.2793,6.2793,6.2793,6.2793,6.2793,6.2793,6.2793,6.2793,6.2793,6.2793,6.2793,6.2793,6.2793,6.2793,6.2793,6.2793,6.2793,6.3196,6.3833,6.4677,6.5485,6.6292,0.0,0.0,0.0,0.0,0.0,0.0,0.0,0.0,0.0,0.0,0.0,0.0,0.0,0.0,3.8494,3.9143,3.8907,3.9012,3.9656,3.9709,3.9892,4.0377,4.0414,4.0626,4.1095,4.1434,4.1984,4.28,4.3608,4.4415,4.5223,4.6021,4.6645,4.7122,4.8016,4.8794,4.9416,4.9245,4.9202,4.946,5.077,5.1092,5.094,5.24,5.2647,5.2302,5.3184,5.3342,5.3219,5.3731,5.3352,5.2718,5.2958,5.3114,0.0,5.3214,5.3214,5.3398,0.0,0.0,5.5845,5.6953,0.0,0.0,5.9584,5.9816,5.9984,6.0653,6.0787,6.0787,6.0787,6.0787,6.0787,6.0787,6.0787,6.0787,6.0787,6.0787,6.0787,6.0787,6.0787,6.0787,6.0787,6.0787,6.0616,6.0139,5.9688,5.9788,6.0752,6.207,6.2793,6.2793,6.2793,6.2793,6.2793,6.2793,6.2793,6.2793,6.2793,6.2793,6.2793,6.2793,6.2793,6.2793,6.2793,6.2793,6.2793,6.2793,6.2793,6.2829,6.3209,6.3649,6.4249,6.5375,6.6109,6.6623,0.0,0.0,0.0,0.0,0.0,0.0,0.0,0.0,0.0,0.0,3.8791,3.8865,3.8975,0.0,0.0,0.0,4.001,4.0341,4.1058,4.1095,0.0,4.136,4.136,4.147,4.1617,4.2314,4.3057,4.3763,4.4553,4.5324,4.6067,4.6865,4.7297,4.7518,0.0,0.0,5.0543,5.1646,5.1789,5.128,5.1947,5.2361,5.2628,5.2856,5.2907,5.2907,5.3785,5.4085,5.4243,5.528,5.516,5.4539,5.4444,5.3953,5.3408,5.3345,5.3398,5.3654,5.4436,0.0,0.0,5.6748,5.7483,0.0,5.9102,5.931,5.9559,6.0469,6.0641,6.0641,6.0641,6.0641,6.0641,6.0641,6.071,6.0746,6.0781,6.0787,6.0787,6.0787,6.0787,6.0787,6.0787,6.0787,6.0628,6.0196,5.9864,5.9879,6.0369,6.1912,6.2793,6.2793,6.2793,6.2793,6.2793,6.2793,6.2793,6.2793,6.2793,6.2793,6.2793,6.2793,6.2793,6.2793,6.2793,6.2793,6.2793,6.2793,6.2793,6.2903,6.3759,6.4139,6.4433,6.5925,6.6549,6.6733,0.0,0.0,0.0,0.0,0.0,0.0,0.0,0.0,0.0,0.0,3.9276,3.99,4.0553,0.0,0.0,0.0,4.0883,4.092,4.1095,4.1095,4.169,4.2992,4.3029,4.3653,4.4929,4.5112,4.5259,4.5452,4.6241,4.6709,4.6892,4.7672,4.8606,4.9603,5.0024,5.0919,5.2178,5.2726,5.3287,5.3754,5.362,5.3175,5.2768,5.4467,5.4704,5.4243,5.505,5.5358,5.533,5.5249,5.5121,5.4862,5.417,5.4243,5.4598,5.427,5.462,5.5328,5.6113,5.6455,5.6748,5.7556,5.7886,0.0,5.8723,5.8835,5.9009,5.9551,5.9658,5.9658,5.9658,5.9658,5.9658,5.9658,5.9977,6.0358,6.0746,6.0787,6.0787,6.0787,6.0787,6.0787,6.0787,6.0787,6.0757,6.0659,6.1101,6.1057,6.0442,6.1912,6.2793,6.2793,6.2793,6.2793,6.2793,6.2793,6.2793,6.2793,6.2793,6.2793,6.2793,6.2793,6.2793,6.2793,6.2793,6.2793,6.2793,6.2793,6.2793,6.2903,6.3759,6.4494,6.5191,6.6145,6.6916,6.748,0.0,0.0,0.0,0.0,0.0,0.0,0.0,0.0,0.0,3.9856,4.0259,4.0663,4.1067,0.0,0.0,0.0,0.0,0.0,0.0,0.0,4.3864,4.4681,4.4718,4.5085,4.5883,4.6287,4.6498,4.6498,4.7305,4.8034,4.8659,4.9066,4.9898,5.1142,5.1759,5.2485,5.3309,5.4097,5.4706,5.5066,5.465,5.4352,5.4252,5.5308,5.5439,5.5164,5.5555,5.5978,5.6302,5.611,5.6011,5.5959,5.5772,5.5659,5.562,5.5401,5.5616,5.6071,5.6643,5.6811,5.7005,5.7813,5.7997,0.0,0.0,5.8713,5.8825,5.9293,5.9389,5.9389,5.9389,5.9389,5.9389,5.9389,5.9808,6.011,6.011,6.0502,6.0787,6.0787,6.0787,6.0787,6.0787,6.0787,6.0616,6.0139,6.1162,6.1384,6.0442,6.1912,6.2793,6.2793,6.2793,6.2793,6.2793,6.2793,6.2793,6.2793,6.2793,6.2793,6.2793,6.2793,6.2793,6.2793,6.2793,6.2793,6.2829,6.3282,6.3466,6.3539,6.4383,6.5191,6.5999,6.6806,6.737,6.77,0.0,0.0,0.0,0.0,0.0,0.0,0.0,0.0,0.0,4.1434,4.1434,4.1507,4.1984,4.1874,0.0,0.0,0.0,0.0,0.0,4.6027,4.6056,4.614,4.614,4.6214,4.6361,4.7159,4.7609,4.7712,4.8494,4.9463,5.0547,5.0547,5.1196,5.2406,5.3458,5.4028,5.4332,5.5462,5.5862,5.5687,5.5701,5.5794,5.5939,5.5939,5.6055,5.6203,5.6203,5.667,5.7247,5.7247,5.7154,5.7108,5.7501,5.7143,5.664,5.6536,5.6628,5.6799,5.6989,5.7031,5.7189,5.785,5.7997,5.8097,0.0,0.0,0.0,5.9037,5.9121,5.9121,5.9121,5.9121,5.9083,5.8933,5.9404,5.9644,5.9131,5.9908,6.0521,6.0521,6.0671,6.0763,6.0659,6.0653,6.029,5.9328,6.0764,6.1284,6.0442,6.1912,6.2793,6.2793,6.2793,6.2793,6.2793,6.2793,6.2793,6.2793,6.2793,6.2793,6.2793,6.2793,6.2793,6.2793,6.2793,6.2793,6.2866,6.3723,6.4213,6.442,6.5228,6.5925,6.6586,6.7407,6.77,6.77,3.9908,3.9761,0.0,0.0,0.0,0.0,0.0,0.0,4.1507,4.3029,4.2616,4.2983,4.5112,4.4709,4.481,0.0,4.6172,4.6238,4.6424,4.6445,0.0,0.0,4.6966,4.7305,4.8003,4.8866,4.95,4.9841,5.0651,5.1311,5.179,5.179,5.2459,5.3677,5.3824,5.4496,5.555,5.6467,5.6401,5.5818,5.7318,5.7483,5.6863,5.6863,5.7324,5.8011,5.8011,5.8088,5.8159,5.8159,5.7883,5.7547,5.7579,5.7734,5.7811,5.7481,5.7866,5.8341,5.7983,5.785,5.7886,5.796,5.7997,5.802,5.8088,0.0,5.8085,5.8153,0.0,5.8164,5.8164,0.0,0.0,5.7206,5.8103,5.8574,5.7815,5.8779,5.9551,5.9551,6.0304,6.0634,6.021,6.0175,5.98,5.8845,6.0275,6.0958,6.0418,6.1912,6.2793,6.2793,6.2793,6.2793,6.2793,6.2793,6.2793,6.2793,6.2793,6.2793,6.2793,6.2793,6.2793,6.2793,6.2793,6.2793,6.2866,6.3723,6.453,6.5251,6.6035,6.6402,6.6586,6.7407,6.77,6.77,4.0663,4.0589,0.0,0.0,0.0,0.0,0.0,0.0,4.4121,4.4791,4.4599,4.4782,4.5773,4.559,4.5868,4.7073,4.7188,4.7375,4.7859,4.8319,0.0,0.0,4.8994,4.9397,4.9728,0.0,0.0,5.0554,5.1361,5.2051,5.2711,5.2992,5.3779,5.4954,5.4954,5.5214,5.5747,5.6632,5.6786,5.6593,5.8319,5.8781,5.8401,5.7934,5.7973,5.8313,5.8313,5.8583,5.9006,5.9006,5.9019,5.9109,5.937,5.9177,5.8818,5.866,5.8661,5.8601,5.813,5.8183,5.8321,5.8088,5.8194,5.8311,5.804,5.7997,5.7997,5.7997,0.0,0.0,0.0,0.0,0.0,0.0,5.8164,5.85,5.7867,5.8717,5.9389,5.9389,5.976,5.9908,5.969,5.9931,5.9728,5.8756,6.0183,6.0892,6.0443,6.1912,6.2793,6.2793,6.2793,6.2793,6.2793,6.2793,6.2793,6.2793,6.2793,6.2793,6.2793,6.2793,6.2793,6.2793,6.2793,6.3086,6.3613,6.4457,6.5264,6.6072,6.688,6.7187,6.726,6.759,6.77,6.77,0.0,0.0,0.0,0.0,0.0,0.0,0.0,4.5372,4.6179,4.6493,4.625,4.6252,4.6826,4.6695,4.7029,4.8235,4.8544,4.8919,4.9512,5.0322,5.0621,5.0287,5.0701,5.1024,5.1129,5.1508,0.0,5.1639,5.2474,5.3191,5.3891,5.4237,5.4975,5.6055,5.6055,5.6209,5.6472,5.7324,5.7555,5.7517,5.9165,5.9858,5.9781,5.9204,5.8858,5.866,5.8896,5.9358,5.9858,5.9858,5.9946,6.0175,6.0647,6.0224,5.9576,5.9576,5.9346,5.8961,5.8343,5.845,5.858,5.8119,5.8249,5.8418,5.8063,5.7997,5.7997,5.7997,5.7997,0.0,0.0,0.0,5.7923,5.7703,0.0,5.8312,5.7771,5.8432,5.9028,5.9028,5.9121,5.9203,5.9203,5.9509,5.9372,5.856,5.9987,6.0762,6.0406,6.1912,6.2793,6.2793,6.2793,6.2793,6.2793,6.2793,6.2793,6.2793,6.2793,6.2793,6.2793,6.2793,6.2793,6.2793,6.2793,6.3282,6.4176,6.4971,6.5765,6.6586,6.7407,6.77,6.77,6.77,6.77,6.77,4.6921,4.5354,0.0,0.0,4.6636,4.6921,4.6996,4.6712,4.6891,4.8058,4.7215,4.7227,4.9159,4.869,4.8699,4.9904,5.0741,5.1205,5.1199,5.205,5.2326,5.1956,5.1557,5.1561,5.1964,5.2343,5.2948,5.3791,5.4598,5.523,5.5605,5.5654,5.6121,5.6945,5.6945,5.744,5.828,5.9088,5.8973,5.8396,6.0089,6.0748,6.0748,6.0748,6.0204,5.9588,6.0435,6.0748,6.0748,6.0748,6.045,6.0175,6.0647,6.0476,6.0089,6.0089,6.0081,5.9855,5.8932,5.8703,5.858,5.8119,5.802,5.802,5.8008,5.7997,5.7997,5.7997,5.7997,5.7997,5.7997,5.7997,0.0,0.0,5.7494,0.0,0.0,5.7517,5.8017,5.8017,5.845,5.8706,5.8706,5.8753,5.8528,5.8077,5.9525,6.0431,6.0419,6.1912,6.2793,6.2793,6.2793,6.2793,6.2793,6.2793,6.2793,6.2793,6.2793,6.2793,6.2793,6.2793,6.2793,6.2793,6.2793,6.3282,6.4176,6.4971,6.5765,6.6586,6.7407,6.77,6.77,6.77,6.77,6.77,0.0,0.0,0.0,4.6953,4.7023,4.7294,4.781,4.8248,4.8611,4.9044,4.9227,4.9619,5.0303,5.0597,5.1026,5.1707,5.2005,5.2158,5.2158,5.2946,5.32,5.2794,5.3233,5.3527,5.3632,5.4065,5.4284,5.4284,5.5696,5.6278,5.618,5.7036,5.7588,5.7857,5.7857,5.8011,5.8352,5.9165,5.9358,5.9204,6.0319,6.0787,6.0787,6.0787,6.0633,6.0396,6.071,6.0787,6.0787,6.0787,6.0677,6.0603,6.0752,6.0482,6.011,6.011,5.9878,5.9559,5.9239,5.9381,5.9432,5.8662,5.8713,5.8756,5.8153,5.7997,5.7997,5.7997,5.7997,5.7997,5.7997,5.7997,0.0,0.0,0.0,5.7886,0.0,5.7813,5.7997,5.7997,5.8418,5.857,5.8271,5.8534,5.8746,5.8802,5.9795,6.0639,6.1153,6.2205,6.2793,6.2793,6.2793,6.2793,6.2793,6.2793,6.2793,6.2793,6.2793,6.2793,6.2793,6.2793,6.2793,6.2829,6.3429,6.4127,6.4971,6.5778,6.6549,6.7333,6.759,6.77,6.77,6.77,6.77,6.77,4.9892,5.0248,4.9945,4.8441,4.8523,4.8985,4.9505,5.0149,5.0634,5.0792,5.1174,5.1489,5.1648,5.2124,5.252,5.2806,5.3092,5.3289,5.3289,5.4031,5.4352,5.4103,5.4479,5.4775,5.4912,5.5327,5.5524,5.5382,5.6789,5.7344,5.7111,5.792,5.8467,5.8742,5.8742,5.8896,5.9204,5.9742,5.9973,6.0012,6.055,6.0787,6.0787,6.0787,6.0787,6.0787,6.0787,6.0787,6.0787,6.0787,6.0787,6.0787,6.0787,6.0603,6.0345,6.0345,6.0139,5.9862,5.9674,5.987,5.9908,5.913,5.9167,5.9185,5.8429,5.8249,5.8249,5.8249,5.8119,5.8097,5.8439,5.8216,0.0,0.0,0.0,0.0,0.0,5.7997,5.7997,5.7997,5.8271,5.8348,5.8042,5.8282,5.8669,5.9146,5.993,6.075,6.1557,6.2352,6.2793,6.2793,6.2793,6.2793,6.2793,6.2793,6.2793,6.2793,6.2793,6.2793,6.2793,6.2793,6.2976,6.3282,6.3882,6.4714,6.5765,6.6292,6.6953,6.77,6.77,6.77,6.77,6.77,6.77,6.77,5.3044,5.3197,5.2581,5.0609,5.1218,5.1962,5.1962,5.2328,5.2788,5.3166,5.2897,5.2833,5.321,5.3313,5.3313,5.3313,5.4087,5.4549,5.4549,5.5285,5.5708,5.5747,5.5389,5.5402,5.5818,5.6269,5.6684,5.706,5.7934,5.8352,5.8352,5.839,5.8813,5.955,5.955,6.0012,6.0787,6.0787,6.0787,6.0787,6.0787,6.0787,6.0787,6.0787,6.0787,6.0787,6.0787,6.0787,6.0787,6.0787,6.0787,6.0787,6.0787,6.0787,6.0787,6.0787,6.0787,6.0722,6.0276,6.0139,6.0006,5.9543,5.9424,5.9302,5.8845,5.8716,5.8716,5.8716,5.8375,5.8311,5.9194,5.8642,5.8186,0.0,0.0,0.0,5.7997,5.7997,5.7997,5.7997,5.7997,5.7997,5.7997,5.7997,5.8364,5.9196,5.9967,6.0786,6.1594,6.2389,6.2793,6.2793,6.2793,6.2793,6.2793,6.2793,6.2793,6.2793,6.2793,6.2793,6.2793,6.2793,6.3282,6.4103,6.4139,6.5044,6.6512,6.6549,6.699,6.77,6.77,6.77,6.77,6.77,6.77,6.77,5.3159,5.3197,5.3023,5.2494,5.2656,5.2851,5.2851,5.2986,5.3086,5.3192,5.3683,5.4051,5.4159,5.4703,5.5049,5.5049,5.5241,5.5401,5.5401,5.5593,5.5978,5.6632,5.6565,5.6861,5.7621,5.7745,5.786,5.7973,5.8781,5.9204,5.9204,5.9858,6.0281,6.0473,6.0473,6.0589,6.0787,6.0787,6.0787,6.0787,6.0787,6.0787,6.0787,6.0787,6.0787,6.0787,6.0787,6.0787,6.0787,6.0787,6.0787,6.0787,6.0787,6.0787,6.0787,6.0787,6.0787,6.0769,6.0647,6.0622,6.0502,6.0059,5.9916,5.9808,5.9319,5.9212,5.9212,5.9212,5.9112,5.9018,5.8903,5.8693,5.845,0.0,0.0,0.0,5.7997,5.7997,5.7997,5.7997,5.7997,5.7997,5.7997,5.7997,5.8584,6.0003,6.026,6.0994,6.2426,6.2683,6.2793,6.2793,6.2793,6.2793,6.2793,6.2793,6.2793,6.2793,6.2793,6.2793,6.2793,6.2793,6.3282,6.4139,6.4714,6.5558,6.6549,6.7136,6.7517,6.77,6.77,6.77,6.77,6.77,6.77,6.77,5.4203,5.428,5.428,5.428,5.428,5.4164,5.3818,5.4087,5.428,5.428,5.4703,5.5011,5.5011,5.5439,5.5862,5.6247,5.6285,5.6439,5.6819,5.6857,5.7049,5.7555,5.7555,5.778,5.8275,5.8621,5.8813,5.8813,5.9665,6.0089,6.0089,6.0556,6.0787,6.0787,6.0787,6.0787,6.0787,6.0787,6.0787,6.0787,6.0787,6.0787,0.0,6.0787,6.0787,6.0787,6.0787,6.0787,6.0787,6.0787,6.0787,6.0787,6.0787,6.0787,6.0787,6.0787,6.0787,6.0787,6.0787,6.0787,6.074,6.0476,6.043,6.0297,5.9823,5.9728,5.9728,5.9728,5.9534,5.9441,5.9576,5.9102,5.8539,5.8063,5.7997,5.7997,5.7997,5.7997,5.7997,5.7997,5.7997,5.7997,5.7997,5.8327,5.8902,5.982,6.0529,6.1337,6.2218,6.2609,6.2793,6.2793,6.2793,6.2793,6.2793,6.2793,6.2793,6.2793,6.2793,6.2793,6.2793,6.3196,6.3833,6.4677,6.5485,6.6292,6.7063,6.7517,6.77,6.77,6.77,6.77,6.77,6.77,6.77,6.77,5.5708,5.5862,5.5901,5.6016,5.6055,5.578,5.5088,5.5395,5.5747,5.5862,5.5862,5.5901,5.6016,5.6055,5.6362,5.7093,5.717,5.7478,5.8236,5.8313,5.8352,5.8467,5.8467,5.8511,5.8627,5.9319,5.9665,5.9665,6.0435,6.0787,6.0787,6.0787,6.0787,6.0787,6.0787,6.0787,6.0787,6.0787,6.0787,6.0787,6.0787,6.0787,6.0787,6.0787,6.0787,6.0787,6.0787,6.0787,6.0787,6.0787,6.0787,6.0787,6.0787,6.0787,6.0787,6.0787,6.0787,6.0787,6.0787,6.0787,6.0787,6.0787,6.0787,6.0671,6.0297,6.0182,6.0182,6.0182,5.987,5.9823,6.0585,5.9642,5.8621,5.8074,5.8065,5.8051,5.8008,5.7997,5.7997,5.7997,5.7997,0.0,5.7997,5.8609,5.9123,5.9343,6.0639,6.152,6.1741,6.2426,6.2793,6.2793,6.2793,6.2793,6.2793,6.2793,6.2793,6.2793,6.2793,6.2793,6.2829,6.3686,6.453,6.5325,6.6145,6.6966,6.77,6.77,6.77,6.77,6.77,6.77,6.77,6.77,6.77,6.77,5.6593,5.6786,5.7016,5.7703,5.7857,5.7819,5.7665,5.6511,5.5978,5.667,5.6786,5.7055,5.778,5.7857,5.7896,5.805,5.8088,5.8127,5.8275,5.8313,5.8583,5.9281,5.9281,5.9627,6.0358,6.0517,6.0556,6.0556,6.0748,6.0787,6.0787,6.0787,6.0787,6.0787,6.0787,6.0787,6.0787,6.0787,6.0787,6.0787,6.0787,6.0787,6.0787,6.0787,6.0787,6.0787,6.0787,6.0787,6.0787,6.0787,6.0787,6.0787,6.0787,6.0787,6.0787,6.0787,6.0787,6.0787,6.0787,6.0787,6.0787,6.0787,6.0787,6.0769,6.0716,6.0665,6.0665,6.0665,6.0616,6.0489,6.0238,5.9682,5.9009,5.8142,5.83,5.845,5.8029,5.7997,5.7997,5.7997,5.7997,5.7997,5.7997,5.8143,5.8767,6.0077,6.0456,6.119,6.2536,6.2719,6.2793,6.2793,6.2793,6.2793,6.2793,6.2793,6.2793,6.2793,6.2793,6.2793,6.2829,6.3686,6.453,6.5325,6.6145,6.6966,6.77,6.77,6.77,6.77,6.77,6.77,6.77,6.77,6.77,6.77,5.7588,5.7665,5.7819,5.8242,5.8313,5.8313,5.8313,5.7588,5.7203,5.7627,5.7665,5.7819,5.8236,5.8313,5.8467,5.8896,5.8934,5.9127,5.9588,5.9588,5.9781,6.0165,6.0165,6.0358,6.0787,6.0787,6.0787,6.0787,6.0787,6.0787,6.0787,6.0787,6.0787,6.0787,6.0787,6.0787,6.0787,6.0787,6.0787,6.0787,6.0787,6.0787,6.0787,6.0787,6.0787,6.0787,6.0787,6.0787,6.0787,6.0787,6.0787,6.0787,6.0787,6.0787,6.0787,6.0787,6.0787,6.0787,6.0787,6.0787,6.0787,6.0787,6.0787,6.0787,6.0787,6.0787,6.0787,6.0787,6.0787,6.0647,6.0182,5.9736,5.9239,5.8796,5.8723,5.8723,5.8706,5.8858,5.8998,5.8998,5.9136,5.9245,5.9245,5.9245,5.9391,5.9747,6.0921,6.1802,6.2144,6.2572,6.2793,6.2793,6.2793,6.2793,6.2793,6.2793,6.2793,6.2793,6.2793,6.305,6.3503,6.4347,6.5154,6.5962,6.6769,6.7333,6.77,6.77,6.77,6.77,6.77,6.77,6.77,6.77,6.77,6.77,5.8506,5.855,5.8627,5.8819,5.8813,5.8813,5.8813,5.8813,5.8781,5.8583,5.855,5.8627,5.8819,5.8813,5.9088,5.9704,5.9781,6.0089,6.0748,6.0787,6.0787,6.0787,6.0787,6.0787,6.0787,6.0787,6.0787,6.0787,6.0787,6.0704,6.0512,6.0704,6.0787,6.0787,6.0787,6.0787,6.0787,6.0787,6.0787,6.0787,6.0787,6.0787,6.0787,6.0787,6.0787,6.0787,6.0787,6.0787,6.0787,6.0787,6.0787,6.0787,6.0787,6.0787,6.0787,6.0787,6.0787,6.0787,6.0787,6.0787,6.0787,6.0787,6.0787,6.0787,6.0787,6.0787,6.0787,6.0787,6.0787,6.0647,6.0182,5.9878,5.966,5.9547,5.9394,5.9384,5.9748,6.0008,6.0183,6.0183,6.0302,6.0419,6.0419,6.0566,6.037,5.9747,6.1471,6.2352,6.1887,6.2462,6.2793,6.2793,6.2793,6.2793,6.2793,6.2793,6.2793,6.2793,6.2793,6.3282,6.4139,6.4934,6.5729,6.6549,6.737,6.77,6.77,6.77,6.77,6.77,6.77,6.77,6.77,6.77,6.77,6.77,5.9242,5.9396,5.9627,6.0435,6.0556,6.0556,6.0556,6.0556,6.0281,5.9473,5.9396,5.9704,6.0473,6.0556,6.0589,6.0671,6.0671,6.0704,6.0787,6.0787,6.0787,6.0787,6.0787,6.0787,6.0787,6.0787,6.0787,6.0787,6.0787,6.0396,5.9627,6.0435,6.0787,6.0787,6.0787,6.0787,6.0787,6.0787,6.0787,6.0787,6.0787,6.0787,6.0787,6.0787,6.0787,6.0787,6.0787,6.0787,6.0787,6.0787,6.0787,6.0787,6.0787,6.0787,6.0787,6.0787,6.0787,6.0787,6.0787,6.0787,6.0787,6.0787,6.0787,6.0787,6.0787,6.0787,6.0787,6.0787,6.0787,6.0647,6.0182,6.0391,6.0492,5.9925,6.0565,6.1123,6.1025,6.1075,6.1081,6.1081,6.0694,6.0419,6.0419,6.1043,6.1459,6.1374,6.1594,6.1998,6.2646,6.2756,6.2793,6.2793,6.2793,6.2793,6.2793,6.2793,6.2793,6.2793,6.2793,6.3282,6.4139,6.4934,6.5729,6.6549,6.737,6.77,6.77,6.77,6.77,6.77,6.77,6.77,6.77,6.77,6.77,6.77,6.0204,6.0281,6.0396,6.0748,6.0787,6.0787,6.0787,6.0787,6.0671,6.0319,6.0281,6.0396,6.0748,6.0787,6.0787,6.0787,6.0787,6.0787,6.0787,6.0787,6.0787,6.0787,6.0787,6.0787,6.0787,6.0787,6.0787,6.0787,6.0787,6.0633,6.0281,6.0633,6.0787,6.0787,6.0787,6.0787,6.0787,6.0787,6.0787,6.0787,6.0787,6.0787,6.0787,6.0787,6.0787,6.0787,6.0787,6.0787,6.0787,6.0787,6.0787,6.0787,6.0787,6.0787,6.0787,6.0787,6.0787,6.0787,6.0787,6.0787,6.0787,6.0787,6.0787,6.0787,6.0787,6.121,6.1595,6.1595,6.1973,6.2239,6.2068,6.195,6.1903,6.1926,6.2041,6.2186,6.2436,6.2405,6.2332,6.2332,6.2045,6.1838,6.1838,6.2132,6.2328,6.2328,6.2328,6.2462,6.2793,6.2793,6.2793,6.2793,6.2793,6.2793,6.2793,6.2793,6.2793,6.2793,6.3319,6.4016,6.4861,6.5668,6.6476,6.726,6.7554,6.77,6.77,6.77,6.77,6.77,6.77,6.77,6.77,6.77,6.77,6.77,6.0958,6.0958,6.0958,6.0958,6.0958,6.0958,6.0958,6.0958,6.0933,6.085,6.0877,6.0845,6.0793,6.0787,6.0787,6.0787,6.0787,6.0787,6.0787,6.0787,6.0787,6.0787,6.0787,6.0787,6.0787,6.0787,6.0787,6.0787,6.0787,6.0671,6.0435,6.0435,6.055,6.0787,6.0787,6.0787,6.0787,6.0787,6.0787,6.0787,6.0787,6.0787,6.0787,6.0787,6.0787,6.0787,6.0787,6.0787,6.0787,6.0787,6.0787,6.0787,6.0787,6.0787,6.0787,6.0787,6.0787,6.0864,6.1095,6.1172,6.1248,6.1473,6.155,6.155,6.155,6.2012,6.2441,6.2441,6.2897,6.3314,6.3314,6.3045,6.2961,6.3372,6.3316,6.335,6.3762,6.3612,6.3493,6.3493,6.307,6.2793,6.2793,6.2793,6.2793,6.2793,6.2793,6.2793,6.2793,6.2793,6.2793,6.2793,6.2793,6.2793,6.2793,6.2793,6.2793,6.2793,6.3686,6.453,6.5325,6.6366,6.715,6.77,6.77,6.77,6.77,6.77,6.77,6.77,6.77,6.77,6.77,6.77,6.77,6.77,6.128,6.128,6.128,6.128,6.128,6.128,6.128,6.128,6.122,6.1027,6.0997,6.0944,6.0821,6.0787,6.0787,6.0787,6.0787,6.0787,6.0787,6.0787,6.0787,6.0787,6.0787,6.0787,6.0787,6.0787,6.0787,6.0787,6.0787,6.0358,5.9511,5.9511,5.9973,6.0787,6.0787,6.0787,6.0787,6.0787,6.0787,6.0787,6.0787,6.0787,6.0787,6.0787,6.0787,6.0787,6.0787,6.0787,6.0787,6.0787,6.0787,6.0787,6.0787,6.0787,6.0787,6.0787,6.0787,6.0979,6.1864,6.2095,6.2287,6.3083,6.3275,6.3275,6.3275,6.3275,6.3275,6.3275,6.3275,6.3314,6.3314,6.3308,6.3386,6.3749,6.4238,6.4692,6.5016,6.4687,6.4379,6.4379,6.3464,6.2793,6.2793,6.2793,6.2793,6.2793,6.2793,6.2793,6.2793,6.2793,6.2793,6.2793,6.2793,6.2793,6.2793,6.2793,6.2793,6.2793,6.3686,6.453,6.5362,6.6966,6.77,6.77,6.77,6.77,6.77,6.77,6.77,6.77,6.77,6.77,6.77,6.77,6.77,6.77,6.1286,6.1286,6.1286,6.1286,6.1286,6.1286,6.1286,6.1286,6.1268,6.1214,6.1093,6.097,6.093,6.0834,6.0787,6.0787,6.0787,6.0787,6.0787,6.0787,6.0787,6.0787,6.0787,6.0787,6.0787,6.0787,6.0787,6.0787,6.0787,6.0666,6.0396,6.0396,6.0512,6.0787,6.0787,6.0787,6.0787,6.0787,6.0787,6.0787,6.0787,6.0787,6.0787,6.0787,6.0787,6.0787,6.0787,6.0787,6.0787,6.0787,6.1172,6.1672,6.1672,6.1672,6.1672,6.1672,6.205,6.2545,6.2858,6.2935,6.2974,6.3237,6.3314,6.3314,6.3314,6.3775,6.4359,6.4936,6.5051,6.5051,6.5051,6.5051,6.5096,6.5216,6.5365,6.5513,6.5638,6.5207,6.4866,6.4866,6.4303,6.3755,6.3374,6.3328,6.3191,6.283,6.2793,6.2793,6.2793,6.2793,6.2793,6.2793,6.2793,6.2793,6.2793,6.2793,6.3086,6.3686,6.453,6.5632,6.6953,6.748,6.77,6.77,6.77,6.77,6.77,6.77,6.77,6.77,6.77,6.77,6.77,6.77,6.77,6.77,6.143,6.143,6.143,6.143,6.143,6.143,6.143,6.143,6.1417,6.1373,6.1237,6.1093,6.101,6.0887,6.0787,6.0787,6.0787,6.0787,6.0787,6.0787,6.0787,6.0787,6.0787,6.0787,6.0787,6.0787,6.0787,6.0787,6.0787,6.0787,6.0787,6.0787,6.0787,6.0787,6.0787,6.0787,6.0787,6.0787,6.0787,6.0787,6.0787,6.0787,6.0787,6.0787,6.0787,6.0787,6.0787,6.1018,6.1287,6.1287,6.1864,6.2557,6.2557,6.2787,6.298,6.2666,6.2897,6.3352,6.3698,6.3775,6.3852,6.4199,6.4282,6.4282,6.4282,6.4705,6.5243,6.5788,6.5904,6.5904,6.5904,6.5904,6.5904,6.5904,6.5904,6.5904,6.5904,6.5439,6.5107,6.5107,6.4518,6.3985,6.3615,6.3419,6.3156,6.283,6.2793,6.2793,6.2793,6.2793,6.2793,6.2793,6.2793,6.2793,6.2793,6.2793,6.3246,6.4103,6.5228,6.6439,6.77,6.77,6.77,6.77,6.77,6.77,6.77,6.77,6.77,6.77,6.77,6.77,6.77,6.77,6.77,6.77,6.1719,6.1719,6.1719,6.1719,6.1719,6.1719,6.1719,6.1719,6.1677,6.152,6.1387,6.1246,6.1069,6.089,6.0816,6.0816,6.0798,6.0787,6.0787,6.0787,6.0787,6.0787,6.0787,6.0787,6.0787,6.0787,6.0787,6.0787,6.0787,6.0787,6.0787,6.0787,6.0787,6.0787,6.0787,6.0787,6.0787,6.0787,6.0787,6.0787,6.0787,6.0787,6.0825,6.0864,6.0902,6.0902,6.0935,6.1479,6.2172,6.2172,6.2704,6.3391,6.3391,6.4006,6.4512,6.366,6.3429,6.366,6.4474,6.4705,6.4897,6.5705,6.5904,6.5904,6.5904,6.5904,6.5904,6.5904,6.5904,6.5904,6.5904,6.5904,6.5904,6.5904,6.5904,6.5904,6.5904,6.5461,6.5146,6.5146,6.4313,6.368,6.3648,6.3168,6.2842,6.2793,6.2793,6.2793,6.2793,6.2793,6.2793,6.2793,6.2793,6.2793,6.2793,6.2866,6.3356,6.4286,6.5852,6.699,6.77,6.77,6.77,6.77,6.77,6.77,6.77,6.77,6.77,6.77,6.77,6.77,6.77,6.77,6.77,6.77,6.1719,6.1719,6.1719,6.1719,6.1719,6.1719,6.1719,6.1719,6.1679,6.1677,6.1522,6.1424,6.1398,6.1111,6.0954,6.0954,6.0877,6.0787,6.0787,6.0787,6.0787,6.0787,6.0787,6.0787,6.0787,6.0787,6.0787,6.0787,6.0787,6.0787,6.0787,6.0787,6.0787,6.0787,6.0787,6.0787,6.0787,6.0787,6.0787,6.0787,6.0787,6.0787,6.0864,6.1556,6.1787,6.1864,6.2474,6.2852,6.3006,6.3006,6.3583,6.4282,6.4282,6.4897,6.5436,6.4551,6.4743,6.532,6.5551,6.559,6.5628,6.5865,6.5904,6.5904,6.5904,6.5904,6.5904,6.5904,6.5904,6.5904,6.5904,6.5904,6.5904,6.5904,6.5904,6.5904,6.5904,6.5795,6.5703,6.5703,6.5122,6.4617,6.4236,6.3723,6.325,6.283,6.2793,6.2793,6.2793,6.2793,6.2793,6.2793,6.2793,6.2793,6.2793,6.3466,6.4494,6.5925,6.693,6.7517,6.77,6.77,6.77,6.77,6.77,6.77,6.77,6.77,6.77,6.77,6.77,6.77,6.77,6.77,6.77,6.77,6.1719,6.1719,6.1719,6.1719,6.1719,6.1719,6.1719,6.1719,6.1719,6.1719,6.1581,6.1504,6.1504,6.1204,6.1001,6.1001,6.0882,6.0787,6.0787,6.0787,6.0787,6.0787,6.0787,6.0787,6.0787,6.0787,6.0787,6.0787,6.0787,6.0787,6.0787,6.0787,6.0787,6.0787,6.0787,6.0787,6.0787,6.0787,6.0787,6.0819,6.1248,6.1402,6.1479,6.2326,6.2666,6.2704,6.3121,6.3545,6.3891,6.3891,6.4474,6.5205,6.5205,6.5513,6.582,6.532,6.5513,6.5904,6.5904,6.5904,6.5904,6.5904,6.5904,6.5904,6.5904,6.5904,6.5904,6.5904,6.5904,6.5904,6.5904,6.5904,6.5904,6.5904,6.5904,6.5904,6.5904,6.5904,6.5904,6.5904,6.523,6.467,6.4407,6.3691,6.3097,6.2818,6.2793,6.2793,6.2793,6.2793,6.2793,6.2793,6.2793,6.2793,6.2793,6.4016,6.5264,6.6512,6.7333,6.77,6.77,6.77,6.77,6.77,6.77,6.77,6.77,6.77,6.77,6.77,6.77,6.77,6.77,6.77,6.77,6.77,6.1719,6.1719,6.1719,6.1719,6.1719,6.1719,6.1719,6.1719,6.1719,6.1719,6.1587,6.1516,6.1504,6.1226,6.104,6.1006,6.0882,6.0787,6.0787,6.0787,6.0787,6.0787,6.0787,6.0787,6.0787,6.0787,6.0787,6.0787,6.0787,6.0787,6.0787,6.0787,6.0787,6.0787,6.0787,6.0787,6.0825,6.0941,6.1018,6.1056,6.1941,6.2287,6.2364,6.3198,6.3506,6.3506,6.366,6.4166,6.4782,6.4782,6.5282,6.5904,6.5904,6.5904,6.5904,6.5904,6.5904,6.5904,6.5904,6.5904,6.5904,6.5904,6.5904,6.5904,6.5904,6.5904,6.5904,6.5904,6.5904,6.5904,6.5904,6.5904,6.5904,6.5904,6.5904,6.5904,6.5904,6.5904,6.5904,6.5904,6.5089,6.449,6.449,6.3615,6.3014,6.2941,6.2904,6.2892,6.2793,6.2793,6.2793,6.2793,6.2793,6.2903,6.316,6.4701,6.5888,6.6696,6.737,6.77,6.77,6.77,6.77,6.77,6.77,6.77,6.77,6.77,6.77,6.77,6.77,6.77,6.77,6.77,6.77,6.7737,6.1719,6.1719,6.1719,6.1719,6.1719,6.1719,6.1719,6.1719,6.1719,6.1719,6.1679,6.1632,6.1511,6.1354,6.119,6.1019,6.0882,6.0787,6.0787,6.0787,6.0787,6.0787,6.0787,6.0787,6.0787,6.0787,6.0787,6.0787,6.0787,6.0787,6.0787,6.0787,6.0787,6.0787,6.0787,6.0787,6.0864,6.1595,6.1903,6.1979,6.2781,6.3121,6.3198,6.4089,6.4397,6.4474,6.5243,6.559,6.5705,6.5705,6.5788,6.5904,6.5904,6.5904,6.5904,6.5904,6.5904,6.5904,6.5904,6.5904,6.5904,6.5904,6.5904,6.5904,6.5904,6.5904,6.5904,6.5904,6.5904,6.5904,6.5904,6.5904,6.5904,6.5904,6.5904,6.5904,6.5904,6.5904,6.5904,6.5904,6.5374,6.5011,6.5011,6.4481,6.3948,6.352,6.3487,6.3296,6.2818,6.2793,6.2793,6.2793,6.2793,6.349,6.4884,6.5852,6.6733,6.7517,6.7627,6.77,6.77,6.77,6.77,6.77,6.77,6.77,6.77,6.77,6.77,6.77,6.77,6.77,6.77,6.77,6.77,6.7811,6.1719,6.1719,6.1719,6.1719,6.1719,6.1719,6.1719,6.1719,6.1719,6.1719,6.1719,6.1636,6.1511,6.1371,6.122,6.1019,6.0882,6.0787,6.0787,6.0787,6.0787,6.0787,6.0787,6.0787,6.0787,6.0787,6.0787,6.0787,6.0787,6.0787,6.0787,6.0787,6.0787,6.0825,6.1287,6.1518,6.1556,6.2397,6.2743,6.282,6.3666,6.4006,6.4089,6.4974,6.5282,6.5359,6.5743,6.5904,6.5904,6.5904,6.5904,6.5904,6.5904,6.5904,6.5904,6.5904,6.5904,6.5904,6.5904,6.5904,6.5904,6.5904,6.5904,6.5904,6.5904,6.5904,6.5904,6.5904,6.5904,6.5904,6.5904,6.5904,6.5904,6.5904,6.5904,6.5904,6.5904,6.5904,6.5904,6.5904,6.5425,6.5107,6.5107,6.467,6.4284,6.4029,6.3766,6.3498,6.325,6.2953,6.2793,6.2793,6.3282,6.409,6.5288,6.6109,6.688,6.77,6.77,6.77,6.77,6.77,6.77,6.77,6.77,6.77,6.77,6.77,6.77,6.77,6.77,6.77,6.77,6.77,6.77,6.7811,6.1992,6.2187,6.2305,6.2305,6.2305,6.2305,6.2305,6.2305,6.2305,6.2305,6.2305,6.2221,6.2031,6.1938,6.1786,6.1558,6.1456,6.1396,6.1396,6.1396,6.1204,6.0825,6.0787,6.0787,6.0787,6.0787,6.0787,6.0787,6.0787,6.0902,6.1095,6.1095,6.121,6.1396,6.2095,6.2364,6.2441,6.3243,6.3583,6.366,6.4551,6.4897,6.4974,6.5628,6.5904,6.5904,6.5904,6.5904,6.5904,6.5904,6.5904,6.5904,6.5904,6.5904,6.5904,6.5904,6.5904,6.5904,6.5904,6.5904,6.5904,6.5904,6.5904,6.5904,6.5904,6.5904,6.5904,6.5904,6.5904,6.5904,6.5904,6.5904,6.5904,6.5904,6.5904,6.5904,6.5904,6.5904,6.5904,6.5904,6.5542,6.5283,6.5283,6.4962,6.4708,6.4563,6.4069,6.3723,6.362,6.3073,6.2903,6.3086,6.3943,6.4751,6.5582,6.6366,6.71,6.77,6.77,6.77,6.77,6.77,6.77,6.77,6.77,6.77,6.77,6.77,6.77,6.77,6.77,6.77,6.77,6.77,6.77,6.7847,6.289,6.3555,6.4101,6.4101,6.4101,6.4101,6.4101,6.4101,6.4101,6.4101,6.4101,6.4009,6.3673,6.363,6.348,6.3172,6.3134,6.3121,6.3121,6.3121,6.2435,6.0864,6.0787,6.0787,6.0787,6.0787,6.0787,6.0787,6.0787,6.121,6.1979,6.1979,6.2403,6.3121,6.316,6.3198,6.3275,6.4122,6.4512,6.4589,6.5436,6.5782,6.582,6.5859,6.5904,6.5904,6.5904,6.5904,6.5904,6.5904,6.5904,6.5904,6.5904,6.5904,6.5904,6.5904,6.5904,6.5904,6.5904,6.5904,6.5904,6.5904,6.5904,6.5904,6.5904,6.5904,6.5904,6.5904,6.5904,6.5904,6.5904,6.5904,6.5904,6.5904,6.5904,6.5904,6.5904,6.5904,6.5904,6.5904,6.5878,6.5827,6.5827,6.5801,6.5569,6.5091,6.4608,6.4109,6.3615,6.3073,6.3172,6.3992,6.4787,6.5595,6.6402,6.7223,6.7627,6.77,6.77,6.77,6.77,6.77,6.77,6.77,6.77,6.77,6.77,6.77,6.77,6.77,6.77,6.77,6.77,6.77,6.77,6.7921,6.3828,6.4062,6.4297,6.4297,6.4297,6.4297,6.4297,6.4297,6.4256,6.4198,6.4194,6.406,6.372,6.3673,6.3583,6.3312,6.3314,6.3314,6.3314,6.3314,6.3006,6.2391,6.2358,6.2358,6.2358,6.2358,6.2358,6.2358,6.2358,6.2512,6.2858,6.2858,6.3006,6.3314,6.3852,6.4128,6.4166,6.5051,6.5397,6.5436,6.5782,6.5904,6.5904,6.5904,6.5904,6.5904,6.5904,6.5904,6.5904,6.5904,6.5904,6.5904,6.5904,6.5904,6.5904,6.5904,6.5904,6.5904,6.5904,6.5904,6.5904,6.5904,6.5904,6.5904,6.5904,6.5904,6.5904,6.5904,6.5904,6.5904,6.5904,6.5904,6.5904,6.5904,6.5904,6.5904,6.5904,6.5904,6.5904,6.5904,6.5904,6.5904,6.5904,6.5904,6.5808,6.5597,6.5107,6.4617,6.4109,6.3778,6.4237,6.5558,6.5888,6.6182,6.6512,6.7297,6.77,6.77,6.77,6.77,6.77,6.77,6.77,6.77,6.77,6.77,6.77,6.77,6.77,6.77,6.77,6.77,6.77,6.77,6.8031,6.8605,6.4726,6.4922,6.5117,6.5117,6.5117,6.5117,6.5117,6.5117,6.5074,6.4906,6.4896,6.4776,6.4407,6.4396,6.4289,6.4114,6.4122,6.4122,6.4122,6.4122,6.3852,6.3314,6.3314,6.3314,6.3314,6.3314,6.3314,6.3314,6.3314,6.3429,6.3698,6.3698,6.3852,6.4122,6.4743,6.5013,6.5051,6.5628,6.5904,6.5904,6.5904,6.5904,6.5904,6.5904,6.5904,6.5904,6.5904,6.5904,6.5904,6.5904,6.5904,6.5904,6.5904,6.5904,6.5904,6.5904,6.5904,6.5904,6.5904,6.5904,6.5904,6.5904,6.5904,6.5904,6.5904,6.5904,6.5904,6.5904,6.5904,6.5904,6.5904,6.5904,6.5904,6.5904,6.5904,6.5904,6.5904,6.5904,6.5904,6.5904,6.5904,6.5904,6.5904,6.5904,6.5904,6.5904,6.541,6.493,6.4544,6.4716,6.5338,6.6476,6.6733,6.688,6.688,6.7407,6.77,6.77,6.77,6.77,6.77,6.77,6.77,6.77,6.77,6.77,6.77,6.77,6.77,6.77,6.77,6.77,6.77,6.77,6.8201,6.9009,6.5625,6.6328,6.6914,6.6914,6.6914,6.6914,6.6914,6.6914,6.6832,6.6627,6.6616,6.6456,6.6121,6.6104,6.6039,6.589,6.5904,6.5904,6.5904,6.5904,6.5128,6.3391,6.3314,6.3314,6.3314,6.3314,6.3314,6.3314,6.3314,6.3775,6.4628,6.4628,6.5051,6.5904,6.5904,6.5904,6.5904,6.5904,6.5904,6.5904,6.5904,6.5904,6.5904,6.5904,6.5904,6.5904,6.5904,6.5904,6.5904,6.5904,6.5904,6.5904,6.5904,6.5904,6.5904,6.5904,6.5904,6.5904,6.5904,6.5904,6.5904,6.5904,6.5904,6.5904,6.5904,6.5904,6.5904,6.5904,6.5904,6.5904,6.5904,6.5904,6.5904,6.5904,6.5904,6.5904,6.5904,6.5904,6.5904,6.5904,6.5904,6.5904,6.5904,6.5904,6.5904,6.5904,6.541,6.504,6.483,6.5878,6.6512,6.6512,6.7297,6.77,6.77,6.77,6.77,6.77,6.77,6.77,6.77,6.77,6.77,6.77,6.77,6.77,6.77,6.77,6.77,6.77,6.77,6.77,6.77,6.77,6.8201,6.9009,6.6523,6.6719,6.6914,6.6914,6.6914,6.6914,6.6914,6.6914,6.6786,6.6488,6.6457,6.633,6.5997,6.5967,6.5931,6.591,6.5904,6.5904,6.5904,6.5904,6.5673,6.5166,6.5128,6.5128,6.5128,6.5128,6.5128,6.5128,6.5128,6.5243,6.5513,6.5513,6.5628,6.5904,6.5904,6.5904,6.5904,6.5904,6.5904,6.5904,6.5904,6.5904,6.5904,6.5904,6.5904,6.5904,6.5904,6.5904,6.5904,6.5904,6.5904,6.5904,6.5904,6.5904,6.5904,6.5904,6.5904,6.5904,6.5904,6.5904,6.5904,6.5904,6.5904,6.5904,6.5904,6.5904,6.5904,6.5904,6.5904,6.5904,6.5904,6.5904,6.5904,6.5904,6.5904,6.5904,6.5904,6.5904,6.5904,6.5904,6.5904,6.5904,6.5904,6.5904,6.6134,6.6712,6.647,6.6494,6.7006,6.6691,6.6769,6.7333,6.759,6.77,6.77,6.77,6.77,6.77,6.77,6.77,6.77,6.77,6.77,6.77,6.77,6.77,6.77,6.77,6.77,6.77,6.77,6.77,6.77,6.77,6.8582,6.9779,6.6914,6.6914,6.6914,6.6914,6.6914,6.6914,6.6914,6.6833,6.668,6.6423,6.6327,6.6183,6.5921,6.5904,6.5904,6.5904,6.5904,6.5904,6.5904,6.5904,6.5904,6.5904,6.5904,6.5904,6.5904,6.5904,6.5904,6.5904,6.5904,6.5904,6.5904,6.5904,6.5904,6.5904,6.5904,6.5904,6.5904,6.5904,6.5904,6.5904,6.5904,6.5904,6.5904,6.5904,6.5904,6.5904,6.5904,6.5904,6.5904,6.5904,6.5904,6.5904,6.5904,6.5904,6.5904,6.5904,6.5904,6.5904,6.5904,6.5904,6.5904,6.5904,6.5904,6.5904,6.5904,6.5904,6.5904,6.5904,6.5904,6.5904,6.5904,6.5904,6.5904,6.5904,6.5904,6.5904,6.5904,6.5904,6.5904,6.5904,6.6173,6.6365,6.6365,6.6705,6.709,6.759,6.741,6.7492,6.7972,6.7344,6.7187,6.7664,6.77,6.77,6.77,6.77,6.77,6.77,6.77,6.77,6.77,6.77,6.77,6.77,6.77,6.77,6.77,6.77,6.77,6.77,6.77,6.77,6.7737,6.8068,6.8972,7.0146,6.6914,6.6914,6.6914,6.6914,6.6914,6.6875,6.6874,6.6735,6.6539,6.639,6.6204,6.6049,6.5897,6.5904,6.5904,6.5904,6.5904,6.5904,6.5904,6.5904,6.5904,6.5904,6.5904,6.5904,6.5904,6.5904,6.5904,6.5904,6.5904,6.5904,6.5904,6.5904,6.5904,6.5904,6.5904,6.5904,6.5904,6.5904,6.5904,6.5904,6.5904,6.5904,6.5904,6.5904,6.5904,6.5904,6.5904,6.5904,6.5904,6.5904,6.5904,6.5904,6.5904,6.5904,6.5904,6.5904,6.5904,6.5904,6.5904,6.5904,6.5904,6.5904,6.5904,6.5904,6.5904,6.5904,6.5904,6.5904,6.5904,6.5904,6.5904,6.5904,6.5904,6.5904,6.5981,6.6019,6.6019,6.6058,6.6134,6.6134,6.6789,6.7212,6.7212,6.8013,6.8507,6.8507,6.8277,6.8123,6.8123,6.7839,6.77,6.77,6.77,6.77,6.77,6.77,6.77,6.77,6.77,6.77,6.77,6.77,6.77,6.77,6.77,6.77,6.77,6.77,6.77,6.77,6.77,6.77,6.7811,6.8605,6.9412,7.022,6.6914,6.6914,6.6914,6.6914,6.6914,6.6834,6.6687,6.6628,6.6512,6.6204,6.6142,6.6049,6.5897,6.5904,6.5904,6.5904,6.5904,6.5904,6.5904,6.5904,6.5904,6.5904,6.5904,6.5904,6.5904,6.5904,6.5904,6.5904,6.5904,6.5904,6.5904,6.5904,6.5904,6.5904,6.5904,6.5904,6.5904,6.5904,6.5904,6.5904,6.5904,6.5904,6.5904,6.5904,6.5904,6.5904,6.5904,6.5904,6.5904,6.5904,6.5904,6.5904,6.5904,6.5904,6.5904,6.5904,6.5904,6.5904,6.5904,6.5904,6.5904,6.5904,6.5904,6.5904,6.5904,6.5904,6.5904,6.5904,6.5904,6.5904,6.5904,6.5904,6.5904,6.5904,6.6442,6.6827,6.6827,6.7436,6.7853,6.7853,6.8007,6.8129,6.8129,6.8898,6.9436,6.9436,6.9152,6.9001,6.9001,6.8173,6.77,6.77,6.77,6.77,6.77,6.77,6.77,6.77,6.77,6.77,6.77,6.77,6.77,6.77,6.77,6.77,6.77,6.77,6.77,6.77,6.77,6.77,6.7811,6.8605,6.9412,7.0293,6.6914,6.6914,6.6914,6.6914,6.6914,6.6833,6.6628,6.6539,6.6426,6.616,6.6039,6.5969,6.5923,6.5904,6.5904,6.5904,6.5904,6.5904,6.5904,6.5904,6.5904,6.5904,6.5904,6.5904,6.5904,6.5904,6.5904,6.5904,6.5904,6.5904,6.5904,6.5904,6.5904,6.5904,6.5904,6.5904,6.5904,6.5904,6.5904,6.5904,6.5904,6.5904,6.5904,6.5904,6.5904,6.5904,6.5904,6.5904,6.5904,6.5904,6.5904,6.5904,6.5904,6.5904,6.5904,6.5904,6.5904,6.5904,6.5904,6.5904,6.5904,6.5904,6.6211,6.6365,6.5981,6.5904,6.5904,6.5904,6.6211,6.6481,6.6481,6.6821,6.709,6.709,6.7436,6.7705,6.7705,6.8122,6.8391,6.8391,6.8776,6.9161,6.9552,7.0014,7.0283,7.0283,6.9655,6.9302,6.9302,6.8296,6.77,6.77,6.77,6.77,6.77,6.77,6.77,6.77,6.77,6.77,6.77,6.77,6.77,6.77,6.77,6.77,6.77,6.77,6.77,6.77,6.77,6.77,6.7847,6.9045,7.022,7.1358,6.6914,6.6914,6.6914,6.6914,6.6874,6.6787,6.6608,6.6449,6.6272,6.6075,6.5951,6.5904,6.5904,6.5904,6.5904,6.5904,6.5904,6.5904,6.5904,6.5904,6.5904,6.5904,6.5904,6.5904,6.5904,6.5904,6.5904,6.5904,6.5904,6.5904,6.5904,6.5904,6.5904,6.5904,6.5904,6.5904,6.5904,6.5904,6.5904,6.5904,6.5904,6.5904,6.5904,6.5904,6.5904,6.5904,6.5904,6.5904,6.5904,6.5904,6.5904,6.5904,6.5904,6.5904,6.5904,6.5904,6.5904,6.5904,6.5904,6.6013,6.6096,6.6096,6.6712,6.7135,6.6474,6.632,6.632,6.632,6.6865,6.7327,6.7327,6.7898,6.8391,6.8391,6.8507,6.8622,6.8622,6.8737,6.8814,6.8814,6.9468,7.0167,7.0821,7.0898,7.0898,7.0898,6.9921,6.9302,6.9302,6.8296,6.77,6.77,6.77,6.77,6.77,6.77,6.77,6.77,6.77,6.77,6.77,6.77,6.77,6.77,6.77,6.77,6.77,6.77,6.77,6.77,6.77,6.77,6.7884,6.9486,7.1101,7.2496,6.6914,6.6914,6.6914,6.6914,6.6743,6.6604,6.6444,6.6264,6.6109,6.5931,6.5929,6.5904,6.5904,6.5904,6.5904,6.5904,6.5904,6.5904,6.5904,6.5904,6.5904,6.5904,6.5904,6.5904,6.5904,6.5904,6.5904,6.5904,6.5904,6.5904,6.5904,6.5904,6.5904,6.5904,6.5904,6.5904,6.5904,6.5904,6.5904,6.5904,6.5904,6.5904,6.5904,6.5904,6.5904,6.5904,6.5904,6.5904,6.5904,6.5904,6.5904,6.5904,6.5904,6.5904,6.5904,6.5904,6.5904,6.5904,6.5904,6.6404,6.6942,6.6942,6.759,6.8199,6.8084,6.8045,6.8045,6.8045,6.816,6.8237,6.8237,6.8314,6.8391,6.8391,6.9045,6.9513,6.9513,7.0129,7.0552,7.0552,7.0667,7.0783,7.0898,7.0898,7.0898,7.0898,6.9921,6.9302,6.9302,6.8296,6.77,6.77,6.77,6.77,6.77,6.77,6.77,6.77,6.77,6.77,6.77,6.77,6.77,6.77,6.77,6.77,6.77,6.77,6.77,6.77,6.77,6.77,6.7884,6.9486,7.1101,7.2496,6.6914,6.6914,6.6914,6.6914,6.6738,6.6545,6.6412,6.6224,6.6054,6.5903,6.5904,6.5904,6.5904,6.5904,6.5904,6.5904,6.5904,6.5904,6.5904,6.5904,6.5904,6.5904,6.5904,6.5904,6.5904,6.5904,6.5904,6.5904,6.5904,6.5904,6.5904,6.5904,6.5904,6.5904,6.5904,6.5904,6.5904,6.5904,6.5904,6.5904,6.5904,6.5904,6.5904,6.5904,6.5904,6.5904,6.5904,6.5904,6.5904,6.5904,6.5904,6.5904,6.5904,6.5904,6.5981,6.6442,6.6558,6.6667,6.7167,6.7552,6.7821,6.7821,6.8475,6.9122,6.9122,6.9468,6.9545,6.8584,6.8776,6.9122,6.9122,6.9475,6.9821,6.9821,7.0129,7.036,7.036,7.0667,7.0898,7.0898,7.0898,7.0898,7.0898,7.0898,7.0898,7.0898,7.017,6.9617,6.9323,6.8593,6.802,6.7714,6.77,6.77,6.77,6.77,6.77,6.77,6.77,6.77,6.77,6.77,6.77,6.77,6.77,6.77,6.77,6.77,6.77,6.77,6.77,6.8251,6.9119,6.9816,7.1101,7.2496]}]]